Wetterdaten: Montag, 24.10.2016
Datum Zeit Temp. A. Feuchte A. Luftdruck Regen Wind Richtung Richtung Sonnenschein ET UV Solar Taupunkt Windchill Windben Empfang
24.10.2016 00:00 5,3 C 97 % 1015,7 hPa 0,0 l/m 6,0 km/h (2 Bft) N-NO 25 0 min 0,000 mm 0,0 UV-I 0 W/m 4,9 C 5,3 C 12,9 km/h (3 Bft) 100,00 %
24.10.2016 00:02 5,3 C 97 % 1015,8 hPa 0,0 l/m 6,2 km/h (2 Bft) N-NO 21 0 min 0,000 mm 0,0 UV-I 0 W/m 4,9 C 5,3 C 12,9 km/h (3 Bft) 92,68 %
24.10.2016 00:04 5,3 C 97 % 1015,7 hPa 0,0 l/m 5,0 km/h (1 Bft) N-NO 13 0 min 0,000 mm 0,0 UV-I 0 W/m 4,9 C 5,3 C 9,7 km/h (2 Bft) 97,73 %
24.10.2016 00:06 5,3 C 97 % 1015,7 hPa 0,0 l/m 3,5 km/h (1 Bft) N-NO 20 0 min 0,000 mm 0,0 UV-I 0 W/m 4,9 C 5,3 C 8,0 km/h (2 Bft) 100,00 %
24.10.2016 00:08 5,3 C 97 % 1015,8 hPa 0,0 l/m 5,3 km/h (1 Bft) N-NO 24 0 min 0,000 mm 0,0 UV-I 0 W/m 4,9 C 5,3 C 9,7 km/h (2 Bft) 98,00 %
24.10.2016 00:10 5,3 C 97 % 1015,8 hPa 0,0 l/m 4,9 km/h (1 Bft) NO 38 0 min 0,000 mm 0,0 UV-I 0 W/m 4,9 C 5,3 C 8,0 km/h (2 Bft) 100,00 %
24.10.2016 00:12 5,3 C 97 % 1015,8 hPa 0,0 l/m 5,8 km/h (2 Bft) NO 34 0 min 0,000 mm 0,0 UV-I 0 W/m 4,9 C 5,3 C 8,0 km/h (2 Bft) 97,37 %
24.10.2016 00:14 5,3 C 97 % 1015,8 hPa 0,0 l/m 5,2 km/h (1 Bft) NO 40 0 min 0,000 mm 0,0 UV-I 0 W/m 4,9 C 5,3 C 8,0 km/h (2 Bft) 98,11 %
24.10.2016 00:16 5,3 C 97 % 1015,9 hPa 0,0 l/m 3,9 km/h (1 Bft) NO 40 0 min 0,000 mm 0,0 UV-I 0 W/m 4,9 C 5,3 C 6,4 km/h (2 Bft) 100,00 %
24.10.2016 00:18 5,3 C 97 % 1015,9 hPa 0,0 l/m 3,9 km/h (1 Bft) NO 37 0 min 0,000 mm 0,0 UV-I 0 W/m 4,9 C 5,3 C 8,0 km/h (2 Bft) 100,00 %
24.10.2016 00:20 5,3 C 97 % 1015,9 hPa 0,0 l/m 4,5 km/h (1 Bft) NO 37 0 min 0,000 mm 0,0 UV-I 0 W/m 4,9 C 5,3 C 6,4 km/h (2 Bft) 100,00 %
24.10.2016 00:22 5,3 C 97 % 1015,9 hPa 0,0 l/m 4,5 km/h (1 Bft) O-NO 59 0 min 0,000 mm 0,0 UV-I 0 W/m 4,9 C 5,3 C 6,4 km/h (2 Bft) 100,00 %
24.10.2016 00:24 5,3 C 97 % 1015,9 hPa 0,0 l/m 4,8 km/h (1 Bft) NO 53 0 min 0,000 mm 0,0 UV-I 0 W/m 4,9 C 5,3 C 6,4 km/h (2 Bft) 100,00 %
24.10.2016 00:26 5,3 C 97 % 1015,8 hPa 0,0 l/m 4,5 km/h (1 Bft) NO 49 0 min 0,000 mm 0,0 UV-I 0 W/m 4,9 C 5,3 C 8,0 km/h (2 Bft) 100,00 %
24.10.2016 00:28 5,3 C 97 % 1015,8 hPa 0,0 l/m 4,8 km/h (1 Bft) O-NO 58 0 min 0,000 mm 0,0 UV-I 0 W/m 4,9 C 5,3 C 8,0 km/h (2 Bft) 100,00 %
24.10.2016 00:30 5,3 C 97 % 1015,8 hPa 0,0 l/m 5,1 km/h (1 Bft) O-NO 61 0 min 0,000 mm 0,0 UV-I 0 W/m 4,9 C 5,3 C 8,0 km/h (2 Bft) 100,00 %
24.10.2016 00:32 5,3 C 97 % 1015,8 hPa 0,0 l/m 5,1 km/h (1 Bft) O-NO 58 0 min 0,000 mm 0,0 UV-I 0 W/m 4,9 C 5,3 C 6,4 km/h (2 Bft) 100,00 %
24.10.2016 00:34 5,3 C 97 % 1015,9 hPa 0,0 l/m 4,4 km/h (1 Bft) O-NO 65 0 min 0,000 mm 0,0 UV-I 0 W/m 4,9 C 5,3 C 6,4 km/h (2 Bft) 100,00 %
24.10.2016 00:36 5,3 C 97 % 1015,9 hPa 0,0 l/m 2,8 km/h (1 Bft) O-NO 65 0 min 0,000 mm 0,0 UV-I 0 W/m 4,9 C 5,3 C 4,8 km/h (1 Bft) 100,00 %
24.10.2016 00:38 5,3 C 97 % 1015,8 hPa 0,0 l/m 2,1 km/h (1 Bft) O-NO 65 0 min 0,000 mm 0,0 UV-I 0 W/m 4,9 C 5,3 C 4,8 km/h (1 Bft) 100,00 %
24.10.2016 00:40 5,3 C 97 % 1015,9 hPa 0,0 l/m 4,5 km/h (1 Bft) O-NO 64 0 min 0,000 mm 0,0 UV-I 0 W/m 4,9 C 5,3 C 6,4 km/h (2 Bft) 100,00 %
24.10.2016 00:42 5,3 C 97 % 1015,7 hPa 0,0 l/m 5,6 km/h (1 Bft) O-NO 74 0 min 0,000 mm 0,0 UV-I 0 W/m 4,9 C 5,3 C 8,0 km/h (2 Bft) 100,00 %
24.10.2016 00:44 5,3 C 97 % 1015,7 hPa 0,0 l/m 6,3 km/h (2 Bft) O 88 0 min 0,000 mm 0,0 UV-I 0 W/m 4,9 C 5,3 C 9,7 km/h (2 Bft) 100,00 %
24.10.2016 00:46 5,3 C 97 % 1015,7 hPa 0,0 l/m 5,6 km/h (1 Bft) O-NO 71 0 min 0,000 mm 0,0 UV-I 0 W/m 4,9 C 5,3 C 8,0 km/h (2 Bft) 98,11 %
24.10.2016 00:48 5,3 C 97 % 1015,8 hPa 0,0 l/m 5,4 km/h (1 Bft) O-NO 69 0 min 0,000 mm 0,0 UV-I 0 W/m 4,9 C 5,3 C 8,0 km/h (2 Bft) 100,00 %
24.10.2016 00:50 5,3 C 97 % 1015,8 hPa 0,0 l/m 6,2 km/h (2 Bft) O 79 0 min 0,000 mm 0,0 UV-I 0 W/m 4,9 C 5,3 C 8,0 km/h (2 Bft) 100,00 %
24.10.2016 00:52 5,3 C 98 % 1015,8 hPa 0,0 l/m 5,6 km/h (1 Bft) O-NO 69 0 min 0,000 mm 0,0 UV-I 0 W/m 5,0 C 5,3 C 8,0 km/h (2 Bft) 100,00 %
24.10.2016 00:54 5,3 C 98 % 1015,7 hPa 0,0 l/m 6,2 km/h (2 Bft) O-NO 71 0 min 0,000 mm 0,0 UV-I 0 W/m 5,0 C 5,3 C 8,0 km/h (2 Bft) 97,56 %
24.10.2016 00:56 5,3 C 98 % 1015,9 hPa 0,0 l/m 6,3 km/h (2 Bft) O-SO 109 0 min 0,000 mm 0,0 UV-I 0 W/m 5,0 C 5,3 C 11,3 km/h (2 Bft) 98,11 %
24.10.2016 00:58 5,3 C 98 % 1015,9 hPa 0,0 l/m 2,0 km/h (1 Bft) O-NO 71 0 min 0,000 mm 0,0 UV-I 0 W/m 5,0 C 5,3 C 4,8 km/h (1 Bft) 100,00 %
24.10.2016 01:00 5,4 C 98 % 1015,8 hPa 0,0 l/m 3,5 km/h (1 Bft) SO 132 0 min 0,000 mm 0,0 UV-I 0 W/m 5,1 C 5,4 C 6,4 km/h (2 Bft) 100,00 %
24.10.2016 01:02 5,4 C 98 % 1015,8 hPa 0,0 l/m 4,9 km/h (1 Bft) O 98 0 min 0,000 mm 0,0 UV-I 0 W/m 5,1 C 5,4 C 6,4 km/h (2 Bft) 100,00 %
24.10.2016 01:04 5,4 C 98 % 1015,7 hPa 0,0 l/m 5,7 km/h (1 Bft) O-NO 59 0 min 0,000 mm 0,0 UV-I 0 W/m 5,1 C 5,4 C 9,7 km/h (2 Bft) 100,00 %
24.10.2016 01:06 5,4 C 98 % 1015,7 hPa 0,0 l/m 7,1 km/h (2 Bft) O-NO 70 0 min 0,000 mm 0,0 UV-I 0 W/m 5,1 C 4,8 C 11,3 km/h (2 Bft) 100,00 %
24.10.2016 01:09 5,3 C 98 % 1015,7 hPa 0,0 l/m 9,5 km/h (2 Bft) O-NO 75 0 min 0,000 mm 0,0 UV-I 0 W/m 5,0 C 2,8 C 14,5 km/h (3 Bft) 100,00 %
24.10.2016 01:10 5,3 C 98 % 1015,7 hPa 0,0 l/m 8,4 km/h (2 Bft) O-NO 67 0 min 0,000 mm 0,0 UV-I 0 W/m 5,0 C 3,6 C 11,3 km/h (2 Bft) 100,00 %
24.10.2016 01:12 5,3 C 98 % 1015,8 hPa 0,0 l/m 6,8 km/h (2 Bft) O-NO 63 0 min 0,000 mm 0,0 UV-I 0 W/m 5,0 C 5,0 C 11,3 km/h (2 Bft) 96,00 %
24.10.2016 01:14 5,3 C 98 % 1015,8 hPa 0,0 l/m 6,0 km/h (2 Bft) NO 50 0 min 0,000 mm 0,0 UV-I 0 W/m 5,0 C 5,3 C 9,7 km/h (2 Bft) 100,00 %
24.10.2016 01:16 5,3 C 98 % 1015,9 hPa 0,0 l/m 10,1 km/h (2 Bft) O 80 0 min 0,000 mm 0,0 UV-I 0 W/m 5,0 C 2,3 C 14,5 km/h (3 Bft) 94,87 %
24.10.2016 01:18 5,3 C 98 % 1015,9 hPa 0,0 l/m 6,8 km/h (2 Bft) O-NO 69 0 min 0,000 mm 0,0 UV-I 0 W/m 5,0 C 5,0 C 9,7 km/h (2 Bft) 98,11 %
24.10.2016 01:20 5,3 C 98 % 1015,9 hPa 0,0 l/m 6,9 km/h (2 Bft) NO 56 0 min 0,000 mm 0,0 UV-I 0 W/m 5,0 C 4,9 C 9,7 km/h (2 Bft) 98,00 %
24.10.2016 01:22 5,3 C 98 % 1015,8 hPa 0,0 l/m 6,8 km/h (2 Bft) NO 52 0 min 0,000 mm 0,0 UV-I 0 W/m 5,0 C 5,0 C 9,7 km/h (2 Bft) 97,73 %
24.10.2016 01:24 5,3 C 98 % 1015,7 hPa 0,0 l/m 5,8 km/h (2 Bft) NO 53 0 min 0,000 mm 0,0 UV-I 0 W/m 5,0 C 5,3 C 8,0 km/h (2 Bft) 97,87 %
24.10.2016 01:26 5,3 C 98 % 1015,8 hPa 0,0 l/m 5,5 km/h (1 Bft) O-NO 69 0 min 0,000 mm 0,0 UV-I 0 W/m 5,0 C 5,3 C 8,0 km/h (2 Bft) 98,00 %
24.10.2016 01:28 5,3 C 98 % 1015,7 hPa 0,0 l/m 7,0 km/h (2 Bft) NO 53 0 min 0,000 mm 0,0 UV-I 0 W/m 5,0 C 4,8 C 12,9 km/h (3 Bft) 97,56 %
24.10.2016 01:30 5,3 C 98 % 1015,8 hPa 0,0 l/m 6,7 km/h (2 Bft) O-NO 59 0 min 0,000 mm 0,0 UV-I 0 W/m 5,0 C 5,1 C 9,7 km/h (2 Bft) 95,45 %
24.10.2016 01:32 5,3 C 98 % 1015,9 hPa 0,0 l/m 5,4 km/h (1 Bft) NO 41 0 min 0,000 mm 0,0 UV-I 0 W/m 5,0 C 5,3 C 9,7 km/h (2 Bft) 96,00 %
24.10.2016 01:34 5,3 C 98 % 1016,0 hPa 0,0 l/m 8,3 km/h (2 Bft) O-NO 72 0 min 0,000 mm 0,0 UV-I 0 W/m 5,0 C 3,7 C 12,9 km/h (3 Bft) 98,00 %
24.10.2016 01:36 5,3 C 98 % 1016,0 hPa 0,0 l/m 6,5 km/h (2 Bft) O-NO 76 0 min 0,000 mm 0,0 UV-I 0 W/m 5,0 C 5,2 C 12,9 km/h (3 Bft) 92,11 %
24.10.2016 01:38 5,3 C 98 % 1016,0 hPa 0,0 l/m 6,2 km/h (2 Bft) O-NO 76 0 min 0,000 mm 0,0 UV-I 0 W/m 5,0 C 5,3 C 12,9 km/h (3 Bft) 97,87 %
24.10.2016 01:40 5,3 C 98 % 1015,9 hPa 0,0 l/m 8,0 km/h (2 Bft) O 86 0 min 0,000 mm 0,0 UV-I 0 W/m 5,0 C 3,9 C 12,9 km/h (3 Bft) 98,00 %
24.10.2016 01:42 5,3 C 98 % 1016,0 hPa 0,0 l/m 5,1 km/h (1 Bft) O-NO 57 0 min 0,000 mm 0,0 UV-I 0 W/m 5,0 C 5,3 C 8,0 km/h (2 Bft) 98,11 %
24.10.2016 01:44 5,2 C 98 % 1016,0 hPa 0,0 l/m 6,8 km/h (2 Bft) O-NO 65 0 min 0,000 mm 0,0 UV-I 0 W/m 4,9 C 4,9 C 11,3 km/h (2 Bft) 97,37 %
24.10.2016 01:46 5,2 C 98 % 1016,1 hPa 0,0 l/m 6,1 km/h (2 Bft) O-NO 57 0 min 0,000 mm 0,0 UV-I 0 W/m 4,9 C 5,2 C 9,7 km/h (2 Bft) 97,62 %
24.10.2016 01:48 5,2 C 98 % 1016,0 hPa 0,0 l/m 7,3 km/h (2 Bft) O-NO 59 0 min 0,000 mm 0,0 UV-I 0 W/m 4,9 C 4,4 C 9,7 km/h (2 Bft) 96,55 %
24.10.2016 01:50 5,2 C 98 % 1016,0 hPa 0,0 l/m 7,6 km/h (2 Bft) O-NO 63 0 min 0,000 mm 0,0 UV-I 0 W/m 4,9 C 4,1 C 11,3 km/h (2 Bft) 97,87 %
24.10.2016 01:52 5,2 C 98 % 1016,1 hPa 0,0 l/m 5,0 km/h (1 Bft) O-NO 69 0 min 0,000 mm 0,0 UV-I 0 W/m 4,9 C 5,2 C 8,0 km/h (2 Bft) 98,00 %
24.10.2016 01:54 5,2 C 98 % 1016,1 hPa 0,0 l/m 3,9 km/h (1 Bft) O-NO 57 0 min 0,000 mm 0,0 UV-I 0 W/m 4,9 C 5,2 C 6,4 km/h (2 Bft) 100,00 %
24.10.2016 01:56 5,2 C 98 % 1016,1 hPa 0,0 l/m 4,7 km/h (1 Bft) O-NO 60 0 min 0,000 mm 0,0 UV-I 0 W/m 4,9 C 5,2 C 6,4 km/h (2 Bft) 100,00 %
24.10.2016 01:58 5,3 C 98 % 1016,1 hPa 0,0 l/m 5,8 km/h (2 Bft) NO 38 0 min 0,000 mm 0,0 UV-I 0 W/m 5,0 C 5,3 C 8,0 km/h (2 Bft) 100,00 %
24.10.2016 02:00 5,3 C 98 % 1016,1 hPa 0,0 l/m 5,9 km/h (2 Bft) O-NO 66 0 min 0,000 mm 0,0 UV-I 0 W/m 5,0 C 5,3 C 8,0 km/h (2 Bft) 100,00 %
24.10.2016 02:02 5,3 C 98 % 1016,1 hPa 0,0 l/m 4,7 km/h (1 Bft) O-NO 78 0 min 0,000 mm 0,0 UV-I 0 W/m 5,0 C 5,3 C 8,0 km/h (2 Bft) 97,37 %
24.10.2016 02:04 5,3 C 98 % 1016,1 hPa 0,0 l/m 3,8 km/h (1 Bft) O-NO 61 0 min 0,000 mm 0,0 UV-I 0 W/m 5,0 C 5,3 C 6,4 km/h (2 Bft) 98,00 %
24.10.2016 02:06 5,3 C 98 % 1016,1 hPa 0,0 l/m 3,3 km/h (1 Bft) O-NO 65 0 min 0,000 mm 0,0 UV-I 0 W/m 5,0 C 5,3 C 4,8 km/h (1 Bft) 100,00 %
24.10.2016 02:08 5,3 C 98 % 1016,1 hPa 0,0 l/m 3,8 km/h (1 Bft) O-SO 111 0 min 0,000 mm 0,0 UV-I 0 W/m 5,0 C 5,3 C 6,4 km/h (2 Bft) 100,00 %
24.10.2016 02:10 5,3 C 98 % 1016,1 hPa 0,0 l/m 7,0 km/h (2 Bft) O 98 0 min 0,000 mm 0,0 UV-I 0 W/m 5,0 C 4,8 C 11,3 km/h (2 Bft) 100,00 %
24.10.2016 02:12 5,3 C 98 % 1015,9 hPa 0,0 l/m 4,9 km/h (1 Bft) O-NO 62 0 min 0,000 mm 0,0 UV-I 0 W/m 5,0 C 5,3 C 6,4 km/h (2 Bft) 100,00 %
24.10.2016 02:14 5,3 C 98 % 1016,0 hPa 0,0 l/m 5,7 km/h (1 Bft) O-NO 74 0 min 0,000 mm 0,0 UV-I 0 W/m 5,0 C 5,3 C 8,0 km/h (2 Bft) 100,00 %
24.10.2016 02:16 5,3 C 98 % 1015,9 hPa 0,0 l/m 5,5 km/h (1 Bft) O-NO 73 0 min 0,000 mm 0,0 UV-I 0 W/m 5,0 C 5,3 C 8,0 km/h (2 Bft) 97,87 %
24.10.2016 02:18 5,3 C 98 % 1015,8 hPa 0,0 l/m 6,9 km/h (2 Bft) O 79 0 min 0,000 mm 0,0 UV-I 0 W/m 5,0 C 4,9 C 11,3 km/h (2 Bft) 100,00 %
24.10.2016 02:20 5,3 C 98 % 1015,7 hPa 0,0 l/m 7,7 km/h (2 Bft) O 92 0 min 0,000 mm 0,0 UV-I 0 W/m 5,0 C 4,2 C 12,9 km/h (3 Bft) 100,00 %
24.10.2016 02:22 5,3 C 98 % 1015,7 hPa 0,0 l/m 7,2 km/h (2 Bft) O-NO 65 0 min 0,000 mm 0,0 UV-I 0 W/m 5,0 C 4,6 C 11,3 km/h (2 Bft) 97,87 %
24.10.2016 02:24 5,3 C 98 % 1015,8 hPa 0,0 l/m 9,9 km/h (2 Bft) O 81 0 min 0,000 mm 0,0 UV-I 0 W/m 5,0 C 2,5 C 14,5 km/h (3 Bft) 100,00 %
24.10.2016 02:26 5,3 C 98 % 1015,9 hPa 0,0 l/m 8,0 km/h (2 Bft) O 80 0 min 0,000 mm 0,0 UV-I 0 W/m 5,0 C 3,9 C 12,9 km/h (3 Bft) 100,00 %
24.10.2016 02:28 5,3 C 98 % 1015,9 hPa 0,0 l/m 7,7 km/h (2 Bft) O 82 0 min 0,000 mm 0,0 UV-I 0 W/m 5,0 C 4,2 C 12,9 km/h (3 Bft) 100,00 %
24.10.2016 02:30 5,3 C 98 % 1016,0 hPa 0,0 l/m 3,3 km/h (1 Bft) O-SO 113 0 min 0,000 mm 0,0 UV-I 0 W/m 5,0 C 5,3 C 4,8 km/h (1 Bft) 100,00 %
24.10.2016 02:32 5,3 C 98 % 1016,1 hPa 0,0 l/m 3,4 km/h (1 Bft) O 98 0 min 0,000 mm 0,0 UV-I 0 W/m 5,0 C 5,3 C 6,4 km/h (2 Bft) 98,00 %
24.10.2016 02:34 5,3 C 98 % 1016,2 hPa 0,0 l/m 4,5 km/h (1 Bft) O-NO 70 0 min 0,000 mm 0,0 UV-I 0 W/m 5,0 C 5,3 C 6,4 km/h (2 Bft) 100,00 %
24.10.2016 02:36 5,3 C 98 % 1016,1 hPa 0,0 l/m 3,7 km/h (1 Bft) NO 54 0 min 0,000 mm 0,0 UV-I 0 W/m 5,0 C 5,3 C 8,0 km/h (2 Bft) 100,00 %
24.10.2016 02:38 5,3 C 98 % 1016,2 hPa 0,0 l/m 5,4 km/h (1 Bft) O 84 0 min 0,000 mm 0,0 UV-I 0 W/m 5,0 C 5,3 C 8,0 km/h (2 Bft) 97,37 %
24.10.2016 02:40 5,3 C 98 % 1016,2 hPa 0,0 l/m 4,0 km/h (1 Bft) O-NO 77 0 min 0,000 mm 0,0 UV-I 0 W/m 5,0 C 5,3 C 8,0 km/h (2 Bft) 100,00 %
24.10.2016 02:42 5,3 C 98 % 1016,2 hPa 0,0 l/m 7,4 km/h (2 Bft) O-SO 115 0 min 0,000 mm 0,0 UV-I 0 W/m 5,0 C 4,4 C 11,3 km/h (2 Bft) 98,00 %
24.10.2016 02:44 5,3 C 98 % 1016,2 hPa 0,0 l/m 5,2 km/h (1 Bft) O-NO 65 0 min 0,000 mm 0,0 UV-I 0 W/m 5,0 C 5,3 C 9,7 km/h (2 Bft) 100,00 %
24.10.2016 02:46 5,3 C 98 % 1016,1 hPa 0,0 l/m 7,6 km/h (2 Bft) O-NO 71 0 min 0,000 mm 0,0 UV-I 0 W/m 5,0 C 4,3 C 11,3 km/h (2 Bft) 100,00 %
24.10.2016 02:48 5,3 C 98 % 1016,1 hPa 0,0 l/m 7,4 km/h (2 Bft) O-NO 62 0 min 0,000 mm 0,0 UV-I 0 W/m 5,0 C 4,4 C 11,3 km/h (2 Bft) 100,00 %
24.10.2016 02:50 5,3 C 98 % 1016,1 hPa 0,0 l/m 8,0 km/h (2 Bft) O 82 0 min 0,000 mm 0,0 UV-I 0 W/m 5,0 C 3,9 C 12,9 km/h (3 Bft) 100,00 %
24.10.2016 02:52 5,3 C 98 % 1016,1 hPa 0,0 l/m 7,0 km/h (2 Bft) O-NO 59 0 min 0,000 mm 0,0 UV-I 0 W/m 5,0 C 4,8 C 12,9 km/h (3 Bft) 100,00 %
24.10.2016 02:54 5,3 C 98 % 1016,1 hPa 0,0 l/m 6,7 km/h (2 Bft) O 83 0 min 0,000 mm 0,0 UV-I 0 W/m 5,0 C 5,1 C 11,3 km/h (2 Bft) 97,37 %
24.10.2016 02:56 5,3 C 98 % 1016,1 hPa 0,0 l/m 6,8 km/h (2 Bft) O-NO 73 0 min 0,000 mm 0,0 UV-I 0 W/m 5,0 C 5,0 C 11,3 km/h (2 Bft) 100,00 %
24.10.2016 02:58 5,3 C 98 % 1016,0 hPa 0,0 l/m 5,8 km/h (2 Bft) NO 50 0 min 0,000 mm 0,0 UV-I 0 W/m 5,0 C 5,3 C 8,0 km/h (2 Bft) 100,00 %
24.10.2016 03:00 5,3 C 98 % 1016,0 hPa 0,0 l/m 7,4 km/h (2 Bft) O-NO 69 0 min 0,000 mm 0,0 UV-I 0 W/m 5,0 C 4,4 C 11,3 km/h (2 Bft) 98,00 %
24.10.2016 03:02 5,3 C 98 % 1015,9 hPa 0,0 l/m 9,3 km/h (2 Bft) O-NO 66 0 min 0,000 mm 0,0 UV-I 0 W/m 5,0 C 2,9 C 14,5 km/h (3 Bft) 100,00 %
24.10.2016 03:04 5,3 C 98 % 1016,0 hPa 0,0 l/m 8,5 km/h (2 Bft) O-SO 113 0 min 0,000 mm 0,0 UV-I 0 W/m 5,0 C 3,5 C 12,9 km/h (3 Bft) 100,00 %
24.10.2016 03:06 5,3 C 98 % 1015,9 hPa 0,0 l/m 8,7 km/h (2 Bft) O 84 0 min 0,000 mm 0,0 UV-I 0 W/m 5,0 C 3,4 C 12,9 km/h (3 Bft) 96,23 %
24.10.2016 03:08 5,4 C 98 % 1015,9 hPa 0,0 l/m 9,1 km/h (2 Bft) O-NO 59 0 min 0,000 mm 0,0 UV-I 0 W/m 5,1 C 3,2 C 14,5 km/h (3 Bft) 100,00 %
24.10.2016 03:10 5,4 C 98 % 1016,1 hPa 0,0 l/m 6,8 km/h (2 Bft) NO 53 0 min 0,000 mm 0,0 UV-I 0 W/m 5,1 C 5,1 C 11,3 km/h (2 Bft) 100,00 %
24.10.2016 03:12 5,4 C 98 % 1016,1 hPa 0,0 l/m 5,8 km/h (2 Bft) O-NO 61 0 min 0,000 mm 0,0 UV-I 0 W/m 5,1 C 5,4 C 9,7 km/h (2 Bft) 100,00 %
24.10.2016 03:14 5,4 C 98 % 1016,2 hPa 0,0 l/m 4,3 km/h (1 Bft) O-NO 71 0 min 0,000 mm 0,0 UV-I 0 W/m 5,1 C 5,4 C 6,4 km/h (2 Bft) 100,00 %
24.10.2016 03:16 5,4 C 98 % 1016,3 hPa 0,0 l/m 3,7 km/h (1 Bft) O-NO 67 0 min 0,000 mm 0,0 UV-I 0 W/m 5,1 C 5,4 C 6,4 km/h (2 Bft) 100,00 %
24.10.2016 03:18 5,4 C 98 % 1016,3 hPa 0,0 l/m 2,8 km/h (1 Bft) O-NO 67 0 min 0,000 mm 0,0 UV-I 0 W/m 5,1 C 5,4 C 6,4 km/h (2 Bft) 100,00 %
24.10.2016 03:20 5,4 C 98 % 1016,4 hPa 0,0 l/m 2,8 km/h (1 Bft) O-NO 65 0 min 0,000 mm 0,0 UV-I 0 W/m 5,1 C 5,4 C 4,8 km/h (1 Bft) 96,00 %
24.10.2016 03:22 5,4 C 98 % 1016,4 hPa 0,0 l/m 3,5 km/h (1 Bft) O-NO 71 0 min 0,000 mm 0,0 UV-I 0 W/m 5,1 C 5,4 C 4,8 km/h (1 Bft) 97,37 %
24.10.2016 03:24 5,4 C 98 % 1016,3 hPa 0,0 l/m 5,0 km/h (1 Bft) O 88 0 min 0,000 mm 0,0 UV-I 0 W/m 5,1 C 5,4 C 8,0 km/h (2 Bft) 98,11 %
24.10.2016 03:26 5,4 C 98 % 1016,2 hPa 0,0 l/m 5,8 km/h (2 Bft) O-NO 63 0 min 0,000 mm 0,0 UV-I 0 W/m 5,1 C 5,4 C 9,7 km/h (2 Bft) 98,00 %
24.10.2016 03:28 5,4 C 98 % 1016,2 hPa 0,0 l/m 4,9 km/h (1 Bft) O-NO 68 0 min 0,000 mm 0,0 UV-I 0 W/m 5,1 C 5,4 C 8,0 km/h (2 Bft) 97,56 %
24.10.2016 03:30 5,4 C 98 % 1016,3 hPa 0,0 l/m 6,4 km/h (2 Bft) O-NO 73 0 min 0,000 mm 0,0 UV-I 0 W/m 5,1 C 5,4 C 11,3 km/h (2 Bft) 96,23 %
24.10.2016 03:32 5,4 C 98 % 1016,2 hPa 0,0 l/m 6,7 km/h (2 Bft) O-NO 73 0 min 0,000 mm 0,0 UV-I 0 W/m 5,1 C 5,2 C 8,0 km/h (2 Bft) 100,00 %
24.10.2016 03:34 5,4 C 98 % 1016,2 hPa 0,0 l/m 8,0 km/h (2 Bft) O-NO 65 0 min 0,000 mm 0,0 UV-I 0 W/m 5,1 C 4,0 C 12,9 km/h (3 Bft) 95,74 %
24.10.2016 03:36 5,4 C 98 % 1016,1 hPa 0,0 l/m 9,8 km/h (2 Bft) O 82 0 min 0,000 mm 0,0 UV-I 0 W/m 5,1 C 2,7 C 12,9 km/h (3 Bft) 96,08 %
24.10.2016 03:38 5,4 C 98 % 1016,1 hPa 0,0 l/m 9,8 km/h (2 Bft) O-SO 107 0 min 0,000 mm 0,0 UV-I 0 W/m 5,1 C 2,7 C 14,5 km/h (3 Bft) 97,87 %
24.10.2016 03:40 5,4 C 98 % 1016,1 hPa 0,0 l/m 6,3 km/h (2 Bft) O 83 0 min 0,000 mm 0,0 UV-I 0 W/m 5,1 C 5,4 C 9,7 km/h (2 Bft) 97,56 %
24.10.2016 03:42 5,4 C 98 % 1016,2 hPa 0,0 l/m 7,7 km/h (2 Bft) O-SO 107 0 min 0,000 mm 0,0 UV-I 0 W/m 5,1 C 4,3 C 12,9 km/h (3 Bft) 98,00 %
24.10.2016 03:44 5,3 C 98 % 1016,1 hPa 0,0 l/m 8,5 km/h (2 Bft) O 99 0 min 0,000 mm 0,0 UV-I 0 W/m 5,0 C 3,5 C 12,9 km/h (3 Bft) 96,23 %
24.10.2016 03:46 5,3 C 98 % 1016,0 hPa 0,0 l/m 9,1 km/h (2 Bft) O 86 0 min 0,000 mm 0,0 UV-I 0 W/m 5,0 C 3,1 C 12,9 km/h (3 Bft) 97,22 %
24.10.2016 03:48 5,3 C 98 % 1016,0 hPa 0,0 l/m 6,2 km/h (2 Bft) O-NO 69 0 min 0,000 mm 0,0 UV-I 0 W/m 5,0 C 5,3 C 12,9 km/h (3 Bft) 98,08 %
24.10.2016 03:50 5,3 C 98 % 1016,1 hPa 0,0 l/m 4,7 km/h (1 Bft) O-NO 69 0 min 0,000 mm 0,0 UV-I 0 W/m 5,0 C 5,3 C 8,0 km/h (2 Bft) 93,75 %
24.10.2016 03:52 5,3 C 98 % 1016,2 hPa 0,0 l/m 4,3 km/h (1 Bft) O-NO 62 0 min 0,000 mm 0,0 UV-I 0 W/m 5,0 C 5,3 C 6,4 km/h (2 Bft) 95,92 %
24.10.2016 03:54 5,3 C 98 % 1016,2 hPa 0,0 l/m 2,7 km/h (1 Bft) NO 54 0 min 0,000 mm 0,0 UV-I 0 W/m 5,0 C 5,3 C 8,0 km/h (2 Bft) 100,00 %
24.10.2016 03:56 5,3 C 98 % 1016,3 hPa 0,0 l/m 3,8 km/h (1 Bft) O 79 0 min 0,000 mm 0,0 UV-I 0 W/m 5,0 C 5,3 C 9,7 km/h (2 Bft) 100,00 %
24.10.2016 03:58 5,3 C 98 % 1016,2 hPa 0,0 l/m 6,4 km/h (2 Bft) O 94 0 min 0,000 mm 0,0 UV-I 0 W/m 5,0 C 5,3 C 12,9 km/h (3 Bft) 97,73 %
24.10.2016 04:00 5,3 C 98 % 1016,1 hPa 0,0 l/m 7,9 km/h (2 Bft) O 92 0 min 0,000 mm 0,0 UV-I 0 W/m 5,0 C 4,0 C 11,3 km/h (2 Bft) 98,00 %
24.10.2016 04:02 5,3 C 98 % 1016,2 hPa 0,0 l/m 7,2 km/h (2 Bft) O-NO 68 0 min 0,000 mm 0,0 UV-I 0 W/m 5,0 C 4,6 C 9,7 km/h (2 Bft) 100,00 %
24.10.2016 04:04 5,3 C 98 % 1015,9 hPa 0,0 l/m 5,9 km/h (2 Bft) O 94 0 min 0,000 mm 0,0 UV-I 0 W/m 5,0 C 5,3 C 9,7 km/h (2 Bft) 100,00 %
24.10.2016 04:06 5,3 C 98 % 1015,8 hPa 0,0 l/m 8,6 km/h (2 Bft) O-NO 73 0 min 0,000 mm 0,0 UV-I 0 W/m 5,0 C 3,4 C 12,9 km/h (3 Bft) 100,00 %
24.10.2016 04:08 5,3 C 98 % 1015,9 hPa 0,0 l/m 8,3 km/h (2 Bft) O-NO 61 0 min 0,000 mm 0,0 UV-I 0 W/m 5,0 C 3,7 C 12,9 km/h (3 Bft) 97,73 %
24.10.2016 04:10 5,3 C 98 % 1015,9 hPa 0,0 l/m 4,7 km/h (1 Bft) NO 51 0 min 0,000 mm 0,0 UV-I 0 W/m 5,0 C 5,3 C 6,4 km/h (2 Bft) 100,00 %
24.10.2016 04:12 5,3 C 98 % 1015,9 hPa 0,0 l/m 6,4 km/h (2 Bft) O 84 0 min 0,000 mm 0,0 UV-I 0 W/m 5,0 C 5,3 C 12,9 km/h (3 Bft) 97,37 %
24.10.2016 04:14 5,4 C 98 % 1015,9 hPa 0,0 l/m 10,4 km/h (2 Bft) O 94 0 min 0,000 mm 0,0 UV-I 0 W/m 5,1 C 2,2 C 12,9 km/h (3 Bft) 100,00 %
24.10.2016 04:16 5,4 C 98 % 1016,1 hPa 0,0 l/m 4,0 km/h (1 Bft) NO 51 0 min 0,000 mm 0,0 UV-I 0 W/m 5,1 C 5,4 C 6,4 km/h (2 Bft) 100,00 %
24.10.2016 04:18 5,4 C 98 % 1016,0 hPa 0,0 l/m 4,5 km/h (1 Bft) O 79 0 min 0,000 mm 0,0 UV-I 0 W/m 5,1 C 5,4 C 12,9 km/h (3 Bft) 97,14 %
24.10.2016 04:20 5,4 C 98 % 1015,9 hPa 0,0 l/m 9,3 km/h (2 Bft) O 91 0 min 0,000 mm 0,0 UV-I 0 W/m 5,1 C 3,0 C 12,9 km/h (3 Bft) 100,00 %
24.10.2016 04:22 5,4 C 98 % 1016,1 hPa 0,0 l/m 3,7 km/h (1 Bft) O-SO 107 0 min 0,000 mm 0,0 UV-I 0 W/m 5,1 C 5,4 C 6,4 km/h (2 Bft) 100,00 %
24.10.2016 04:24 5,4 C 98 % 1016,2 hPa 0,0 l/m 1,5 km/h (1 Bft) O-NO 69 0 min 0,000 mm 0,0 UV-I 0 W/m 5,1 C 5,4 C 4,8 km/h (1 Bft) 100,00 %
24.10.2016 04:26 5,4 C 98 % 1016,0 hPa 0,0 l/m 6,4 km/h (2 Bft) O 92 0 min 0,000 mm 0,0 UV-I 0 W/m 5,1 C 5,4 C 11,3 km/h (2 Bft) 100,00 %
24.10.2016 04:28 5,4 C 98 % 1016,1 hPa 0,0 l/m 6,8 km/h (2 Bft) O 92 0 min 0,000 mm 0,0 UV-I 0 W/m 5,1 C 5,1 C 11,3 km/h (2 Bft) 98,08 %
24.10.2016 04:30 5,5 C 98 % 1016,2 hPa 0,0 l/m 2,9 km/h (1 Bft) O 80 0 min 0,000 mm 0,0 UV-I 0 W/m 5,2 C 5,5 C 6,4 km/h (2 Bft) 100,00 %
24.10.2016 04:32 5,4 C 98 % 1016,1 hPa 0,0 l/m 3,9 km/h (1 Bft) O-NO 69 0 min 0,000 mm 0,0 UV-I 0 W/m 5,1 C 5,4 C 8,0 km/h (2 Bft) 100,00 %
24.10.2016 04:34 5,5 C 98 % 1016,1 hPa 0,0 l/m 7,2 km/h (2 Bft) O 88 0 min 0,000 mm 0,0 UV-I 0 W/m 5,2 C 4,8 C 11,3 km/h (2 Bft) 100,00 %
24.10.2016 04:36 5,5 C 98 % 1016,1 hPa 0,0 l/m 4,4 km/h (1 Bft) O-NO 62 0 min 0,000 mm 0,0 UV-I 0 W/m 5,2 C 5,5 C 8,0 km/h (2 Bft) 100,00 %
24.10.2016 04:38 5,5 C 98 % 1016,2 hPa 0,0 l/m 3,1 km/h (1 Bft) O-NO 62 0 min 0,000 mm 0,0 UV-I 0 W/m 5,2 C 5,5 C 4,8 km/h (1 Bft) 100,00 %
24.10.2016 04:40 5,6 C 98 % 1016,3 hPa 0,0 l/m 3,7 km/h (1 Bft) O-NO 76 0 min 0,000 mm 0,0 UV-I 0 W/m 5,3 C 5,6 C 6,4 km/h (2 Bft) 100,00 %
24.10.2016 04:42 5,6 C 98 % 1016,3 hPa 0,0 l/m 4,5 km/h (1 Bft) O-NO 67 0 min 0,000 mm 0,0 UV-I 0 W/m 5,3 C 5,6 C 6,4 km/h (2 Bft) 98,00 %
24.10.2016 04:44 5,6 C 98 % 1016,3 hPa 0,0 l/m 2,2 km/h (1 Bft) O-NO 67 0 min 0,000 mm 0,0 UV-I 0 W/m 5,3 C 5,6 C 4,8 km/h (1 Bft) 100,00 %
24.10.2016 04:46 5,6 C 98 % 1016,3 hPa 0,0 l/m 2,0 km/h (1 Bft) O-NO 67 0 min 0,000 mm 0,0 UV-I 0 W/m 5,3 C 5,6 C 3,2 km/h (1 Bft) 97,87 %
24.10.2016 04:48 5,6 C 98 % 1016,4 hPa 0,0 l/m 0,8 km/h (0 Bft) O-NO 67 0 min 0,000 mm 0,0 UV-I 0 W/m 5,3 C 5,6 C 3,2 km/h (1 Bft) 100,00 %
24.10.2016 04:50 5,6 C 98 % 1016,4 hPa 0,0 l/m 0,4 km/h (0 Bft) O-NO 67 0 min 0,000 mm 0,0 UV-I 0 W/m 5,3 C 5,6 C 3,2 km/h (1 Bft) 97,87 %
24.10.2016 04:52 5,6 C 98 % 1016,4 hPa 0,0 l/m 2,1 km/h (1 Bft) O-NO 67 0 min 0,000 mm 0,0 UV-I 0 W/m 5,3 C 5,6 C 3,2 km/h (1 Bft) 100,00 %
24.10.2016 04:54 5,7 C 98 % 1016,4 hPa 0,0 l/m 1,1 km/h (1 Bft) O-NO 67 0 min 0,000 mm 0,0 UV-I 0 W/m 5,4 C 5,7 C 3,2 km/h (1 Bft) 100,00 %
24.10.2016 04:56 5,7 C 98 % 1016,5 hPa 0,0 l/m 1,1 km/h (1 Bft) O-NO 67 0 min 0,000 mm 0,0 UV-I 0 W/m 5,4 C 5,7 C 3,2 km/h (1 Bft) 100,00 %
24.10.2016 04:58 5,7 C 98 % 1016,5 hPa 0,0 l/m 0,0 km/h (0 Bft) O-NO 67 0 min 0,000 mm 0,0 UV-I 0 W/m 5,4 C 5,7 C 0,0 km/h (0 Bft) 100,00 %
24.10.2016 05:00 5,7 C 98 % 1016,5 hPa 0,0 l/m 1,0 km/h (0 Bft) O-NO 67 0 min 0,000 mm 0,0 UV-I 0 W/m 5,4 C 5,7 C 3,2 km/h (1 Bft) 98,00 %
24.10.2016 05:02 5,7 C 98 % 1016,5 hPa 0,0 l/m 2,2 km/h (1 Bft) O-NO 67 0 min 0,000 mm 0,0 UV-I 0 W/m 5,4 C 5,7 C 3,2 km/h (1 Bft) 100,00 %
24.10.2016 05:04 5,7 C 98 % 1016,5 hPa 0,0 l/m 1,4 km/h (1 Bft) O-NO 67 0 min 0,000 mm 0,0 UV-I 0 W/m 5,4 C 5,7 C 3,2 km/h (1 Bft) 100,00 %
24.10.2016 05:06 5,7 C 98 % 1016,5 hPa 0,0 l/m 0,0 km/h (0 Bft) O-NO 67 0 min 0,000 mm 0,0 UV-I 0 W/m 5,4 C 5,7 C 0,0 km/h (0 Bft) 100,00 %
24.10.2016 05:08 5,7 C 98 % 1016,6 hPa 0,0 l/m 0,6 km/h (0 Bft) O-NO 67 0 min 0,000 mm 0,0 UV-I 0 W/m 5,4 C 5,7 C 3,2 km/h (1 Bft) 100,00 %
24.10.2016 05:10 5,7 C 98 % 1016,6 hPa 0,0 l/m 0,2 km/h (0 Bft) O-NO 67 0 min 0,000 mm 0,0 UV-I 0 W/m 5,4 C 5,7 C 1,6 km/h (1 Bft) 100,00 %
24.10.2016 05:12 5,7 C 98 % 1016,6 hPa 0,0 l/m 0,0 km/h (0 Bft) O-NO 67 0 min 0,000 mm 0,0 UV-I 0 W/m 5,4 C 5,7 C 1,6 km/h (1 Bft) 100,00 %
24.10.2016 05:14 5,8 C 98 % 1016,5 hPa 0,0 l/m 0,0 km/h (0 Bft) O-NO 67 0 min 0,000 mm 0,0 UV-I 0 W/m 5,5 C 5,8 C 0,0 km/h (0 Bft) 98,08 %
24.10.2016 05:16 5,7 C 98 % 1016,6 hPa 0,0 l/m 1,8 km/h (1 Bft) O-NO 67 0 min 0,000 mm 0,0 UV-I 0 W/m 5,4 C 5,7 C 3,2 km/h (1 Bft) 100,00 %
24.10.2016 05:18 5,7 C 98 % 1016,6 hPa 0,0 l/m 2,1 km/h (1 Bft) O-NO 67 0 min 0,000 mm 0,0 UV-I 0 W/m 5,4 C 5,7 C 3,2 km/h (1 Bft) 97,87 %
24.10.2016 05:20 5,7 C 98 % 1016,6 hPa 0,0 l/m 1,8 km/h (1 Bft) O-NO 67 0 min 0,000 mm 0,0 UV-I 0 W/m 5,4 C 5,7 C 3,2 km/h (1 Bft) 100,00 %
24.10.2016 05:22 5,7 C 98 % 1016,5 hPa 0,0 l/m 1,8 km/h (1 Bft) O-NO 67 0 min 0,000 mm 0,0 UV-I 0 W/m 5,4 C 5,7 C 3,2 km/h (1 Bft) 97,37 %
24.10.2016 05:24 5,7 C 98 % 1016,5 hPa 0,0 l/m 2,2 km/h (1 Bft) O-NO 67 0 min 0,000 mm 0,0 UV-I 0 W/m 5,4 C 5,7 C 3,2 km/h (1 Bft) 96,43 %
24.10.2016 05:26 5,8 C 98 % 1016,4 hPa 0,0 l/m 2,2 km/h (1 Bft) O-NO 67 0 min 0,000 mm 0,0 UV-I 0 W/m 5,5 C 5,8 C 4,8 km/h (1 Bft) 94,74 %
24.10.2016 05:28 5,7 C 98 % 1016,4 hPa 0,0 l/m 2,7 km/h (1 Bft) O-NO 67 0 min 0,000 mm 0,0 UV-I 0 W/m 5,4 C 5,7 C 4,8 km/h (1 Bft) 98,21 %
24.10.2016 05:30 5,8 C 98 % 1016,4 hPa 0,0 l/m 3,2 km/h (1 Bft) O-NO 67 0 min 0,000 mm 0,0 UV-I 0 W/m 5,5 C 5,8 C 4,8 km/h (1 Bft) 97,37 %
24.10.2016 05:32 5,8 C 98 % 1016,4 hPa 0,0 l/m 3,2 km/h (1 Bft) O-NO 67 0 min 0,000 mm 0,0 UV-I 0 W/m 5,5 C 5,8 C 4,8 km/h (1 Bft) 98,11 %
24.10.2016 05:34 5,8 C 98 % 1016,4 hPa 0,0 l/m 2,4 km/h (1 Bft) O-NO 67 0 min 0,000 mm 0,0 UV-I 0 W/m 5,5 C 5,8 C 4,8 km/h (1 Bft) 93,62 %
24.10.2016 05:36 5,8 C 98 % 1016,5 hPa 0,0 l/m 3,0 km/h (1 Bft) O 93 0 min 0,000 mm 0,0 UV-I 0 W/m 5,5 C 5,8 C 4,8 km/h (1 Bft) 95,74 %
24.10.2016 05:38 5,8 C 98 % 1016,5 hPa 0,0 l/m 1,5 km/h (1 Bft) O-SO 103 0 min 0,000 mm 0,0 UV-I 0 W/m 5,5 C 5,8 C 4,8 km/h (1 Bft) 98,00 %
24.10.2016 05:40 5,8 C 98 % 1016,5 hPa 0,0 l/m 3,9 km/h (1 Bft) O-SO 117 0 min 0,000 mm 0,0 UV-I 0 W/m 5,5 C 5,8 C 4,8 km/h (1 Bft) 97,87 %
24.10.2016 05:42 5,8 C 98 % 1016,6 hPa 0,0 l/m 3,8 km/h (1 Bft) O-SO 117 0 min 0,000 mm 0,0 UV-I 0 W/m 5,5 C 5,8 C 4,8 km/h (1 Bft) 97,87 %
24.10.2016 05:44 5,8 C 98 % 1016,6 hPa 0,0 l/m 3,4 km/h (1 Bft) O-SO 117 0 min 0,000 mm 0,0 UV-I 0 W/m 5,5 C 5,8 C 4,8 km/h (1 Bft) 97,56 %
24.10.2016 05:46 5,8 C 98 % 1016,6 hPa 0,0 l/m 3,0 km/h (1 Bft) O-SO 117 0 min 0,000 mm 0,0 UV-I 0 W/m 5,5 C 5,8 C 4,8 km/h (1 Bft) 98,00 %
24.10.2016 05:48 5,8 C 98 % 1016,7 hPa 0,0 l/m 2,6 km/h (1 Bft) O-SO 117 0 min 0,000 mm 0,0 UV-I 0 W/m 5,5 C 5,8 C 4,8 km/h (1 Bft) 97,22 %
24.10.2016 05:50 5,8 C 98 % 1016,7 hPa 0,0 l/m 1,7 km/h (1 Bft) O-SO 117 0 min 0,000 mm 0,0 UV-I 0 W/m 5,5 C 5,8 C 3,2 km/h (1 Bft) 96,23 %
24.10.2016 05:52 5,8 C 98 % 1016,7 hPa 0,0 l/m 1,4 km/h (1 Bft) O-SO 117 0 min 0,000 mm 0,0 UV-I 0 W/m 5,5 C 5,8 C 4,8 km/h (1 Bft) 96,23 %
24.10.2016 05:54 5,8 C 98 % 1016,8 hPa 0,0 l/m 1,9 km/h (1 Bft) O-SO 117 0 min 0,000 mm 0,0 UV-I 0 W/m 5,5 C 5,8 C 3,2 km/h (1 Bft) 94,74 %
24.10.2016 05:56 5,8 C 98 % 1016,8 hPa 0,0 l/m 0,3 km/h (0 Bft) O-SO 117 0 min 0,000 mm 0,0 UV-I 0 W/m 5,5 C 5,8 C 1,6 km/h (1 Bft) 100,00 %
24.10.2016 05:58 5,8 C 98 % 1016,9 hPa 0,0 l/m 0,2 km/h (0 Bft) O-SO 117 0 min 0,000 mm 0,0 UV-I 0 W/m 5,5 C 5,8 C 1,6 km/h (1 Bft) 100,00 %
24.10.2016 06:00 5,8 C 98 % 1016,9 hPa 0,0 l/m 0,0 km/h (0 Bft) O-SO 117 0 min 0,000 mm 0,0 UV-I 0 W/m 5,5 C 5,8 C 0,0 km/h (0 Bft) 100,00 %
24.10.2016 06:02 5,8 C 98 % 1016,8 hPa 0,0 l/m 1,8 km/h (1 Bft) O-SO 117 0 min 0,000 mm 0,0 UV-I 0 W/m 5,5 C 5,8 C 4,8 km/h (1 Bft) 98,00 %
24.10.2016 06:04 5,8 C 98 % 1016,8 hPa 0,0 l/m 0,2 km/h (0 Bft) O-SO 117 0 min 0,000 mm 0,0 UV-I 0 W/m 5,5 C 5,8 C 1,6 km/h (1 Bft) 100,00 %
24.10.2016 06:06 5,8 C 98 % 1016,9 hPa 0,0 l/m 0,3 km/h (0 Bft) O-SO 117 0 min 0,000 mm 0,0 UV-I 0 W/m 5,5 C 5,8 C 3,2 km/h (1 Bft) 100,00 %
24.10.2016 06:08 5,8 C 98 % 1016,8 hPa 0,0 l/m 3,3 km/h (1 Bft) O-SO 117 0 min 0,000 mm 0,0 UV-I 0 W/m 5,5 C 5,8 C 4,8 km/h (1 Bft) 95,12 %
24.10.2016 06:10 5,8 C 99 % 1016,8 hPa 0,0 l/m 3,1 km/h (1 Bft) O-SO 117 0 min 0,000 mm 0,0 UV-I 0 W/m 5,7 C 5,8 C 4,8 km/h (1 Bft) 100,00 %
24.10.2016 06:12 5,8 C 99 % 1016,8 hPa 0,0 l/m 1,2 km/h (1 Bft) O-SO 117 0 min 0,000 mm 0,0 UV-I 0 W/m 5,7 C 5,8 C 3,2 km/h (1 Bft) 100,00 %
24.10.2016 06:14 5,9 C 99 % 1016,8 hPa 0,0 l/m 2,4 km/h (1 Bft) O-SO 117 0 min 0,000 mm 0,0 UV-I 0 W/m 5,8 C 5,9 C 4,8 km/h (1 Bft) 100,00 %
24.10.2016 06:16 5,9 C 99 % 1016,8 hPa 0,0 l/m 2,6 km/h (1 Bft) O-SO 120 0 min 0,000 mm 0,0 UV-I 0 W/m 5,8 C 5,9 C 4,8 km/h (1 Bft) 100,00 %
24.10.2016 06:18 5,9 C 99 % 1016,8 hPa 0,0 l/m 3,0 km/h (1 Bft) O-SO 120 0 min 0,000 mm 0,0 UV-I 0 W/m 5,8 C 5,9 C 4,8 km/h (1 Bft) 100,00 %
24.10.2016 06:20 5,9 C 99 % 1016,7 hPa 0,0 l/m 5,2 km/h (1 Bft) O 86 0 min 0,000 mm 0,0 UV-I 0 W/m 5,8 C 5,9 C 9,7 km/h (2 Bft) 97,37 %
24.10.2016 06:22 5,9 C 99 % 1016,7 hPa 0,0 l/m 5,7 km/h (1 Bft) O 80 0 min 0,000 mm 0,0 UV-I 0 W/m 5,8 C 5,9 C 9,7 km/h (2 Bft) 100,00 %
24.10.2016 06:24 5,9 C 99 % 1016,8 hPa 0,0 l/m 3,6 km/h (1 Bft) O-NO 69 0 min 0,000 mm 0,0 UV-I 0 W/m 5,8 C 5,9 C 6,4 km/h (2 Bft) 100,00 %
24.10.2016 06:26 5,9 C 99 % 1016,7 hPa 0,0 l/m 3,0 km/h (1 Bft) O 81 0 min 0,000 mm 0,0 UV-I 0 W/m 5,8 C 5,9 C 4,8 km/h (1 Bft) 100,00 %
24.10.2016 06:28 5,9 C 99 % 1016,7 hPa 0,0 l/m 3,9 km/h (1 Bft) O-SO 112 0 min 0,000 mm 0,0 UV-I 0 W/m 5,8 C 5,9 C 6,4 km/h (2 Bft) 97,87 %
24.10.2016 06:30 5,9 C 99 % 1016,8 hPa 0,0 l/m 1,6 km/h (1 Bft) O 98 0 min 0,000 mm 0,0 UV-I 0 W/m 5,8 C 5,9 C 4,8 km/h (1 Bft) 100,00 %
24.10.2016 06:32 5,9 C 99 % 1016,8 hPa 0,0 l/m 2,0 km/h (1 Bft) O-SO 102 0 min 0,000 mm 0,0 UV-I 0 W/m 5,8 C 5,9 C 4,8 km/h (1 Bft) 100,00 %
24.10.2016 06:34 5,9 C 99 % 1016,9 hPa 0,0 l/m 1,6 km/h (1 Bft) O-SO 102 0 min 0,000 mm 0,0 UV-I 0 W/m 5,8 C 5,9 C 3,2 km/h (1 Bft) 100,00 %
24.10.2016 06:36 5,9 C 99 % 1016,9 hPa 0,0 l/m 2,6 km/h (1 Bft) O-SO 123 0 min 0,000 mm 0,0 UV-I 0 W/m 5,8 C 5,9 C 6,4 km/h (2 Bft) 100,00 %
24.10.2016 06:38 5,9 C 99 % 1016,9 hPa 0,0 l/m 4,1 km/h (1 Bft) SO 138 0 min 0,000 mm 0,0 UV-I 0 W/m 5,8 C 5,9 C 8,0 km/h (2 Bft) 100,00 %
24.10.2016 06:40 5,9 C 99 % 1017,0 hPa 0,0 l/m 3,1 km/h (1 Bft) O 91 0 min 0,000 mm 0,0 UV-I 0 W/m 5,8 C 5,9 C 11,3 km/h (2 Bft) 100,00 %
24.10.2016 06:42 5,9 C 99 % 1017,0 hPa 0,0 l/m 5,9 km/h (2 Bft) O-SO 119 0 min 0,000 mm 0,0 UV-I 0 W/m 5,8 C 5,9 C 11,3 km/h (2 Bft) 97,87 %
24.10.2016 06:44 5,9 C 99 % 1017,0 hPa 0,0 l/m 4,8 km/h (1 Bft) O-NO 65 0 min 0,000 mm 0,0 UV-I 0 W/m 5,8 C 5,9 C 9,7 km/h (2 Bft) 97,14 %
24.10.2016 06:46 5,9 C 99 % 1017,0 hPa 0,0 l/m 4,0 km/h (1 Bft) O-NO 63 0 min 0,000 mm 0,0 UV-I 0 W/m 5,8 C 5,9 C 6,4 km/h (2 Bft) 100,00 %
24.10.2016 06:48 5,9 C 99 % 1017,0 hPa 0,0 l/m 3,6 km/h (1 Bft) O 97 0 min 0,000 mm 0,0 UV-I 0 W/m 5,8 C 5,9 C 4,8 km/h (1 Bft) 100,00 %
24.10.2016 06:50 5,9 C 99 % 1016,9 hPa 0,0 l/m 6,7 km/h (2 Bft) O-NO 59 0 min 0,000 mm 0,0 UV-I 0 W/m 5,8 C 5,7 C 11,3 km/h (2 Bft) 100,00 %
24.10.2016 06:52 6,0 C 99 % 1016,9 hPa 0,0 l/m 8,5 km/h (2 Bft) O-NO 58 0 min 0,000 mm 0,0 UV-I 0 W/m 5,9 C 4,3 C 12,9 km/h (3 Bft) 100,00 %
24.10.2016 06:54 5,9 C 99 % 1016,9 hPa 0,0 l/m 6,4 km/h (2 Bft) O 92 0 min 0,000 mm 0,0 UV-I 0 W/m 5,8 C 5,9 C 9,7 km/h (2 Bft) 97,56 %
24.10.2016 06:56 5,9 C 99 % 1016,9 hPa 0,0 l/m 8,0 km/h (2 Bft) O-NO 72 0 min 0,000 mm 0,0 UV-I 0 W/m 5,8 C 4,5 C 11,3 km/h (2 Bft) 100,00 %
24.10.2016 06:58 5,9 C 99 % 1016,9 hPa 0,0 l/m 7,9 km/h (2 Bft) O 80 0 min 0,000 mm 0,0 UV-I 0 W/m 5,8 C 4,6 C 12,9 km/h (3 Bft) 100,00 %
24.10.2016 07:00 5,9 C 99 % 1016,9 hPa 0,0 l/m 8,7 km/h (2 Bft) O-NO 78 0 min 0,000 mm 0,0 UV-I 0 W/m 5,8 C 4,0 C 14,5 km/h (3 Bft) 97,62 %
24.10.2016 07:02 6,0 C 99 % 1016,9 hPa 0,0 l/m 5,2 km/h (1 Bft) O-NO 64 0 min 0,000 mm 0,0 UV-I 0 W/m 5,9 C 6,0 C 8,0 km/h (2 Bft) 100,00 %
24.10.2016 07:04 6,0 C 99 % 1016,9 hPa 0,0 l/m 5,7 km/h (1 Bft) O-NO 63 0 min 0,000 mm 0,0 UV-I 0 W/m 5,9 C 6,0 C 8,0 km/h (2 Bft) 100,00 %
24.10.2016 07:06 6,0 C 99 % 1017,0 hPa 0,0 l/m 6,9 km/h (2 Bft) O-NO 69 0 min 0,000 mm 0,0 UV-I 0 W/m 5,9 C 5,6 C 9,7 km/h (2 Bft) 100,00 %
24.10.2016 07:08 6,0 C 99 % 1017,0 hPa 0,0 l/m 6,8 km/h (2 Bft) O-NO 66 0 min 0,000 mm 0,0 UV-I 0 W/m 5,9 C 5,7 C 9,7 km/h (2 Bft) 100,00 %
24.10.2016 07:10 6,0 C 99 % 1016,9 hPa 0,0 l/m 6,0 km/h (2 Bft) O-NO 67 0 min 0,000 mm 0,0 UV-I 0 W/m 5,9 C 6,0 C 8,0 km/h (2 Bft) 97,44 %
24.10.2016 07:12 6,0 C 98 % 1017,0 hPa 0,0 l/m 6,6 km/h (2 Bft) O-NO 71 0 min 0,000 mm 0,0 UV-I 0 W/m 5,7 C 5,9 C 8,0 km/h (2 Bft) 100,00 %
24.10.2016 07:14 6,1 C 98 % 1017,0 hPa 0,0 l/m 4,8 km/h (1 Bft) O-NO 61 0 min 0,000 mm 0,0 UV-I 0 W/m 5,8 C 6,1 C 8,0 km/h (2 Bft) 100,00 %
24.10.2016 07:16 6,1 C 98 % 1017,1 hPa 0,0 l/m 7,8 km/h (2 Bft) O-NO 69 0 min 0,000 mm 0,0 UV-I 0 W/m 5,8 C 4,9 C 12,9 km/h (3 Bft) 100,00 %
24.10.2016 07:18 6,1 C 98 % 1017,1 hPa 0,0 l/m 8,2 km/h (2 Bft) O-NO 69 0 min 0,000 mm 0,0 UV-I 0 W/m 5,8 C 4,6 C 12,9 km/h (3 Bft) 100,00 %
24.10.2016 07:20 6,0 C 99 % 1017,1 hPa 0,0 l/m 8,0 km/h (2 Bft) O-NO 59 0 min 0,000 mm 0,0 UV-I 0 W/m 5,9 C 4,7 C 12,9 km/h (3 Bft) 97,56 %
24.10.2016 07:22 6,0 C 99 % 1017,2 hPa 0,0 l/m 6,4 km/h (2 Bft) O 81 0 min 0,000 mm 0,0 UV-I 0 W/m 5,9 C 6,0 C 9,7 km/h (2 Bft) 98,11 %
24.10.2016 07:24 6,0 C 99 % 1017,2 hPa 0,0 l/m 8,0 km/h (2 Bft) O 82 0 min 0,000 mm 0,0 UV-I 0 W/m 5,9 C 4,7 C 11,3 km/h (2 Bft) 95,12 %
24.10.2016 07:26 6,0 C 99 % 1017,2 hPa 0,0 l/m 6,3 km/h (2 Bft) O 89 0 min 0,000 mm 0,0 UV-I 0 W/m 5,9 C 6,0 C 9,7 km/h (2 Bft) 98,11 %
24.10.2016 07:28 6,0 C 99 % 1017,1 hPa 0,0 l/m 5,2 km/h (1 Bft) O-SO 112 0 min 0,000 mm 0,0 UV-I 0 W/m 5,9 C 6,0 C 6,4 km/h (2 Bft) 95,74 %
24.10.2016 07:30 6,0 C 99 % 1017,1 hPa 0,0 l/m 7,4 km/h (2 Bft) O-NO 67 0 min 0,000 mm 0,0 UV-I 0 W/m 5,9 C 5,1 C 11,3 km/h (2 Bft) 97,92 %
24.10.2016 07:32 6,0 C 99 % 1017,1 hPa 0,0 l/m 8,3 km/h (2 Bft) O 82 0 min 0,000 mm 0,0 UV-I 0 W/m 5,9 C 4,4 C 11,3 km/h (2 Bft) 98,00 %
24.10.2016 07:34 6,0 C 99 % 1017,2 hPa 0,0 l/m 7,4 km/h (2 Bft) O-NO 65 0 min 0,000 mm 0,0 UV-I 0 W/m 5,9 C 5,1 C 12,9 km/h (3 Bft) 95,83 %
24.10.2016 07:36 6,0 C 99 % 1017,1 hPa 0,0 l/m 7,9 km/h (2 Bft) NO 55 0 min 0,000 mm 0,0 UV-I 0 W/m 5,9 C 4,7 C 11,3 km/h (2 Bft) 97,14 %
24.10.2016 07:38 6,0 C 99 % 1017,0 hPa 0,0 l/m 6,8 km/h (2 Bft) O-NO 70 0 min 0,000 mm 0,0 UV-I 1 W/m 5,9 C 5,7 C 9,7 km/h (2 Bft) 97,37 %
24.10.2016 07:40 6,0 C 99 % 1017,0 hPa 0,0 l/m 6,9 km/h (2 Bft) O-SO 103 0 min 0,000 mm 0,0 UV-I 5 W/m 5,9 C 5,6 C 12,9 km/h (3 Bft) 98,11 %
24.10.2016 07:42 6,0 C 99 % 1017,0 hPa 0,0 l/m 6,5 km/h (2 Bft) O 81 0 min 0,000 mm 0,0 UV-I 5 W/m 5,9 C 5,9 C 11,3 km/h (2 Bft) 97,87 %
24.10.2016 07:44 6,0 C 99 % 1017,0 hPa 0,0 l/m 4,8 km/h (1 Bft) O 101 0 min 0,000 mm 0,0 UV-I 5 W/m 5,9 C 6,0 C 8,0 km/h (2 Bft) 97,22 %
24.10.2016 07:46 5,9 C 99 % 1017,1 hPa 0,0 l/m 5,8 km/h (2 Bft) O-NO 74 0 min 0,000 mm 0,0 UV-I 5 W/m 5,8 C 5,9 C 11,3 km/h (2 Bft) 98,00 %
24.10.2016 07:48 5,9 C 99 % 1017,1 hPa 0,0 l/m 8,0 km/h (2 Bft) O-NO 69 0 min 0,000 mm 0,0 UV-I 6 W/m 5,8 C 4,5 C 12,9 km/h (3 Bft) 98,08 %
24.10.2016 07:50 5,9 C 99 % 1017,1 hPa 0,0 l/m 7,4 km/h (2 Bft) O-NO 67 0 min 0,000 mm 0,0 UV-I 7 W/m 5,8 C 5,0 C 12,9 km/h (3 Bft) 94,23 %
24.10.2016 07:52 6,0 C 99 % 1017,1 hPa 0,0 l/m 6,5 km/h (2 Bft) NO 56 0 min 0,000 mm 0,0 UV-I 7 W/m 5,9 C 5,9 C 8,0 km/h (2 Bft) 97,62 %
24.10.2016 07:54 6,0 C 99 % 1017,1 hPa 0,0 l/m 5,3 km/h (1 Bft) O-NO 62 0 min 0,000 mm 0,0 UV-I 7 W/m 5,9 C 6,0 C 8,0 km/h (2 Bft) 100,00 %
24.10.2016 07:56 6,0 C 99 % 1017,1 hPa 0,0 l/m 7,9 km/h (2 Bft) O-NO 76 0 min 0,000 mm 0,0 UV-I 9 W/m 5,9 C 4,7 C 9,7 km/h (2 Bft) 94,00 %
24.10.2016 07:58 6,0 C 99 % 1017,0 hPa 0,0 l/m 6,6 km/h (2 Bft) O-NO 67 0 min 0,000 mm 0,0 UV-I 9 W/m 5,9 C 5,9 C 9,7 km/h (2 Bft) 97,87 %
24.10.2016 08:00 6,0 C 99 % 1017,1 hPa 0,0 l/m 5,9 km/h (2 Bft) NO 56 0 min 0,000 mm 0,0 UV-I 9 W/m 5,9 C 6,0 C 8,0 km/h (2 Bft) 100,00 %
24.10.2016 08:02 6,0 C 99 % 1017,1 hPa 0,0 l/m 5,4 km/h (1 Bft) NO 44 0 min 0,000 mm 0,0 UV-I 9 W/m 5,9 C 6,0 C 8,0 km/h (2 Bft) 100,00 %
24.10.2016 08:04 6,0 C 99 % 1017,2 hPa 0,0 l/m 6,1 km/h (2 Bft) NO 55 0 min 0,000 mm 0,0 UV-I 10 W/m 5,9 C 6,0 C 8,0 km/h (2 Bft) 100,00 %
24.10.2016 08:06 6,0 C 99 % 1017,2 hPa 0,0 l/m 7,2 km/h (2 Bft) O-NO 67 0 min 0,000 mm 0,0 UV-I 11 W/m 5,9 C 5,3 C 12,9 km/h (3 Bft) 100,00 %
24.10.2016 08:08 6,0 C 99 % 1017,2 hPa 0,0 l/m 6,6 km/h (2 Bft) NO 51 0 min 0,000 mm 0,0 UV-I 11 W/m 5,9 C 5,9 C 9,7 km/h (2 Bft) 100,00 %
24.10.2016 08:10 6,0 C 99 % 1017,2 hPa 0,0 l/m 7,7 km/h (2 Bft) O-NO 62 0 min 0,000 mm 0,0 UV-I 12 W/m 5,9 C 4,9 C 12,9 km/h (3 Bft) 100,00 %
24.10.2016 08:12 6,0 C 99 % 1017,2 hPa 0,0 l/m 7,6 km/h (2 Bft) NO 55 0 min 0,000 mm 0,0 UV-I 14 W/m 5,9 C 5,0 C 12,9 km/h (3 Bft) 100,00 %
24.10.2016 08:14 6,0 C 99 % 1017,2 hPa 0,0 l/m 5,3 km/h (1 Bft) O-NO 69 0 min 0,000 mm 0,0 UV-I 14 W/m 5,9 C 6,0 C 8,0 km/h (2 Bft) 100,00 %
24.10.2016 08:16 6,0 C 99 % 1017,2 hPa 0,0 l/m 5,9 km/h (2 Bft) NO 49 0 min 0,000 mm 0,0 UV-I 14 W/m 5,9 C 6,0 C 11,3 km/h (2 Bft) 97,87 %
24.10.2016 08:18 6,1 C 99 % 1017,2 hPa 0,0 l/m 7,4 km/h (2 Bft) O-NO 69 0 min 0,000 mm 0,0 UV-I 14 W/m 6,0 C 5,3 C 9,7 km/h (2 Bft) 100,00 %
24.10.2016 08:20 6,1 C 99 % 1017,3 hPa 0,0 l/m 9,1 km/h (2 Bft) O-NO 73 0 min 0,000 mm 0,0 UV-I 15 W/m 6,0 C 3,9 C 12,9 km/h (3 Bft) 100,00 %
24.10.2016 08:22 6,1 C 99 % 1017,3 hPa 0,0 l/m 9,0 km/h (2 Bft) O-NO 65 0 min 0,000 mm 0,0 UV-I 16 W/m 6,0 C 4,0 C 14,5 km/h (3 Bft) 100,00 %
24.10.2016 08:24 6,1 C 99 % 1017,3 hPa 0,0 l/m 6,5 km/h (2 Bft) O-NO 59 0 min 0,000 mm 0,0 UV-I 17 W/m 6,0 C 6,0 C 9,7 km/h (2 Bft) 100,00 %
24.10.2016 08:26 6,1 C 99 % 1017,3 hPa 0,0 l/m 6,2 km/h (2 Bft) O 96 0 min 0,000 mm 0,0 UV-I 20 W/m 6,0 C 6,1 C 9,7 km/h (2 Bft) 100,00 %
24.10.2016 08:28 6,1 C 99 % 1017,4 hPa 0,0 l/m 9,5 km/h (2 Bft) O-NO 77 0 min 0,000 mm 0,0 UV-I 21 W/m 6,0 C 3,6 C 14,5 km/h (3 Bft) 100,00 %
24.10.2016 08:30 6,0 C 99 % 1017,4 hPa 0,0 l/m 7,3 km/h (2 Bft) O-NO 74 0 min 0,000 mm 0,0 UV-I 21 W/m 5,9 C 5,2 C 12,9 km/h (3 Bft) 100,00 %
24.10.2016 08:32 6,0 C 99 % 1017,4 hPa 0,0 l/m 6,8 km/h (2 Bft) O-NO 63 0 min 0,000 mm 0,0 UV-I 23 W/m 5,9 C 5,7 C 11,3 km/h (2 Bft) 97,56 %
24.10.2016 08:34 6,0 C 99 % 1017,4 hPa 0,0 l/m 8,3 km/h (2 Bft) O-NO 74 0 min 0,000 mm 0,0 UV-I 24 W/m 5,9 C 4,4 C 12,9 km/h (3 Bft) 100,00 %
24.10.2016 08:36 6,0 C 99 % 1017,3 hPa 0,0 l/m 8,6 km/h (2 Bft) O-NO 78 0 min 0,000 mm 0,0 UV-I 25 W/m 5,9 C 4,2 C 12,9 km/h (3 Bft) 100,00 %
24.10.2016 08:38 6,0 C 99 % 1017,3 hPa 0,0 l/m 10,2 km/h (2 Bft) O-NO 76 0 min 0,000 mm 0,0 UV-I 27 W/m 5,9 C 3,0 C 16,1 km/h (3 Bft) 100,00 %
24.10.2016 08:40 6,0 C 99 % 1017,3 hPa 0,0 l/m 8,5 km/h (2 Bft) O 100 0 min 0,000 mm 0,0 UV-I 28 W/m 5,9 C 4,3 C 12,9 km/h (3 Bft) 100,00 %
24.10.2016 08:42 5,9 C 99 % 1017,3 hPa 0,0 l/m 7,0 km/h (2 Bft) O-NO 76 0 min 0,000 mm 0,0 UV-I 30 W/m 5,8 C 5,4 C 11,3 km/h (2 Bft) 100,00 %
24.10.2016 08:44 6,0 C 99 % 1017,4 hPa 0,0 l/m 7,0 km/h (2 Bft) O 79 0 min 0,000 mm 0,0 UV-I 33 W/m 5,9 C 5,5 C 11,3 km/h (2 Bft) 100,00 %
24.10.2016 08:46 6,0 C 99 % 1017,5 hPa 0,0 l/m 5,4 km/h (1 Bft) O-NO 69 0 min 0,000 mm 0,0 UV-I 33 W/m 5,9 C 6,0 C 8,0 km/h (2 Bft) 100,00 %
24.10.2016 08:48 6,0 C 99 % 1017,5 hPa 0,0 l/m 6,7 km/h (2 Bft) O-NO 65 0 min 0,000 mm 0,0 UV-I 35 W/m 5,9 C 5,8 C 8,0 km/h (2 Bft) 100,00 %
24.10.2016 08:50 6,1 C 99 % 1017,5 hPa 0,0 l/m 4,0 km/h (1 Bft) O 85 0 min 0,000 mm 0,0 UV-I 38 W/m 6,0 C 6,1 C 6,4 km/h (2 Bft) 100,00 %
24.10.2016 08:52 6,1 C 99 % 1017,5 hPa 0,0 l/m 6,0 km/h (2 Bft) O-NO 69 0 min 0,000 mm 0,0 UV-I 40 W/m 6,0 C 6,1 C 8,0 km/h (2 Bft) 100,00 %
24.10.2016 08:54 6,1 C 99 % 1017,4 hPa 0,0 l/m 8,1 km/h (2 Bft) O-NO 78 0 min 0,000 mm 0,0 UV-I 37 W/m 6,0 C 4,7 C 12,9 km/h (3 Bft) 100,00 %
24.10.2016 08:56 6,0 C 99 % 1017,4 hPa 0,0 l/m 8,3 km/h (2 Bft) O 82 0 min 0,000 mm 0,0 UV-I 39 W/m 5,9 C 4,4 C 11,3 km/h (2 Bft) 100,00 %
24.10.2016 08:58 6,0 C 99 % 1017,4 hPa 0,0 l/m 6,2 km/h (2 Bft) O-NO 67 0 min 0,000 mm 0,0 UV-I 41 W/m 5,9 C 6,0 C 11,3 km/h (2 Bft) 100,00 %
24.10.2016 09:00 6,1 C 99 % 1017,4 hPa 0,0 l/m 6,9 km/h (2 Bft) O 89 0 min 0,000 mm 0,0 UV-I 42 W/m 6,0 C 5,7 C 11,3 km/h (2 Bft) 100,00 %
24.10.2016 09:02 6,1 C 99 % 1017,4 hPa 0,0 l/m 4,9 km/h (1 Bft) O-NO 71 0 min 0,000 mm 0,0 UV-I 45 W/m 6,0 C 6,1 C 9,7 km/h (2 Bft) 100,00 %
24.10.2016 09:04 6,1 C 99 % 1017,4 hPa 0,0 l/m 5,4 km/h (1 Bft) O-NO 76 0 min 0,000 mm 0,0 UV-I 47 W/m 6,0 C 6,1 C 8,0 km/h (2 Bft) 100,00 %
24.10.2016 09:06 6,1 C 99 % 1017,4 hPa 0,0 l/m 5,3 km/h (1 Bft) O-NO 77 0 min 0,000 mm 0,0 UV-I 50 W/m 6,0 C 6,1 C 9,7 km/h (2 Bft) 100,00 %
24.10.2016 09:08 6,1 C 99 % 1017,5 hPa 0,0 l/m 6,3 km/h (2 Bft) O 85 0 min 0,000 mm 0,0 UV-I 56 W/m 6,0 C 6,1 C 8,0 km/h (2 Bft) 100,00 %
24.10.2016 09:10 6,2 C 99 % 1017,4 hPa 0,0 l/m 4,6 km/h (1 Bft) O 80 0 min 0,000 mm 0,0 UV-I 52 W/m 6,1 C 6,2 C 8,0 km/h (2 Bft) 97,87 %
24.10.2016 09:12 6,2 C 99 % 1017,4 hPa 0,0 l/m 4,5 km/h (1 Bft) O-NO 77 0 min 0,000 mm 0,0 UV-I 47 W/m 6,1 C 6,2 C 6,4 km/h (2 Bft) 100,00 %
24.10.2016 09:14 6,2 C 99 % 1017,4 hPa 0,0 l/m 4,3 km/h (1 Bft) O-NO 66 0 min 0,000 mm 0,0 UV-I 47 W/m 6,1 C 6,2 C 6,4 km/h (2 Bft) 100,00 %
24.10.2016 09:16 6,3 C 99 % 1017,4 hPa 0,0 l/m 6,5 km/h (2 Bft) O-NO 68 0 min 0,000 mm 0,0 UV-I 47 W/m 6,2 C 6,2 C 11,3 km/h (2 Bft) 97,37 %
24.10.2016 09:18 6,2 C 99 % 1017,4 hPa 0,0 l/m 5,6 km/h (1 Bft) O-NO 68 0 min 0,000 mm 0,0 UV-I 47 W/m 6,1 C 6,2 C 8,0 km/h (2 Bft) 100,00 %
24.10.2016 09:20 6,2 C 99 % 1017,4 hPa 0,0 l/m 5,8 km/h (2 Bft) O 82 0 min 0,000 mm 0,0 UV-I 47 W/m 6,1 C 6,2 C 8,0 km/h (2 Bft) 100,00 %
24.10.2016 09:22 6,2 C 99 % 1017,5 hPa 0,0 l/m 4,9 km/h (1 Bft) O-NO 67 0 min 0,000 mm 0,0 UV-I 47 W/m 6,1 C 6,2 C 6,4 km/h (2 Bft) 100,00 %
24.10.2016 09:24 6,2 C 99 % 1017,5 hPa 0,0 l/m 4,7 km/h (1 Bft) O-NO 74 0 min 0,000 mm 0,0 UV-I 48 W/m 6,1 C 6,2 C 6,4 km/h (2 Bft) 100,00 %
24.10.2016 09:26 6,2 C 99 % 1017,5 hPa 0,0 l/m 4,4 km/h (1 Bft) O-NO 76 0 min 0,000 mm 0,0 UV-I 49 W/m 6,1 C 6,2 C 6,4 km/h (2 Bft) 97,56 %
24.10.2016 09:28 6,2 C 99 % 1017,5 hPa 0,0 l/m 6,0 km/h (2 Bft) O-NO 57 0 min 0,000 mm 0,0 UV-I 49 W/m 6,1 C 6,2 C 9,7 km/h (2 Bft) 97,87 %
24.10.2016 09:30 6,3 C 99 % 1017,5 hPa 0,0 l/m 7,0 km/h (2 Bft) NO 51 0 min 0,000 mm 0,0 UV-I 52 W/m 6,2 C 5,8 C 9,7 km/h (2 Bft) 98,00 %
24.10.2016 09:32 6,3 C 99 % 1017,5 hPa 0,0 l/m 5,9 km/h (2 Bft) NO 47 0 min 0,000 mm 0,0 UV-I 53 W/m 6,2 C 6,3 C 9,7 km/h (2 Bft) 97,56 %
24.10.2016 09:34 6,2 C 99 % 1017,5 hPa 0,0 l/m 6,9 km/h (2 Bft) O-NO 61 0 min 0,000 mm 0,0 UV-I 54 W/m 6,1 C 5,8 C 12,9 km/h (3 Bft) 96,43 %
24.10.2016 09:36 6,2 C 99 % 1017,5 hPa 0,0 l/m 8,2 km/h (2 Bft) O-NO 57 0 min 0,000 mm 0,0 UV-I 61 W/m 6,1 C 4,7 C 11,3 km/h (2 Bft) 95,45 %
24.10.2016 09:38 6,2 C 99 % 1017,5 hPa 0,0 l/m 7,1 km/h (2 Bft) NO 39 0 min 0,000 mm 0,0 UV-I 66 W/m 6,1 C 5,6 C 11,3 km/h (2 Bft) 95,45 %
24.10.2016 09:40 6,2 C 99 % 1017,5 hPa 0,0 l/m 8,2 km/h (2 Bft) O-NO 61 0 min 0,000 mm 0,0 UV-I 76 W/m 6,1 C 4,7 C 12,9 km/h (3 Bft) 97,87 %
24.10.2016 09:42 6,1 C 99 % 1017,6 hPa 0,0 l/m 11,2 km/h (2 Bft) O-NO 69 0 min 0,000 mm 0,0 UV-I 83 W/m 6,0 C 2,5 C 16,1 km/h (3 Bft) 98,00 %
24.10.2016 09:44 6,1 C 99 % 1017,5 hPa 0,0 l/m 9,4 km/h (2 Bft) O-NO 61 0 min 0,000 mm 0,0 UV-I 86 W/m 6,0 C 3,7 C 12,9 km/h (3 Bft) 98,00 %
24.10.2016 09:46 6,1 C 99 % 1017,5 hPa 0,0 l/m 8,9 km/h (2 Bft) O 88 0 min 0,000 mm 0,0 UV-I 84 W/m 6,0 C 4,1 C 12,9 km/h (3 Bft) 95,24 %
24.10.2016 09:48 6,1 C 99 % 1017,5 hPa 0,0 l/m 6,8 km/h (2 Bft) NO 55 0 min 0,000 mm 0,0 UV-I 86 W/m 6,0 C 5,8 C 11,3 km/h (2 Bft) 98,08 %
24.10.2016 09:50 6,1 C 99 % 1017,5 hPa 0,0 l/m 6,3 km/h (2 Bft) O-NO 61 0 min 0,000 mm 0,0 UV-I 77 W/m 6,0 C 6,1 C 9,7 km/h (2 Bft) 97,44 %
24.10.2016 09:52 6,2 C 99 % 1017,6 hPa 0,0 l/m 9,1 km/h (2 Bft) O-NO 60 0 min 0,000 mm 0,0 UV-I 70 W/m 6,1 C 4,0 C 14,5 km/h (3 Bft) 96,23 %
24.10.2016 09:54 6,1 C 99 % 1017,5 hPa 0,0 l/m 7,1 km/h (2 Bft) NO 39 0 min 0,000 mm 0,0 UV-I 62 W/m 6,0 C 5,5 C 11,3 km/h (2 Bft) 93,62 %
24.10.2016 09:56 6,2 C 99 % 1017,5 hPa 0,0 l/m 5,2 km/h (1 Bft) O-NO 62 0 min 0,000 mm 0,0 UV-I 55 W/m 6,1 C 6,2 C 6,4 km/h (2 Bft) 97,87 %
24.10.2016 09:58 6,2 C 99 % 1017,5 hPa 0,0 l/m 7,9 km/h (2 Bft) NO 53 0 min 0,000 mm 0,0 UV-I 59 W/m 6,1 C 4,9 C 11,3 km/h (2 Bft) 94,74 %
24.10.2016 10:00 6,2 C 99 % 1017,5 hPa 0,0 l/m 7,1 km/h (2 Bft) O-NO 66 0 min 0,025 mm 0,0 UV-I 55 W/m 6,1 C 5,6 C 11,3 km/h (2 Bft) 98,11 %
24.10.2016 10:02 6,2 C 99 % 1017,6 hPa 0,0 l/m 5,5 km/h (1 Bft) NO 55 0 min 0,000 mm 0,0 UV-I 54 W/m 6,1 C 6,2 C 8,0 km/h (2 Bft) 100,00 %
24.10.2016 10:04 6,2 C 99 % 1017,6 hPa 0,0 l/m 6,1 km/h (2 Bft) NO 51 0 min 0,000 mm 0,0 UV-I 55 W/m 6,1 C 6,2 C 8,0 km/h (2 Bft) 100,00 %
24.10.2016 10:06 6,2 C 99 % 1017,5 hPa 0,0 l/m 5,5 km/h (1 Bft) NO 44 0 min 0,000 mm 0,0 UV-I 55 W/m 6,1 C 6,2 C 8,0 km/h (2 Bft) 100,00 %
24.10.2016 10:08 6,3 C 99 % 1017,5 hPa 0,0 l/m 7,1 km/h (2 Bft) NO 40 0 min 0,000 mm 0,0 UV-I 59 W/m 6,2 C 5,7 C 8,0 km/h (2 Bft) 100,00 %
24.10.2016 10:10 6,3 C 99 % 1017,5 hPa 0,0 l/m 4,8 km/h (1 Bft) O-NO 64 0 min 0,000 mm 0,0 UV-I 63 W/m 6,2 C 6,3 C 8,0 km/h (2 Bft) 98,00 %
24.10.2016 10:12 6,3 C 99 % 1017,6 hPa 0,0 l/m 4,9 km/h (1 Bft) O-NO 59 0 min 0,000 mm 0,0 UV-I 63 W/m 6,2 C 6,3 C 8,0 km/h (2 Bft) 100,00 %
24.10.2016 10:14 6,3 C 99 % 1017,6 hPa 0,0 l/m 6,9 km/h (2 Bft) NO 48 0 min 0,000 mm 0,0 UV-I 65 W/m 6,2 C 5,9 C 9,7 km/h (2 Bft) 100,00 %
24.10.2016 10:16 6,3 C 99 % 1017,6 hPa 0,0 l/m 5,1 km/h (1 Bft) O-NO 65 0 min 0,000 mm 0,0 UV-I 62 W/m 6,2 C 6,3 C 8,0 km/h (2 Bft) 100,00 %
24.10.2016 10:18 6,2 C 99 % 1017,6 hPa 0,0 l/m 4,9 km/h (1 Bft) O-NO 69 0 min 0,000 mm 0,0 UV-I 57 W/m 6,1 C 6,2 C 6,4 km/h (2 Bft) 94,34 %
24.10.2016 10:20 6,2 C 99 % 1017,6 hPa 0,0 l/m 5,6 km/h (1 Bft) O 84 0 min 0,000 mm 0,0 UV-I 52 W/m 6,1 C 6,2 C 8,0 km/h (2 Bft) 100,00 %
24.10.2016 10:22 6,3 C 99 % 1017,6 hPa 0,0 l/m 5,4 km/h (1 Bft) O-NO 61 0 min 0,000 mm 0,0 UV-I 46 W/m 6,2 C 6,3 C 8,0 km/h (2 Bft) 100,00 %
24.10.2016 10:24 6,3 C 99 % 1017,5 hPa 0,0 l/m 6,2 km/h (2 Bft) NO 50 0 min 0,000 mm 0,0 UV-I 45 W/m 6,2 C 6,3 C 11,3 km/h (2 Bft) 98,21 %
24.10.2016 10:26 6,3 C 99 % 1017,6 hPa 0,0 l/m 8,7 km/h (2 Bft) O-NO 77 0 min 0,000 mm 0,0 UV-I 48 W/m 6,2 C 4,4 C 12,9 km/h (3 Bft) 100,00 %
24.10.2016 10:28 6,3 C 99 % 1017,6 hPa 0,0 l/m 8,7 km/h (2 Bft) O 88 0 min 0,000 mm 0,0 UV-I 45 W/m 6,2 C 4,4 C 12,9 km/h (3 Bft) 100,00 %
24.10.2016 10:30 6,3 C 99 % 1017,6 hPa 0,0 l/m 5,9 km/h (2 Bft) O-NO 78 0 min 0,000 mm 0,0 UV-I 47 W/m 6,2 C 6,3 C 9,7 km/h (2 Bft) 97,44 %
24.10.2016 10:32 6,3 C 99 % 1017,6 hPa 0,0 l/m 5,5 km/h (1 Bft) O-NO 62 0 min 0,000 mm 0,0 UV-I 62 W/m 6,2 C 6,3 C 8,0 km/h (2 Bft) 100,00 %
24.10.2016 10:34 6,3 C 99 % 1017,7 hPa 0,0 l/m 5,7 km/h (1 Bft) O-SO 119 0 min 0,000 mm 0,0 UV-I 87 W/m 6,2 C 6,3 C 9,7 km/h (2 Bft) 97,73 %
24.10.2016 10:36 6,3 C 99 % 1017,6 hPa 0,0 l/m 5,2 km/h (1 Bft) O-NO 69 0 min 0,000 mm 0,0 UV-I 105 W/m 6,2 C 6,3 C 8,0 km/h (2 Bft) 98,21 %
24.10.2016 10:38 6,4 C 99 % 1017,6 hPa 0,0 l/m 8,5 km/h (2 Bft) NO 49 0 min 0,000 mm 0,0 UV-I 115 W/m 6,3 C 4,7 C 12,9 km/h (3 Bft) 100,00 %
24.10.2016 10:40 6,4 C 99 % 1017,6 hPa 0,0 l/m 8,2 km/h (2 Bft) O-NO 59 0 min 0,000 mm 0,2 UV-I 151 W/m 6,3 C 4,9 C 9,7 km/h (2 Bft) 100,00 %
24.10.2016 10:42 6,4 C 99 % 1017,7 hPa 0,0 l/m 6,6 km/h (2 Bft) O-NO 74 0 min 0,000 mm 0,5 UV-I 169 W/m 6,3 C 6,3 C 9,7 km/h (2 Bft) 100,00 %
24.10.2016 10:44 6,4 C 99 % 1017,7 hPa 0,0 l/m 6,9 km/h (2 Bft) O-NO 65 0 min 0,000 mm 0,3 UV-I 161 W/m 6,3 C 6,0 C 12,9 km/h (3 Bft) 100,00 %
24.10.2016 10:46 6,4 C 99 % 1017,7 hPa 0,0 l/m 10,5 km/h (2 Bft) O-NO 62 0 min 0,000 mm 0,0 UV-I 150 W/m 6,3 C 3,3 C 16,1 km/h (3 Bft) 96,23 %
24.10.2016 10:48 6,4 C 99 % 1017,7 hPa 0,0 l/m 10,3 km/h (2 Bft) O-NO 66 0 min 0,000 mm 0,0 UV-I 141 W/m 6,3 C 3,4 C 14,5 km/h (3 Bft) 100,00 %
24.10.2016 10:50 6,4 C 99 % 1017,8 hPa 0,0 l/m 8,3 km/h (2 Bft) O-NO 69 0 min 0,000 mm 0,0 UV-I 125 W/m 6,3 C 4,8 C 14,5 km/h (3 Bft) 100,00 %
24.10.2016 10:52 6,4 C 99 % 1017,7 hPa 0,0 l/m 9,3 km/h (2 Bft) O 90 0 min 0,000 mm 0,0 UV-I 113 W/m 6,3 C 4,1 C 12,9 km/h (3 Bft) 97,87 %
24.10.2016 10:54 6,5 C 99 % 1017,6 hPa 0,0 l/m 9,6 km/h (2 Bft) O-NO 67 0 min 0,000 mm 0,0 UV-I 101 W/m 6,4 C 4,0 C 16,1 km/h (3 Bft) 100,00 %
24.10.2016 10:56 6,4 C 99 % 1017,6 hPa 0,0 l/m 10,3 km/h (2 Bft) O-NO 70 0 min 0,000 mm 0,0 UV-I 95 W/m 6,3 C 3,4 C 14,5 km/h (3 Bft) 100,00 %
24.10.2016 10:58 6,4 C 99 % 1017,5 hPa 0,0 l/m 9,9 km/h (2 Bft) O-NO 74 0 min 0,000 mm 0,0 UV-I 84 W/m 6,3 C 3,7 C 14,5 km/h (3 Bft) 97,56 %
24.10.2016 11:00 6,4 C 99 % 1017,5 hPa 0,0 l/m 10,2 km/h (2 Bft) O-NO 71 0 min 0,026 mm 0,0 UV-I 87 W/m 6,3 C 3,5 C 12,9 km/h (3 Bft) 100,00 %
24.10.2016 11:02 6,5 C 99 % 1017,4 hPa 0,0 l/m 7,7 km/h (2 Bft) O-NO 69 0 min 0,000 mm 0,0 UV-I 101 W/m 6,4 C 5,4 C 12,9 km/h (3 Bft) 100,00 %
24.10.2016 11:04 6,5 C 99 % 1017,5 hPa 0,0 l/m 8,8 km/h (2 Bft) O-NO 76 0 min 0,000 mm 0,0 UV-I 92 W/m 6,4 C 4,6 C 12,9 km/h (3 Bft) 100,00 %
24.10.2016 11:06 6,5 C 99 % 1017,5 hPa 0,0 l/m 8,3 km/h (2 Bft) O-NO 66 0 min 0,000 mm 0,0 UV-I 108 W/m 6,4 C 4,9 C 12,9 km/h (3 Bft) 100,00 %
24.10.2016 11:08 6,6 C 99 % 1017,4 hPa 0,0 l/m 7,6 km/h (2 Bft) NO 55 0 min 0,000 mm 0,0 UV-I 93 W/m 6,5 C 5,6 C 14,5 km/h (3 Bft) 100,00 %
24.10.2016 11:10 6,6 C 99 % 1017,3 hPa 0,0 l/m 9,1 km/h (2 Bft) NO 39 0 min 0,000 mm 0,0 UV-I 92 W/m 6,5 C 4,5 C 14,5 km/h (3 Bft) 98,00 %
24.10.2016 11:12 6,6 C 99 % 1017,4 hPa 0,0 l/m 9,2 km/h (2 Bft) NO 54 0 min 0,000 mm 0,4 UV-I 112 W/m 6,5 C 4,4 C 14,5 km/h (3 Bft) 100,00 %
24.10.2016 11:14 6,6 C 99 % 1017,4 hPa 0,0 l/m 7,8 km/h (2 Bft) NO 46 0 min 0,000 mm 0,5 UV-I 130 W/m 6,5 C 5,4 C 12,9 km/h (3 Bft) 97,37 %
24.10.2016 11:16 6,6 C 99 % 1017,3 hPa 0,0 l/m 8,9 km/h (2 Bft) N-NO 28 0 min 0,000 mm 0,4 UV-I 123 W/m 6,5 C 4,6 C 14,5 km/h (3 Bft) 100,00 %
24.10.2016 11:18 6,7 C 99 % 1017,4 hPa 0,0 l/m 7,8 km/h (2 Bft) O-NO 67 0 min 0,000 mm 0,0 UV-I 116 W/m 6,6 C 5,5 C 11,3 km/h (2 Bft) 100,00 %
24.10.2016 11:20 6,7 C 99 % 1017,3 hPa 0,0 l/m 9,4 km/h (2 Bft) NO 47 0 min 0,000 mm 0,0 UV-I 94 W/m 6,6 C 4,4 C 14,5 km/h (3 Bft) 100,00 %
24.10.2016 11:22 6,7 C 99 % 1017,3 hPa 0,0 l/m 9,9 km/h (2 Bft) NO 52 0 min 0,000 mm 0,0 UV-I 96 W/m 6,6 C 4,0 C 16,1 km/h (3 Bft) 100,00 %
24.10.2016 11:24 6,7 C 99 % 1017,3 hPa 0,0 l/m 8,9 km/h (2 Bft) NO 44 0 min 0,000 mm 0,0 UV-I 70 W/m 6,6 C 4,7 C 14,5 km/h (3 Bft) 100,00 %
24.10.2016 11:26 6,6 C 99 % 1017,3 hPa 0,0 l/m 8,2 km/h (2 Bft) O-NO 66 0 min 0,000 mm 0,5 UV-I 98 W/m 6,5 C 5,1 C 11,3 km/h (2 Bft) 100,00 %
24.10.2016 11:28 6,6 C 99 % 1017,3 hPa 0,0 l/m 6,1 km/h (2 Bft) NO 36 0 min 0,000 mm 0,5 UV-I 132 W/m 6,5 C 6,6 C 8,0 km/h (2 Bft) 97,87 %
24.10.2016 11:30 6,6 C 99 % 1017,3 hPa 0,0 l/m 7,6 km/h (2 Bft) O 85 0 min 0,000 mm 0,5 UV-I 139 W/m 6,5 C 5,6 C 11,3 km/h (2 Bft) 98,00 %
24.10.2016 11:32 6,7 C 99 % 1017,4 hPa 0,0 l/m 6,8 km/h (2 Bft) NO 45 0 min 0,000 mm 0,5 UV-I 118 W/m 6,6 C 6,4 C 12,9 km/h (3 Bft) 97,56 %
24.10.2016 11:34 6,8 C 99 % 1017,3 hPa 0,0 l/m 8,6 km/h (2 Bft) NO 41 0 min 0,000 mm 0,5 UV-I 118 W/m 6,7 C 5,0 C 14,5 km/h (3 Bft) 97,44 %
24.10.2016 11:36 6,8 C 99 % 1017,3 hPa 0,0 l/m 9,1 km/h (2 Bft) O-NO 71 0 min 0,000 mm 0,5 UV-I 123 W/m 6,7 C 4,7 C 14,5 km/h (3 Bft) 96,36 %
24.10.2016 11:38 6,8 C 99 % 1017,3 hPa 0,0 l/m 6,7 km/h (2 Bft) NO 55 0 min 0,000 mm 0,5 UV-I 137 W/m 6,7 C 6,6 C 8,0 km/h (2 Bft) 97,87 %
24.10.2016 11:40 6,8 C 99 % 1017,3 hPa 0,0 l/m 8,6 km/h (2 Bft) NO 49 0 min 0,000 mm 0,5 UV-I 139 W/m 6,7 C 5,0 C 14,5 km/h (3 Bft) 95,83 %
24.10.2016 11:42 6,8 C 99 % 1017,4 hPa 0,0 l/m 8,9 km/h (2 Bft) O-NO 62 0 min 0,000 mm 0,5 UV-I 127 W/m 6,7 C 4,8 C 12,9 km/h (3 Bft) 96,08 %
24.10.2016 11:44 6,7 C 99 % 1017,4 hPa 0,0 l/m 8,3 km/h (2 Bft) NO 53 0 min 0,000 mm 0,5 UV-I 118 W/m 6,6 C 5,2 C 12,9 km/h (3 Bft) 97,78 %
24.10.2016 11:46 6,7 C 99 % 1017,3 hPa 0,0 l/m 7,6 km/h (2 Bft) NO 43 0 min 0,000 mm 0,5 UV-I 103 W/m 6,6 C 5,7 C 9,7 km/h (2 Bft) 97,73 %
24.10.2016 11:48 6,7 C 99 % 1017,3 hPa 0,0 l/m 6,0 km/h (2 Bft) NO 48 0 min 0,000 mm 0,1 UV-I 91 W/m 6,6 C 6,7 C 9,7 km/h (2 Bft) 97,87 %
24.10.2016 11:50 6,8 C 99 % 1017,3 hPa 0,0 l/m 8,0 km/h (2 Bft) NO 40 0 min 0,000 mm 0,4 UV-I 99 W/m 6,7 C 5,5 C 12,9 km/h (3 Bft) 97,73 %
24.10.2016 11:52 6,8 C 99 % 1017,4 hPa 0,0 l/m 5,9 km/h (2 Bft) N-NO 24 0 min 0,000 mm 0,4 UV-I 92 W/m 6,7 C 6,8 C 9,7 km/h (2 Bft) 98,11 %
24.10.2016 11:54 6,8 C 99 % 1017,5 hPa 0,0 l/m 3,1 km/h (1 Bft) N-NO 31 0 min 0,000 mm 0,4 UV-I 104 W/m 6,7 C 6,8 C 8,0 km/h (2 Bft) 96,00 %
24.10.2016 11:56 6,8 C 99 % 1017,5 hPa 0,0 l/m 3,3 km/h (1 Bft) NO 54 0 min 0,000 mm 0,5 UV-I 105 W/m 6,7 C 6,8 C 6,4 km/h (2 Bft) 94,00 %
24.10.2016 11:58 6,9 C 99 % 1017,5 hPa 0,0 l/m 2,0 km/h (1 Bft) NO 54 0 min 0,000 mm 0,5 UV-I 105 W/m 6,8 C 6,9 C 3,2 km/h (1 Bft) 94,74 %
24.10.2016 12:00 7,0 C 99 % 1017,4 hPa 0,0 l/m 3,1 km/h (1 Bft) NO 40 0 min 0,051 mm 0,5 UV-I 121 W/m 6,9 C 7,0 C 8,0 km/h (2 Bft) 98,00 %
24.10.2016 12:02 7,0 C 99 % 1017,3 hPa 0,0 l/m 7,7 km/h (2 Bft) NO 52 0 min 0,000 mm 0,6 UV-I 135 W/m 6,9 C 5,9 C 9,7 km/h (2 Bft) 96,23 %
24.10.2016 12:04 7,0 C 99 % 1017,2 hPa 0,0 l/m 7,0 km/h (2 Bft) O-NO 57 0 min 0,000 mm 0,6 UV-I 143 W/m 6,9 C 6,5 C 9,7 km/h (2 Bft) 100,00 %
24.10.2016 12:06 7,0 C 99 % 1017,1 hPa 0,0 l/m 7,4 km/h (2 Bft) NO 46 0 min 0,000 mm 0,7 UV-I 150 W/m 6,9 C 6,2 C 9,7 km/h (2 Bft) 100,00 %
24.10.2016 12:08 7,1 C 99 % 1017,2 hPa 0,0 l/m 4,4 km/h (1 Bft) NO 45 0 min 0,000 mm 0,7 UV-I 150 W/m 7,0 C 7,1 C 6,4 km/h (2 Bft) 100,00 %
24.10.2016 12:10 7,2 C 99 % 1017,2 hPa 0,0 l/m 4,6 km/h (1 Bft) N-NO 28 0 min 0,000 mm 0,7 UV-I 157 W/m 7,1 C 7,2 C 8,0 km/h (2 Bft) 100,00 %
24.10.2016 12:12 7,2 C 99 % 1017,2 hPa 0,0 l/m 6,0 km/h (2 Bft) O-NO 67 0 min 0,000 mm 0,7 UV-I 164 W/m 7,1 C 7,2 C 9,7 km/h (2 Bft) 100,00 %
24.10.2016 12:14 7,2 C 99 % 1017,1 hPa 0,0 l/m 4,1 km/h (1 Bft) NO 50 0 min 0,000 mm 0,8 UV-I 166 W/m 7,1 C 7,2 C 8,0 km/h (2 Bft) 100,00 %
24.10.2016 12:16 7,3 C 99 % 1017,1 hPa 0,0 l/m 7,5 km/h (2 Bft) N-NO 23 0 min 0,000 mm 0,8 UV-I 168 W/m 7,2 C 6,4 C 12,9 km/h (3 Bft) 100,00 %
24.10.2016 12:18 7,3 C 99 % 1017,1 hPa 0,0 l/m 5,6 km/h (1 Bft) O-NO 61 0 min 0,000 mm 0,8 UV-I 171 W/m 7,2 C 7,3 C 9,7 km/h (2 Bft) 100,00 %
24.10.2016 12:20 7,3 C 99 % 1017,1 hPa 0,0 l/m 7,3 km/h (2 Bft) O-NO 63 0 min 0,000 mm 0,8 UV-I 165 W/m 7,2 C 6,6 C 9,7 km/h (2 Bft) 97,56 %
24.10.2016 12:22 7,3 C 98 % 1017,1 hPa 0,0 l/m 6,4 km/h (2 Bft) O-NO 65 0 min 0,000 mm 0,8 UV-I 160 W/m 7,0 C 7,3 C 11,3 km/h (2 Bft) 98,11 %
24.10.2016 12:24 7,2 C 98 % 1017,2 hPa 0,0 l/m 8,1 km/h (2 Bft) NO 42 0 min 0,000 mm 0,8 UV-I 162 W/m 6,9 C 5,8 C 12,9 km/h (3 Bft) 100,00 %
24.10.2016 12:26 7,3 C 98 % 1017,2 hPa 0,0 l/m 6,7 km/h (2 Bft) O-NO 58 0 min 0,000 mm 0,8 UV-I 169 W/m 7,0 C 7,1 C 9,7 km/h (2 Bft) 100,00 %
24.10.2016 12:28 7,3 C 98 % 1017,2 hPa 0,0 l/m 3,0 km/h (1 Bft) NO 52 0 min 0,000 mm 0,8 UV-I 178 W/m 7,0 C 7,3 C 4,8 km/h (1 Bft) 98,00 %
24.10.2016 12:30 7,4 C 98 % 1017,2 hPa 0,0 l/m 6,3 km/h (2 Bft) NO 45 0 min 0,000 mm 0,8 UV-I 175 W/m 7,1 C 7,4 C 9,7 km/h (2 Bft) 100,00 %
24.10.2016 12:33 7,6 C 98 % 1017,1 hPa 0,0 l/m 6,7 km/h (2 Bft) NO 55 0 min 0,000 mm 0,8 UV-I 183 W/m 7,3 C 7,4 C 9,7 km/h (2 Bft) 100,00 %
24.10.2016 12:34 7,6 C 98 % 1017,1 hPa 0,0 l/m 5,1 km/h (1 Bft) NO 45 0 min 0,000 mm 0,8 UV-I 189 W/m 7,3 C 7,6 C 6,4 km/h (2 Bft) 96,67 %
24.10.2016 12:36 7,6 C 98 % 1017,1 hPa 0,0 l/m 6,9 km/h (2 Bft) NO 44 0 min 0,000 mm 0,8 UV-I 192 W/m 7,3 C 7,2 C 9,7 km/h (2 Bft) 100,00 %
24.10.2016 12:38 7,6 C 98 % 1017,0 hPa 0,0 l/m 8,3 km/h (2 Bft) O-NO 57 0 min 0,000 mm 0,8 UV-I 186 W/m 7,3 C 6,1 C 11,3 km/h (2 Bft) 100,00 %
24.10.2016 12:40 7,6 C 98 % 1016,9 hPa 0,0 l/m 7,2 km/h (2 Bft) NO 42 0 min 0,000 mm 0,8 UV-I 189 W/m 7,3 C 7,0 C 12,9 km/h (3 Bft) 100,00 %
24.10.2016 12:42 7,8 C 98 % 1016,9 hPa 0,0 l/m 4,9 km/h (1 Bft) NO 52 0 min 0,000 mm 0,8 UV-I 192 W/m 7,5 C 7,8 C 6,4 km/h (2 Bft) 100,00 %
24.10.2016 12:44 7,8 C 98 % 1016,9 hPa 0,0 l/m 5,5 km/h (1 Bft) NO 53 0 min 0,000 mm 0,8 UV-I 196 W/m 7,5 C 7,8 C 8,0 km/h (2 Bft) 95,12 %
24.10.2016 12:46 7,9 C 98 % 1016,9 hPa 0,0 l/m 7,2 km/h (2 Bft) NO 55 0 min 0,000 mm 0,8 UV-I 203 W/m 7,6 C 7,3 C 9,7 km/h (2 Bft) 100,00 %
24.10.2016 12:48 7,9 C 97 % 1016,8 hPa 0,0 l/m 5,9 km/h (2 Bft) NO 42 0 min 0,000 mm 0,8 UV-I 202 W/m 7,5 C 7,9 C 9,7 km/h (2 Bft) 100,00 %
24.10.2016 12:50 8,0 C 97 % 1016,8 hPa 0,0 l/m 5,1 km/h (1 Bft) O 79 0 min 0,000 mm 1,0 UV-I 229 W/m 7,6 C 8,0 C 8,0 km/h (2 Bft) 100,00 %
24.10.2016 12:52 7,9 C 97 % 1016,8 hPa 0,0 l/m 4,5 km/h (1 Bft) O-NO 76 0 min 0,000 mm 1,1 UV-I 254 W/m 7,5 C 7,9 C 8,0 km/h (2 Bft) 100,00 %
24.10.2016 12:54 7,9 C 96 % 1016,8 hPa 0,0 l/m 4,7 km/h (1 Bft) NO 34 0 min 0,000 mm 1,1 UV-I 239 W/m 7,3 C 7,9 C 11,3 km/h (2 Bft) 100,00 %
24.10.2016 12:56 8,1 C 97 % 1016,8 hPa 0,0 l/m 7,4 km/h (2 Bft) O-NO 65 0 min 0,000 mm 1,1 UV-I 213 W/m 7,7 C 7,3 C 11,3 km/h (2 Bft) 100,00 %
24.10.2016 12:58 8,1 C 97 % 1016,8 hPa 0,0 l/m 4,7 km/h (1 Bft) O-NO 60 0 min 0,000 mm 1,1 UV-I 202 W/m 7,7 C 8,1 C 8,0 km/h (2 Bft) 100,00 %
24.10.2016 13:00 8,2 C 96 % 1016,8 hPa 0,0 l/m 5,4 km/h (1 Bft) O-NO 64 0 min 0,000 mm 1,2 UV-I 191 W/m 7,6 C 8,2 C 12,9 km/h (3 Bft) 97,62 %
24.10.2016 13:02 8,1 C 95 % 1016,9 hPa 0,0 l/m 7,5 km/h (2 Bft) O 82 0 min 0,076 mm 1,2 UV-I 174 W/m 7,3 C 7,2 C 11,3 km/h (2 Bft) 100,00 %
24.10.2016 13:04 8,1 C 95 % 1016,9 hPa 0,0 l/m 6,8 km/h (2 Bft) O 100 0 min 0,000 mm 1,4 UV-I 215 W/m 7,3 C 7,8 C 11,3 km/h (2 Bft) 100,00 %
24.10.2016 13:06 8,2 C 96 % 1016,9 hPa 0,0 l/m 5,1 km/h (1 Bft) O 82 2 min 0,000 mm 1,6 UV-I 519 W/m 7,6 C 8,2 C 6,4 km/h (2 Bft) 100,00 %
24.10.2016 13:08 8,2 C 95 % 1016,9 hPa 0,0 l/m 5,0 km/h (1 Bft) O-SO 103 2 min 0,000 mm 1,5 UV-I 549 W/m 7,4 C 8,2 C 9,7 km/h (2 Bft) 97,87 %
24.10.2016 13:10 8,3 C 95 % 1016,8 hPa 0,0 l/m 6,6 km/h (2 Bft) O-NO 69 2 min 0,000 mm 1,5 UV-I 433 W/m 7,5 C 8,2 C 12,9 km/h (3 Bft) 100,00 %
24.10.2016 13:12 8,5 C 95 % 1016,8 hPa 0,0 l/m 3,0 km/h (1 Bft) SO 131 2 min 0,000 mm 1,4 UV-I 473 W/m 7,7 C 8,5 C 9,7 km/h (2 Bft) 97,87 %
24.10.2016 13:14 8,7 C 94 % 1016,8 hPa 0,0 l/m 5,4 km/h (1 Bft) NO 53 2 min 0,000 mm 1,3 UV-I 370 W/m 7,8 C 8,7 C 9,7 km/h (2 Bft) 100,00 %
24.10.2016 13:16 8,7 C 94 % 1016,8 hPa 0,0 l/m 5,5 km/h (1 Bft) O-NO 68 2 min 0,000 mm 1,2 UV-I 316 W/m 7,8 C 8,7 C 9,7 km/h (2 Bft) 100,00 %
24.10.2016 13:18 8,8 C 94 % 1016,8 hPa 0,0 l/m 3,1 km/h (1 Bft) O-NO 67 2 min 0,000 mm 1,3 UV-I 340 W/m 7,9 C 8,8 C 4,8 km/h (1 Bft) 100,00 %
24.10.2016 13:20 8,8 C 93 % 1016,8 hPa 0,0 l/m 3,5 km/h (1 Bft) O-NO 77 2 min 0,000 mm 1,3 UV-I 379 W/m 7,7 C 8,8 C 4,8 km/h (1 Bft) 100,00 %
24.10.2016 13:22 8,9 C 93 % 1016,8 hPa 0,0 l/m 2,7 km/h (1 Bft) O 96 2 min 0,000 mm 1,3 UV-I 419 W/m 7,8 C 8,9 C 4,8 km/h (1 Bft) 100,00 %
24.10.2016 13:24 8,8 C 93 % 1016,9 hPa 0,0 l/m 2,4 km/h (1 Bft) O-NO 60 2 min 0,000 mm 1,2 UV-I 375 W/m 7,7 C 8,8 C 4,8 km/h (1 Bft) 97,73 %
24.10.2016 13:26 8,9 C 93 % 1016,9 hPa 0,0 l/m 3,3 km/h (1 Bft) NO 37 2 min 0,000 mm 1,1 UV-I 307 W/m 7,8 C 8,9 C 4,8 km/h (1 Bft) 97,87 %
24.10.2016 13:28 9,2 C 94 % 1017,0 hPa 0,0 l/m 3,5 km/h (1 Bft) N-NO 31 2 min 0,000 mm 1,1 UV-I 317 W/m 8,3 C 9,2 C 6,4 km/h (2 Bft) 98,00 %
24.10.2016 13:30 9,3 C 94 % 1016,9 hPa 0,0 l/m 3,1 km/h (1 Bft) NO 40 2 min 0,000 mm 1,1 UV-I 357 W/m 8,4 C 9,3 C 9,7 km/h (2 Bft) 97,37 %
24.10.2016 13:32 9,2 C 92 % 1017,0 hPa 0,0 l/m 4,3 km/h (1 Bft) O-NO 67 2 min 0,000 mm 1,1 UV-I 278 W/m 8,0 C 9,2 C 6,4 km/h (2 Bft) 98,11 %
24.10.2016 13:34 9,2 C 92 % 1016,9 hPa 0,0 l/m 4,6 km/h (1 Bft) NO 51 2 min 0,000 mm 1,1 UV-I 271 W/m 8,0 C 9,2 C 6,4 km/h (2 Bft) 98,00 %
24.10.2016 13:36 9,2 C 92 % 1016,9 hPa 0,0 l/m 2,0 km/h (1 Bft) NO 51 2 min 0,000 mm 1,2 UV-I 319 W/m 8,0 C 9,2 C 3,2 km/h (1 Bft) 98,00 %
24.10.2016 13:38 9,1 C 92 % 1016,9 hPa 0,0 l/m 0,2 km/h (0 Bft) NO 51 2 min 0,000 mm 1,1 UV-I 280 W/m 7,9 C 9,1 C 1,6 km/h (1 Bft) 97,37 %
24.10.2016 13:40 9,0 C 92 % 1016,9 hPa 0,0 l/m 0,8 km/h (0 Bft) NO 51 0 min 0,000 mm 1,0 UV-I 238 W/m 7,8 C 9,0 C 3,2 km/h (1 Bft) 93,75 %
24.10.2016 13:42 9,1 C 92 % 1016,9 hPa 0,0 l/m 0,5 km/h (0 Bft) NO 51 0 min 0,000 mm 1,0 UV-I 230 W/m 7,9 C 9,1 C 3,2 km/h (1 Bft) 100,00 %
24.10.2016 13:44 9,1 C 92 % 1016,9 hPa 0,0 l/m 2,2 km/h (1 Bft) NO 51 0 min 0,000 mm 1,1 UV-I 261 W/m 7,9 C 9,1 C 4,8 km/h (1 Bft) 97,37 %
24.10.2016 13:46 9,1 C 92 % 1016,9 hPa 0,0 l/m 1,7 km/h (1 Bft) NO 51 2 min 0,000 mm 1,2 UV-I 326 W/m 7,9 C 9,1 C 4,8 km/h (1 Bft) 97,06 %
24.10.2016 13:48 9,1 C 92 % 1016,9 hPa 0,0 l/m 0,8 km/h (0 Bft) NO 51 2 min 0,000 mm 1,3 UV-I 410 W/m 7,9 C 9,1 C 3,2 km/h (1 Bft) 97,87 %
24.10.2016 13:50 9,1 C 92 % 1016,9 hPa 0,0 l/m 2,5 km/h (1 Bft) NO 42 2 min 0,000 mm 1,3 UV-I 359 W/m 7,9 C 9,1 C 6,4 km/h (2 Bft) 97,87 %
24.10.2016 13:52 9,2 C 92 % 1016,8 hPa 0,0 l/m 0,7 km/h (0 Bft) NO 42 2 min 0,000 mm 1,3 UV-I 343 W/m 8,0 C 9,2 C 3,2 km/h (1 Bft) 97,87 %
24.10.2016 13:54 9,1 C 91 % 1016,8 hPa 0,0 l/m 0,2 km/h (0 Bft) NO 42 2 min 0,000 mm 1,3 UV-I 345 W/m 7,7 C 9,1 C 1,6 km/h (1 Bft) 97,87 %
24.10.2016 13:56 9,1 C 91 % 1016,8 hPa 0,0 l/m 0,0 km/h (0 Bft) NO 42 2 min 0,000 mm 1,2 UV-I 306 W/m 7,7 C 9,1 C 0,0 km/h (0 Bft) 98,00 %
24.10.2016 13:58 9,1 C 91 % 1016,8 hPa 0,0 l/m 0,0 km/h (0 Bft) NO 42 0 min 0,000 mm 1,1 UV-I 253 W/m 7,7 C 9,1 C 0,0 km/h (0 Bft) 100,00 %
24.10.2016 14:00 9,1 C 92 % 1016,9 hPa 0,0 l/m 0,0 km/h (0 Bft) NO 42 0 min 0,152 mm 1,1 UV-I 241 W/m 7,9 C 9,1 C 0,0 km/h (0 Bft) 100,00 %
24.10.2016 14:02 9,3 C 92 % 1016,9 hPa 0,0 l/m 0,0 km/h (0 Bft) NO 42 2 min 0,000 mm 1,2 UV-I 294 W/m 8,1 C 9,3 C 0,0 km/h (0 Bft) 98,11 %
24.10.2016 14:04 9,5 C 93 % 1016,7 hPa 0,0 l/m 0,0 km/h (0 Bft) NO 42 2 min 0,000 mm 1,3 UV-I 366 W/m 8,4 C 9,5 C 0,0 km/h (0 Bft) 100,00 %
24.10.2016 14:06 9,8 C 93 % 1016,7 hPa 0,0 l/m 0,0 km/h (0 Bft) NO 42 2 min 0,000 mm 1,3 UV-I 401 W/m 8,7 C 9,8 C 0,0 km/h (0 Bft) 97,87 %
24.10.2016 14:08 9,8 C 91 % 1016,7 hPa 0,0 l/m 0,2 km/h (0 Bft) NO 42 2 min 0,000 mm 1,3 UV-I 394 W/m 8,4 C 9,8 C 3,2 km/h (1 Bft) 100,00 %
24.10.2016 14:10 9,9 C 91 % 1016,6 hPa 0,0 l/m 4,6 km/h (1 Bft) O-NO 61 2 min 0,000 mm 1,3 UV-I 385 W/m 8,5 C 9,9 C 6,4 km/h (2 Bft) 100,00 %
24.10.2016 14:12 9,7 C 90 % 1016,6 hPa 0,0 l/m 1,7 km/h (1 Bft) NO 49 2 min 0,000 mm 1,3 UV-I 413 W/m 8,1 C 9,7 C 4,8 km/h (1 Bft) 98,15 %
24.10.2016 14:14 9,7 C 90 % 1016,6 hPa 0,0 l/m 1,1 km/h (1 Bft) NO 49 2 min 0,000 mm 1,3 UV-I 440 W/m 8,1 C 9,7 C 3,2 km/h (1 Bft) 100,00 %
24.10.2016 14:16 9,7 C 90 % 1016,6 hPa 0,0 l/m 1,0 km/h (0 Bft) NO 49 0 min 0,000 mm 1,1 UV-I 240 W/m 8,1 C 9,7 C 3,2 km/h (1 Bft) 100,00 %
24.10.2016 14:18 9,7 C 91 % 1016,6 hPa 0,0 l/m 0,1 km/h (0 Bft) NO 49 0 min 0,000 mm 1,1 UV-I 234 W/m 8,3 C 9,7 C 1,6 km/h (1 Bft) 97,87 %
24.10.2016 14:20 9,8 C 92 % 1016,7 hPa 0,0 l/m 0,4 km/h (0 Bft) NO 49 2 min 0,000 mm 1,2 UV-I 318 W/m 8,6 C 9,8 C 3,2 km/h (1 Bft) 100,00 %
24.10.2016 14:22 9,9 C 90 % 1016,7 hPa 0,0 l/m 2,6 km/h (1 Bft) NO 49 2 min 0,000 mm 1,1 UV-I 259 W/m 8,3 C 9,9 C 4,8 km/h (1 Bft) 100,00 %
24.10.2016 14:24 9,9 C 91 % 1016,6 hPa 0,0 l/m 2,2 km/h (1 Bft) NO 49 0 min 0,000 mm 1,0 UV-I 228 W/m 8,5 C 9,9 C 4,8 km/h (1 Bft) 100,00 %
24.10.2016 14:26 9,9 C 91 % 1016,7 hPa 0,0 l/m 2,5 km/h (1 Bft) NO 49 0 min 0,000 mm 1,0 UV-I 193 W/m 8,5 C 9,9 C 4,8 km/h (1 Bft) 100,00 %
24.10.2016 14:28 9,8 C 90 % 1016,7 hPa 0,0 l/m 0,7 km/h (0 Bft) NO 49 0 min 0,000 mm 1,0 UV-I 192 W/m 8,2 C 9,8 C 3,2 km/h (1 Bft) 100,00 %
24.10.2016 14:30 9,7 C 90 % 1016,7 hPa 0,0 l/m 1,2 km/h (1 Bft) NO 49 2 min 0,000 mm 1,0 UV-I 248 W/m 8,1 C 9,7 C 3,2 km/h (1 Bft) 97,87 %
24.10.2016 14:32 9,7 C 90 % 1016,7 hPa 0,0 l/m 0,1 km/h (0 Bft) NO 49 2 min 0,000 mm 1,1 UV-I 332 W/m 8,1 C 9,7 C 1,6 km/h (1 Bft) 97,87 %
24.10.2016 14:34 9,8 C 91 % 1016,7 hPa 0,0 l/m 0,2 km/h (0 Bft) NO 49 2 min 0,000 mm 1,1 UV-I 389 W/m 8,4 C 9,8 C 1,6 km/h (1 Bft) 100,00 %
24.10.2016 14:36 9,9 C 91 % 1016,7 hPa 0,0 l/m 1,7 km/h (1 Bft) NO 49 2 min 0,000 mm 1,0 UV-I 333 W/m 8,5 C 9,9 C 4,8 km/h (1 Bft) 100,00 %
24.10.2016 14:38 10,1 C 90 % 1016,8 hPa 0,0 l/m 2,8 km/h (1 Bft) SO 131 2 min 0,000 mm 1,1 UV-I 288 W/m 8,5 C 10,1 C 4,8 km/h (1 Bft) 100,00 %
24.10.2016 14:40 10,2 C 89 % 1016,8 hPa 0,0 l/m 2,5 km/h (1 Bft) SO 128 2 min 0,000 mm 1,2 UV-I 438 W/m 8,5 C 10,2 C 4,8 km/h (1 Bft) 98,00 %
24.10.2016 14:42 10,3 C 88 % 1016,7 hPa 0,0 l/m 1,8 km/h (1 Bft) O-SO 123 2 min 0,000 mm 1,2 UV-I 452 W/m 8,4 C 10,3 C 4,8 km/h (1 Bft) 100,00 %
24.10.2016 14:44 10,3 C 88 % 1016,7 hPa 0,0 l/m 2,9 km/h (1 Bft) SO 140 2 min 0,000 mm 1,1 UV-I 372 W/m 8,4 C 10,3 C 4,8 km/h (1 Bft) 100,00 %
24.10.2016 14:46 10,2 C 87 % 1016,7 hPa 0,0 l/m 1,8 km/h (1 Bft) S 169 2 min 0,000 mm 1,0 UV-I 319 W/m 8,1 C 10,2 C 4,8 km/h (1 Bft) 98,21 %
24.10.2016 14:48 10,0 C 88 % 1016,7 hPa 0,0 l/m 3,3 km/h (1 Bft) S-SO 150 0 min 0,000 mm 0,9 UV-I 208 W/m 8,1 C 10,0 C 4,8 km/h (1 Bft) 100,00 %
24.10.2016 14:50 9,9 C 89 % 1016,7 hPa 0,0 l/m 2,6 km/h (1 Bft) S-SO 148 2 min 0,000 mm 0,9 UV-I 273 W/m 8,2 C 9,9 C 4,8 km/h (1 Bft) 100,00 %
24.10.2016 14:52 10,1 C 90 % 1016,6 hPa 0,0 l/m 0,5 km/h (0 Bft) S-SO 148 2 min 0,000 mm 0,9 UV-I 265 W/m 8,5 C 10,1 C 1,6 km/h (1 Bft) 100,00 %
24.10.2016 14:54 9,9 C 90 % 1016,6 hPa 0,0 l/m 0,7 km/h (0 Bft) S-SO 148 2 min 0,000 mm 0,9 UV-I 281 W/m 8,3 C 9,9 C 3,2 km/h (1 Bft) 100,00 %
24.10.2016 14:56 9,9 C 89 % 1016,5 hPa 0,0 l/m 0,8 km/h (0 Bft) S-SO 148 2 min 0,000 mm 0,9 UV-I 235 W/m 8,2 C 9,9 C 1,6 km/h (1 Bft) 97,87 %
24.10.2016 14:58 9,9 C 89 % 1016,5 hPa 0,0 l/m 0,4 km/h (0 Bft) S-SO 148 0 min 0,000 mm 0,8 UV-I 195 W/m 8,2 C 9,9 C 1,6 km/h (1 Bft) 98,00 %
24.10.2016 15:00 9,9 C 89 % 1016,5 hPa 0,0 l/m 1,6 km/h (1 Bft) SO 128 0 min 0,000 mm 0,8 UV-I 151 W/m 8,2 C 9,9 C 4,8 km/h (1 Bft) 100,00 %
24.10.2016 15:02 9,9 C 89 % 1016,5 hPa 0,0 l/m 0,1 km/h (0 Bft) SO 128 0 min 0,127 mm 0,8 UV-I 153 W/m 8,2 C 9,9 C 1,6 km/h (1 Bft) 100,00 %
24.10.2016 15:04 9,9 C 89 % 1016,5 hPa 0,0 l/m 0,9 km/h (0 Bft) SO 128 0 min 0,000 mm 0,8 UV-I 204 W/m 8,2 C 9,9 C 3,2 km/h (1 Bft) 100,00 %
24.10.2016 15:06 10,0 C 90 % 1016,5 hPa 0,0 l/m 4,1 km/h (1 Bft) S-SW 200 2 min 0,000 mm 0,8 UV-I 226 W/m 8,4 C 10,0 C 6,4 km/h (2 Bft) 95,12 %
24.10.2016 15:08 10,2 C 90 % 1016,5 hPa 0,0 l/m 4,2 km/h (1 Bft) S-SW 204 2 min 0,000 mm 0,8 UV-I 343 W/m 8,6 C 10,2 C 6,4 km/h (2 Bft) 100,00 %
24.10.2016 15:10 10,2 C 89 % 1016,5 hPa 0,0 l/m 5,1 km/h (1 Bft) S-SO 164 2 min 0,000 mm 0,9 UV-I 367 W/m 8,5 C 10,2 C 8,0 km/h (2 Bft) 98,11 %
24.10.2016 15:12 10,3 C 89 % 1016,5 hPa 0,0 l/m 1,8 km/h (1 Bft) S-SO 164 2 min 0,000 mm 0,9 UV-I 350 W/m 8,6 C 10,3 C 3,2 km/h (1 Bft) 100,00 %
24.10.2016 15:14 10,2 C 88 % 1016,6 hPa 0,0 l/m 0,7 km/h (0 Bft) S-SO 164 2 min 0,000 mm 0,8 UV-I 306 W/m 8,3 C 10,2 C 1,6 km/h (1 Bft) 100,00 %
24.10.2016 15:16 10,2 C 88 % 1016,6 hPa 0,0 l/m 3,4 km/h (1 Bft) S-SW 206 2 min 0,000 mm 0,8 UV-I 319 W/m 8,3 C 10,2 C 6,4 km/h (2 Bft) 98,21 %
24.10.2016 15:18 10,3 C 90 % 1016,6 hPa 0,0 l/m 4,2 km/h (1 Bft) S-SW 206 2 min 0,000 mm 0,8 UV-I 325 W/m 8,7 C 10,3 C 6,4 km/h (2 Bft) 97,14 %
24.10.2016 15:20 10,3 C 90 % 1016,5 hPa 0,0 l/m 1,9 km/h (1 Bft) S-SW 206 2 min 0,000 mm 0,8 UV-I 277 W/m 8,7 C 10,3 C 4,8 km/h (1 Bft) 98,21 %
24.10.2016 15:22 10,3 C 89 % 1016,6 hPa 0,0 l/m 2,2 km/h (1 Bft) S-SW 206 2 min 0,000 mm 0,7 UV-I 263 W/m 8,6 C 10,3 C 4,8 km/h (1 Bft) 96,00 %
24.10.2016 15:24 10,2 C 89 % 1016,6 hPa 0,0 l/m 2,2 km/h (1 Bft) S 191 2 min 0,000 mm 0,7 UV-I 252 W/m 8,5 C 10,2 C 4,8 km/h (1 Bft) 100,00 %
24.10.2016 15:26 10,1 C 90 % 1016,6 hPa 0,0 l/m 1,3 km/h (1 Bft) S 191 2 min 0,000 mm 0,7 UV-I 296 W/m 8,5 C 10,1 C 4,8 km/h (1 Bft) 96,23 %
24.10.2016 15:28 10,1 C 90 % 1016,6 hPa 0,0 l/m 1,4 km/h (1 Bft) S 191 2 min 0,000 mm 0,7 UV-I 326 W/m 8,5 C 10,1 C 3,2 km/h (1 Bft) 98,00 %
24.10.2016 15:30 10,1 C 90 % 1016,6 hPa 0,0 l/m 2,9 km/h (1 Bft) S-SW 203 2 min 0,000 mm 0,7 UV-I 335 W/m 8,5 C 10,1 C 6,4 km/h (2 Bft) 97,87 %
24.10.2016 15:32 10,2 C 90 % 1016,6 hPa 0,0 l/m 2,3 km/h (1 Bft) S 177 2 min 0,000 mm 0,7 UV-I 321 W/m 8,6 C 10,2 C 6,4 km/h (2 Bft) 97,37 %
24.10.2016 15:34 10,3 C 90 % 1016,6 hPa 0,0 l/m 2,7 km/h (1 Bft) S 191 2 min 0,000 mm 0,7 UV-I 308 W/m 8,7 C 10,3 C 6,4 km/h (2 Bft) 97,87 %
24.10.2016 15:36 10,3 C 90 % 1016,6 hPa 0,0 l/m 3,0 km/h (1 Bft) S-SO 164 2 min 0,000 mm 0,6 UV-I 252 W/m 8,7 C 10,3 C 6,4 km/h (2 Bft) 96,00 %
24.10.2016 15:38 10,3 C 89 % 1016,7 hPa 0,0 l/m 3,0 km/h (1 Bft) SO 130 2 min 0,000 mm 0,6 UV-I 253 W/m 8,6 C 10,3 C 6,4 km/h (2 Bft) 97,87 %
24.10.2016 15:40 10,3 C 89 % 1016,6 hPa 0,0 l/m 1,1 km/h (1 Bft) SO 130 2 min 0,000 mm 0,6 UV-I 302 W/m 8,6 C 10,3 C 3,2 km/h (1 Bft) 95,24 %
24.10.2016 15:42 10,3 C 90 % 1016,6 hPa 0,0 l/m 0,6 km/h (0 Bft) SO 130 2 min 0,000 mm 0,6 UV-I 283 W/m 8,7 C 10,3 C 3,2 km/h (1 Bft) 96,00 %
24.10.2016 15:44 10,3 C 90 % 1016,6 hPa 0,0 l/m 0,9 km/h (0 Bft) SO 141 2 min 0,000 mm 0,6 UV-I 272 W/m 8,7 C 10,3 C 3,2 km/h (1 Bft) 98,00 %
24.10.2016 15:46 10,1 C 90 % 1016,6 hPa 0,0 l/m 1,6 km/h (1 Bft) SO 145 2 min 0,000 mm 0,6 UV-I 271 W/m 8,5 C 10,1 C 4,8 km/h (1 Bft) 97,56 %
24.10.2016 15:48 10,1 C 90 % 1016,6 hPa 0,0 l/m 1,0 km/h (0 Bft) SO 145 2 min 0,000 mm 0,6 UV-I 274 W/m 8,5 C 10,1 C 3,2 km/h (1 Bft) 97,87 %
24.10.2016 15:50 10,1 C 91 % 1016,6 hPa 0,0 l/m 2,1 km/h (1 Bft) O-SO 119 2 min 0,000 mm 0,5 UV-I 232 W/m 8,7 C 10,1 C 4,8 km/h (1 Bft) 98,00 %
24.10.2016 15:52 10,2 C 90 % 1016,6 hPa 0,0 l/m 2,5 km/h (1 Bft) O-SO 119 2 min 0,000 mm 0,5 UV-I 183 W/m 8,6 C 10,2 C 3,2 km/h (1 Bft) 100,00 %
24.10.2016 15:54 10,3 C 90 % 1016,6 hPa 0,0 l/m 2,4 km/h (1 Bft) O-SO 119 2 min 0,000 mm 0,5 UV-I 191 W/m 8,7 C 10,3 C 3,2 km/h (1 Bft) 100,00 %
24.10.2016 15:56 10,5 C 90 % 1016,6 hPa 0,0 l/m 3,3 km/h (1 Bft) O-NO 71 2 min 0,000 mm 0,5 UV-I 199 W/m 8,9 C 10,5 C 4,8 km/h (1 Bft) 100,00 %
24.10.2016 15:58 10,5 C 88 % 1016,5 hPa 0,0 l/m 4,3 km/h (1 Bft) O-NO 65 2 min 0,000 mm 0,2 UV-I 170 W/m 8,6 C 10,5 C 6,4 km/h (2 Bft) 100,00 %
24.10.2016 16:00 10,6 C 89 % 1016,4 hPa 0,0 l/m 3,7 km/h (1 Bft) NO 53 0 min 0,000 mm 0,0 UV-I 140 W/m 8,9 C 10,6 C 6,4 km/h (2 Bft) 100,00 %
24.10.2016 16:02 10,5 C 89 % 1016,4 hPa 0,0 l/m 4,9 km/h (1 Bft) O-SO 109 0 min 0,127 mm 0,0 UV-I 139 W/m 8,8 C 10,5 C 6,4 km/h (2 Bft) 100,00 %
24.10.2016 16:04 10,4 C 89 % 1016,4 hPa 0,0 l/m 6,1 km/h (2 Bft) O-SO 121 0 min 0,000 mm 0,0 UV-I 126 W/m 8,7 C 10,4 C 6,4 km/h (2 Bft) 100,00 %
24.10.2016 16:06 10,4 C 89 % 1016,4 hPa 0,0 l/m 6,9 km/h (2 Bft) O-SO 111 0 min 0,000 mm 0,0 UV-I 122 W/m 8,7 C 10,0 C 11,3 km/h (2 Bft) 98,00 %
24.10.2016 16:08 10,3 C 89 % 1016,4 hPa 0,0 l/m 5,5 km/h (1 Bft) O-SO 117 0 min 0,000 mm 0,0 UV-I 119 W/m 8,6 C 10,3 C 9,7 km/h (2 Bft) 100,00 %
24.10.2016 16:10 10,2 C 89 % 1016,4 hPa 0,0 l/m 5,7 km/h (1 Bft) O 94 0 min 0,000 mm 0,0 UV-I 116 W/m 8,5 C 10,2 C 11,3 km/h (2 Bft) 100,00 %
24.10.2016 16:12 10,2 C 89 % 1016,5 hPa 0,0 l/m 6,2 km/h (2 Bft) O-SO 113 0 min 0,000 mm 0,0 UV-I 137 W/m 8,5 C 10,2 C 9,7 km/h (2 Bft) 97,37 %
24.10.2016 16:14 10,2 C 90 % 1016,5 hPa 0,0 l/m 8,8 km/h (2 Bft) SO 128 2 min 0,000 mm 0,0 UV-I 140 W/m 8,6 C 8,5 C 12,9 km/h (3 Bft) 100,00 %
24.10.2016 16:16 10,2 C 90 % 1016,3 hPa 0,0 l/m 6,2 km/h (2 Bft) O 86 0 min 0,000 mm 0,0 UV-I 126 W/m 8,6 C 10,2 C 9,7 km/h (2 Bft) 100,00 %
24.10.2016 16:18 10,2 C 90 % 1016,3 hPa 0,0 l/m 8,8 km/h (2 Bft) O 96 0 min 0,000 mm 0,0 UV-I 130 W/m 8,6 C 8,5 C 14,5 km/h (3 Bft) 100,00 %
24.10.2016 16:20 10,3 C 90 % 1016,3 hPa 0,0 l/m 9,9 km/h (2 Bft) O-NO 64 2 min 0,000 mm 0,0 UV-I 132 W/m 8,7 C 8,0 C 14,5 km/h (3 Bft) 96,30 %
24.10.2016 16:22 10,3 C 90 % 1016,2 hPa 0,0 l/m 8,0 km/h (2 Bft) O 84 2 min 0,000 mm 0,0 UV-I 134 W/m 8,7 C 9,2 C 16,1 km/h (3 Bft) 100,00 %
24.10.2016 16:24 10,3 C 90 % 1016,1 hPa 0,0 l/m 6,7 km/h (2 Bft) O 93 2 min 0,000 mm 0,0 UV-I 127 W/m 8,7 C 10,1 C 12,9 km/h (3 Bft) 100,00 %
24.10.2016 16:26 10,3 C 90 % 1016,1 hPa 0,0 l/m 8,0 km/h (2 Bft) O-NO 67 0 min 0,000 mm 0,0 UV-I 116 W/m 8,7 C 9,2 C 14,5 km/h (3 Bft) 96,00 %
24.10.2016 16:28 10,3 C 90 % 1016,1 hPa 0,0 l/m 5,7 km/h (1 Bft) SO 138 0 min 0,000 mm 0,0 UV-I 108 W/m 8,7 C 10,3 C 9,7 km/h (2 Bft) 100,00 %
24.10.2016 16:30 10,2 C 90 % 1016,2 hPa 0,0 l/m 9,1 km/h (2 Bft) O-SO 121 0 min 0,000 mm 0,0 UV-I 110 W/m 8,6 C 8,4 C 12,9 km/h (3 Bft) 100,00 %
24.10.2016 16:32 10,2 C 90 % 1016,2 hPa 0,0 l/m 8,1 km/h (2 Bft) O-SO 108 0 min 0,000 mm 0,0 UV-I 100 W/m 8,6 C 9,0 C 12,9 km/h (3 Bft) 100,00 %
24.10.2016 16:34 10,1 C 90 % 1016,3 hPa 0,0 l/m 7,5 km/h (2 Bft) O 82 0 min 0,000 mm 0,0 UV-I 98 W/m 8,5 C 9,3 C 11,3 km/h (2 Bft) 100,00 %
24.10.2016 16:36 10,0 C 90 % 1016,3 hPa 0,0 l/m 1,6 km/h (1 Bft) O 83 0 min 0,000 mm 0,0 UV-I 98 W/m 8,4 C 10,0 C 4,8 km/h (1 Bft) 97,37 %
24.10.2016 16:38 10,0 C 91 % 1016,3 hPa 0,0 l/m 4,0 km/h (1 Bft) O-NO 67 0 min 0,000 mm 0,0 UV-I 105 W/m 8,6 C 10,0 C 6,4 km/h (2 Bft) 100,00 %
24.10.2016 16:40 9,9 C 91 % 1016,3 hPa 0,0 l/m 3,6 km/h (1 Bft) O-NO 78 2 min 0,000 mm 0,0 UV-I 113 W/m 8,5 C 9,9 C 6,4 km/h (2 Bft) 100,00 %
24.10.2016 16:42 10,0 C 91 % 1016,3 hPa 0,0 l/m 1,0 km/h (0 Bft) O-NO 78 2 min 0,000 mm 0,0 UV-I 120 W/m 8,6 C 10,0 C 3,2 km/h (1 Bft) 97,87 %
24.10.2016 16:44 10,1 C 91 % 1016,4 hPa 0,0 l/m 4,6 km/h (1 Bft) O-NO 70 0 min 0,000 mm 0,0 UV-I 98 W/m 8,7 C 10,1 C 9,7 km/h (2 Bft) 100,00 %
24.10.2016 16:46 10,1 C 91 % 1016,4 hPa 0,0 l/m 4,7 km/h (1 Bft) NO 51 0 min 0,000 mm 0,0 UV-I 90 W/m 8,7 C 10,1 C 6,4 km/h (2 Bft) 100,00 %
24.10.2016 16:48 10,1 C 91 % 1016,4 hPa 0,0 l/m 5,3 km/h (1 Bft) O 80 0 min 0,000 mm 0,0 UV-I 86 W/m 8,7 C 10,1 C 8,0 km/h (2 Bft) 97,37 %
24.10.2016 16:50 10,1 C 91 % 1016,3 hPa 0,0 l/m 5,4 km/h (1 Bft) O-NO 76 0 min 0,000 mm 0,0 UV-I 82 W/m 8,7 C 10,1 C 11,3 km/h (2 Bft) 100,00 %
24.10.2016 16:52 10,1 C 91 % 1016,4 hPa 0,0 l/m 4,5 km/h (1 Bft) O-NO 76 0 min 0,000 mm 0,0 UV-I 76 W/m 8,7 C 10,1 C 6,4 km/h (2 Bft) 100,00 %
24.10.2016 16:54 10,1 C 91 % 1016,4 hPa 0,0 l/m 5,0 km/h (1 Bft) O-NO 69 0 min 0,000 mm 0,0 UV-I 70 W/m 8,7 C 10,1 C 6,4 km/h (2 Bft) 97,67 %
24.10.2016 16:56 10,1 C 91 % 1016,4 hPa 0,0 l/m 5,2 km/h (1 Bft) O-NO 72 0 min 0,000 mm 0,0 UV-I 65 W/m 8,7 C 10,1 C 8,0 km/h (2 Bft) 100,00 %
24.10.2016 16:58 10,1 C 91 % 1016,4 hPa 0,0 l/m 4,7 km/h (1 Bft) O-NO 69 0 min 0,000 mm 0,0 UV-I 61 W/m 8,7 C 10,1 C 6,4 km/h (2 Bft) 100,00 %
24.10.2016 17:00 10,0 C 91 % 1016,4 hPa 0,0 l/m 3,6 km/h (1 Bft) O-NO 65 0 min 0,051 mm 0,0 UV-I 57 W/m 8,6 C 10,0 C 6,4 km/h (2 Bft) 97,22 %
24.10.2016 17:02 9,9 C 91 % 1016,4 hPa 0,0 l/m 5,0 km/h (1 Bft) NO 56 0 min 0,000 mm 0,0 UV-I 53 W/m 8,5 C 9,9 C 6,4 km/h (2 Bft) 100,00 %
24.10.2016 17:04 10,0 C 91 % 1016,4 hPa 0,0 l/m 4,7 km/h (1 Bft) O-NO 61 0 min 0,000 mm 0,0 UV-I 49 W/m 8,6 C 10,0 C 6,4 km/h (2 Bft) 100,00 %
24.10.2016 17:06 9,9 C 91 % 1016,3 hPa 0,0 l/m 5,6 km/h (1 Bft) O-NO 68 0 min 0,000 mm 0,0 UV-I 47 W/m 8,5 C 9,9 C 8,0 km/h (2 Bft) 100,00 %
24.10.2016 17:08 9,9 C 92 % 1016,3 hPa 0,0 l/m 3,4 km/h (1 Bft) O-NO 71 0 min 0,000 mm 0,0 UV-I 46 W/m 8,7 C 9,9 C 6,4 km/h (2 Bft) 100,00 %
24.10.2016 17:10 9,8 C 92 % 1016,3 hPa 0,0 l/m 4,0 km/h (1 Bft) O-NO 72 0 min 0,000 mm 0,0 UV-I 46 W/m 8,6 C 9,8 C 4,8 km/h (1 Bft) 100,00 %
24.10.2016 17:12 9,8 C 92 % 1016,3 hPa 0,0 l/m 2,4 km/h (1 Bft) O-NO 72 0 min 0,000 mm 0,0 UV-I 46 W/m 8,6 C 9,8 C 3,2 km/h (1 Bft) 100,00 %
24.10.2016 17:14 9,8 C 92 % 1016,4 hPa 0,0 l/m 1,4 km/h (1 Bft) O-NO 72 0 min 0,000 mm 0,0 UV-I 43 W/m 8,6 C 9,8 C 3,2 km/h (1 Bft) 100,00 %
24.10.2016 17:16 9,8 C 92 % 1016,3 hPa 0,0 l/m 2,3 km/h (1 Bft) O-NO 72 0 min 0,000 mm 0,0 UV-I 41 W/m 8,6 C 9,8 C 4,8 km/h (1 Bft) 100,00 %
24.10.2016 17:18 9,7 C 92 % 1016,4 hPa 0,0 l/m 1,8 km/h (1 Bft) O-NO 72 0 min 0,000 mm 0,0 UV-I 39 W/m 8,5 C 9,7 C 3,2 km/h (1 Bft) 100,00 %
24.10.2016 17:20 9,7 C 92 % 1016,3 hPa 0,0 l/m 2,9 km/h (1 Bft) O-NO 72 0 min 0,000 mm 0,0 UV-I 36 W/m 8,5 C 9,7 C 4,8 km/h (1 Bft) 100,00 %
24.10.2016 17:22 9,7 C 93 % 1016,3 hPa 0,0 l/m 2,7 km/h (1 Bft) O-NO 72 0 min 0,000 mm 0,0 UV-I 33 W/m 8,6 C 9,7 C 4,8 km/h (1 Bft) 100,00 %
24.10.2016 17:24 9,6 C 93 % 1016,3 hPa 0,0 l/m 1,6 km/h (1 Bft) O-NO 72 0 min 0,000 mm 0,0 UV-I 30 W/m 8,5 C 9,6 C 3,2 km/h (1 Bft) 100,00 %
24.10.2016 17:26 9,6 C 93 % 1016,3 hPa 0,0 l/m 1,4 km/h (1 Bft) O-NO 72 0 min 0,000 mm 0,0 UV-I 26 W/m 8,5 C 9,6 C 4,8 km/h (1 Bft) 100,00 %
24.10.2016 17:28 9,6 C 93 % 1016,3 hPa 0,0 l/m 3,8 km/h (1 Bft) NO 49 0 min 0,000 mm 0,0 UV-I 24 W/m 8,5 C 9,6 C 6,4 km/h (2 Bft) 97,73 %
24.10.2016 17:30 9,6 C 93 % 1016,3 hPa 0,0 l/m 3,9 km/h (1 Bft) NO 55 0 min 0,000 mm 0,0 UV-I 21 W/m 8,5 C 9,6 C 6,4 km/h (2 Bft) 97,87 %
24.10.2016 17:32 9,5 C 93 % 1016,1 hPa 0,0 l/m 5,8 km/h (2 Bft) O-NO 71 0 min 0,000 mm 0,0 UV-I 19 W/m 8,4 C 9,5 C 11,3 km/h (2 Bft) 97,87 %
24.10.2016 17:34 9,5 C 93 % 1016,1 hPa 0,0 l/m 7,9 km/h (2 Bft) O-NO 67 0 min 0,000 mm 0,0 UV-I 18 W/m 8,4 C 8,4 C 12,9 km/h (3 Bft) 98,11 %
24.10.2016 17:36 9,6 C 93 % 1016,0 hPa 0,0 l/m 9,7 km/h (2 Bft) O-NO 71 0 min 0,000 mm 0,0 UV-I 16 W/m 8,5 C 7,3 C 14,5 km/h (3 Bft) 97,62 %
24.10.2016 17:38 9,6 C 93 % 1015,9 hPa 0,0 l/m 10,1 km/h (2 Bft) O-NO 65 0 min 0,000 mm 0,0 UV-I 15 W/m 8,5 C 7,1 C 16,1 km/h (3 Bft) 98,00 %
24.10.2016 17:40 9,7 C 93 % 1016,1 hPa 0,0 l/m 8,9 km/h (2 Bft) O-NO 74 0 min 0,000 mm 0,0 UV-I 14 W/m 8,6 C 7,9 C 14,5 km/h (3 Bft) 98,00 %
24.10.2016 17:42 9,7 C 93 % 1016,1 hPa 0,0 l/m 7,3 km/h (2 Bft) NO 53 0 min 0,000 mm 0,0 UV-I 14 W/m 8,6 C 9,0 C 11,3 km/h (2 Bft) 97,37 %
24.10.2016 17:44 9,7 C 92 % 1016,1 hPa 0,0 l/m 11,6 km/h (2 Bft) O-NO 59 0 min 0,000 mm 0,0 UV-I 12 W/m 8,5 C 6,4 C 16,1 km/h (3 Bft) 94,00 %
24.10.2016 17:46 9,8 C 92 % 1016,1 hPa 0,0 l/m 12,5 km/h (3 Bft) O-NO 66 2 min 0,000 mm 0,0 UV-I 12 W/m 8,6 C 6,0 C 19,3 km/h (3 Bft) 97,87 %
24.10.2016 17:48 9,8 C 92 % 1016,0 hPa 0,0 l/m 12,8 km/h (3 Bft) O-NO 60 0 min 0,000 mm 0,0 UV-I 11 W/m 8,6 C 5,9 C 19,3 km/h (3 Bft) 97,73 %
24.10.2016 17:50 9,8 C 92 % 1016,1 hPa 0,0 l/m 13,2 km/h (3 Bft) O-NO 60 0 min 0,000 mm 0,0 UV-I 9 W/m 8,6 C 5,7 C 17,7 km/h (3 Bft) 98,21 %
24.10.2016 17:52 9,7 C 92 % 1016,1 hPa 0,0 l/m 17,3 km/h (3 Bft) O-NO 58 0 min 0,000 mm 0,0 UV-I 7 W/m 8,5 C 3,9 C 22,5 km/h (4 Bft) 97,14 %
24.10.2016 17:54 9,7 C 91 % 1016,1 hPa 0,0 l/m 17,1 km/h (3 Bft) NO 51 0 min 0,000 mm 0,0 UV-I 7 W/m 8,3 C 3,9 C 22,5 km/h (4 Bft) 98,31 %
24.10.2016 17:56 9,6 C 91 % 1016,1 hPa 0,0 l/m 14,2 km/h (3 Bft) NO 50 0 min 0,000 mm 0,0 UV-I 6 W/m 8,2 C 5,0 C 20,9 km/h (4 Bft) 97,56 %
24.10.2016 17:58 9,6 C 92 % 1016,2 hPa 0,0 l/m 15,1 km/h (3 Bft) O-NO 58 0 min 0,000 mm 0,0 UV-I 5 W/m 8,4 C 4,6 C 19,3 km/h (3 Bft) 96,23 %
24.10.2016 18:00 9,4 C 92 % 1016,2 hPa 0,0 l/m 12,6 km/h (3 Bft) O-NO 58 0 min 0,025 mm 0,0 UV-I 5 W/m 8,2 C 5,5 C 17,7 km/h (3 Bft) 97,56 %
24.10.2016 18:02 9,4 C 92 % 1016,2 hPa 0,0 l/m 13,5 km/h (3 Bft) O-NO 69 0 min 0,000 mm 0,0 UV-I 5 W/m 8,2 C 5,1 C 22,5 km/h (4 Bft) 100,00 %
24.10.2016 18:04 9,3 C 92 % 1016,2 hPa 0,0 l/m 16,1 km/h (3 Bft) O 80 0 min 0,000 mm 0,0 UV-I 5 W/m 8,1 C 3,8 C 22,5 km/h (4 Bft) 100,00 %
24.10.2016 18:06 9,2 C 92 % 1016,1 hPa 0,0 l/m 16,4 km/h (3 Bft) O 84 0 min 0,000 mm 0,0 UV-I 5 W/m 8,0 C 3,6 C 22,5 km/h (4 Bft) 100,00 %
24.10.2016 18:08 9,1 C 92 % 1016,1 hPa 0,0 l/m 13,5 km/h (3 Bft) O-NO 76 0 min 0,000 mm 0,0 UV-I 1 W/m 7,9 C 4,7 C 17,7 km/h (3 Bft) 100,00 %
24.10.2016 18:10 9,1 C 92 % 1016,2 hPa 0,0 l/m 11,2 km/h (2 Bft) O 79 0 min 0,000 mm 0,0 UV-I 0 W/m 7,9 C 5,9 C 16,1 km/h (3 Bft) 95,45 %
24.10.2016 18:12 9,0 C 93 % 1016,3 hPa 0,0 l/m 16,2 km/h (3 Bft) O-SO 110 0 min 0,000 mm 0,0 UV-I 0 W/m 7,9 C 3,4 C 24,1 km/h (4 Bft) 95,24 %
24.10.2016 18:14 8,9 C 93 % 1016,2 hPa 0,0 l/m 15,8 km/h (3 Bft) O-NO 74 0 min 0,000 mm 0,0 UV-I 0 W/m 7,8 C 3,5 C 20,9 km/h (4 Bft) 100,00 %
24.10.2016 18:16 8,8 C 93 % 1016,2 hPa 0,0 l/m 15,2 km/h (3 Bft) O-NO 63 0 min 0,000 mm 0,0 UV-I 0 W/m 7,7 C 3,6 C 17,7 km/h (3 Bft) 97,56 %
24.10.2016 18:18 8,8 C 93 % 1016,2 hPa 0,0 l/m 15,6 km/h (3 Bft) O-NO 72 0 min 0,000 mm 0,0 UV-I 0 W/m 7,7 C 3,4 C 20,9 km/h (4 Bft) 100,00 %
24.10.2016 18:20 8,7 C 93 % 1016,3 hPa 0,0 l/m 16,1 km/h (3 Bft) O 80 0 min 0,000 mm 0,0 UV-I 0 W/m 7,6 C 3,1 C 22,5 km/h (4 Bft) 100,00 %
24.10.2016 18:22 8,7 C 93 % 1016,3 hPa 0,0 l/m 12,8 km/h (3 Bft) O-NO 74 0 min 0,000 mm 0,0 UV-I 0 W/m 7,6 C 4,6 C 19,3 km/h (3 Bft) 97,73 %
24.10.2016 18:24 8,6 C 93 % 1016,3 hPa 0,0 l/m 10,4 km/h (2 Bft) O 80 0 min 0,000 mm 0,0 UV-I 0 W/m 7,5 C 5,8 C 17,7 km/h (3 Bft) 100,00 %
24.10.2016 18:26 8,6 C 94 % 1016,3 hPa 0,0 l/m 11,4 km/h (2 Bft) NO 46 0 min 0,000 mm 0,0 UV-I 0 W/m 7,7 C 5,2 C 16,1 km/h (3 Bft) 100,00 %
24.10.2016 18:28 8,5 C 94 % 1016,2 hPa 0,0 l/m 13,8 km/h (3 Bft) O-NO 69 0 min 0,000 mm 0,0 UV-I 0 W/m 7,6 C 3,9 C 19,3 km/h (3 Bft) 100,00 %
24.10.2016 18:30 8,4 C 94 % 1016,2 hPa 0,0 l/m 13,9 km/h (3 Bft) O-NO 58 0 min 0,000 mm 0,0 UV-I 0 W/m 7,5 C 3,7 C 17,7 km/h (3 Bft) 100,00 %
24.10.2016 18:32 8,4 C 94 % 1016,2 hPa 0,0 l/m 11,6 km/h (2 Bft) NO 55 0 min 0,000 mm 0,0 UV-I 0 W/m 7,5 C 4,9 C 17,7 km/h (3 Bft) 100,00 %
24.10.2016 18:34 8,4 C 94 % 1016,2 hPa 0,0 l/m 11,0 km/h (2 Bft) O-NO 74 0 min 0,000 mm 0,0 UV-I 0 W/m 7,5 C 5,2 C 16,1 km/h (3 Bft) 100,00 %
24.10.2016 18:36 8,4 C 94 % 1016,2 hPa 0,0 l/m 12,2 km/h (2 Bft) NO 54 0 min 0,000 mm 0,0 UV-I 0 W/m 7,5 C 4,6 C 17,7 km/h (3 Bft) 100,00 %
24.10.2016 18:38 8,4 C 94 % 1016,2 hPa 0,0 l/m 11,8 km/h (2 Bft) O 93 0 min 0,000 mm 0,0 UV-I 0 W/m 7,5 C 4,8 C 19,3 km/h (3 Bft) 98,11 %
24.10.2016 18:40 8,4 C 94 % 1016,2 hPa 0,0 l/m 14,2 km/h (3 Bft) NO 51 0 min 0,000 mm 0,0 UV-I 0 W/m 7,5 C 3,6 C 20,9 km/h (4 Bft) 100,00 %
24.10.2016 18:42 8,4 C 95 % 1016,2 hPa 0,0 l/m 12,2 km/h (2 Bft) O-NO 65 0 min 0,000 mm 0,0 UV-I 0 W/m 7,6 C 4,6 C 17,7 km/h (3 Bft) 100,00 %
24.10.2016 18:44 8,4 C 95 % 1016,3 hPa 0,0 l/m 12,7 km/h (3 Bft) O-NO 76 0 min 0,000 mm 0,0 UV-I 0 W/m 7,6 C 4,3 C 17,7 km/h (3 Bft) 100,00 %
24.10.2016 18:46 8,3 C 95 % 1016,4 hPa 0,0 l/m 13,8 km/h (3 Bft) O 82 0 min 0,000 mm 0,0 UV-I 0 W/m 7,5 C 3,6 C 20,9 km/h (4 Bft) 100,00 %
24.10.2016 18:48 8,3 C 95 % 1016,4 hPa 0,0 l/m 11,8 km/h (2 Bft) O-NO 57 0 min 0,000 mm 0,0 UV-I 0 W/m 7,5 C 4,7 C 16,1 km/h (3 Bft) 100,00 %
24.10.2016 18:50 8,3 C 95 % 1016,4 hPa 0,0 l/m 9,1 km/h (2 Bft) O-NO 63 0 min 0,000 mm 0,0 UV-I 0 W/m 7,5 C 6,3 C 12,9 km/h (3 Bft) 100,00 %
24.10.2016 18:52 8,3 C 95 % 1016,4 hPa 0,0 l/m 9,1 km/h (2 Bft) NO 44 0 min 0,000 mm 0,0 UV-I 0 W/m 7,5 C 6,3 C 16,1 km/h (3 Bft) 100,00 %
24.10.2016 18:54 8,3 C 95 % 1016,4 hPa 0,0 l/m 13,2 km/h (3 Bft) NO 52 0 min 0,000 mm 0,0 UV-I 0 W/m 7,5 C 3,9 C 16,1 km/h (3 Bft) 98,18 %
24.10.2016 18:56 8,3 C 95 % 1016,3 hPa 0,0 l/m 11,3 km/h (2 Bft) O-NO 60 0 min 0,000 mm 0,0 UV-I 0 W/m 7,5 C 4,9 C 17,7 km/h (3 Bft) 97,62 %
24.10.2016 18:58 8,3 C 95 % 1016,4 hPa 0,0 l/m 11,2 km/h (2 Bft) NO 54 0 min 0,000 mm 0,0 UV-I 0 W/m 7,5 C 5,0 C 17,7 km/h (3 Bft) 100,00 %
24.10.2016 19:00 8,3 C 95 % 1016,4 hPa 0,0 l/m 9,5 km/h (2 Bft) O-NO 78 0 min 0,000 mm 0,0 UV-I 0 W/m 7,5 C 6,0 C 16,1 km/h (3 Bft) 100,00 %
24.10.2016 19:02 8,2 C 95 % 1016,3 hPa 0,0 l/m 11,3 km/h (2 Bft) O-NO 58 0 min 0,000 mm 0,0 UV-I 0 W/m 7,4 C 4,8 C 17,7 km/h (3 Bft) 97,56 %
24.10.2016 19:04 8,2 C 95 % 1016,3 hPa 0,0 l/m 14,7 km/h (3 Bft) NO 56 0 min 0,000 mm 0,0 UV-I 0 W/m 7,4 C 3,1 C 19,3 km/h (3 Bft) 100,00 %
24.10.2016 19:06 8,2 C 95 % 1016,3 hPa 0,0 l/m 14,4 km/h (3 Bft) O-NO 61 0 min 0,000 mm 0,0 UV-I 0 W/m 7,4 C 3,2 C 22,5 km/h (4 Bft) 100,00 %
24.10.2016 19:08 8,2 C 95 % 1016,4 hPa 0,0 l/m 13,8 km/h (3 Bft) O-NO 62 0 min 0,000 mm 0,0 UV-I 0 W/m 7,4 C 3,5 C 19,3 km/h (3 Bft) 97,37 %
24.10.2016 19:10 8,2 C 95 % 1016,4 hPa 0,0 l/m 15,5 km/h (3 Bft) O-NO 77 0 min 0,000 mm 0,0 UV-I 0 W/m 7,4 C 2,7 C 19,3 km/h (3 Bft) 100,00 %
24.10.2016 19:12 8,1 C 95 % 1016,4 hPa 0,0 l/m 16,7 km/h (3 Bft) NO 53 0 min 0,000 mm 0,0 UV-I 0 W/m 7,3 C 2,1 C 22,5 km/h (4 Bft) 100,00 %
24.10.2016 19:14 8,1 C 95 % 1016,5 hPa 0,0 l/m 9,2 km/h (2 Bft) NO 36 0 min 0,000 mm 0,0 UV-I 0 W/m 7,3 C 6,0 C 14,5 km/h (3 Bft) 95,74 %
24.10.2016 19:16 8,1 C 96 % 1016,5 hPa 0,0 l/m 10,4 km/h (2 Bft) NO 46 0 min 0,000 mm 0,0 UV-I 0 W/m 7,5 C 5,2 C 16,1 km/h (3 Bft) 100,00 %
24.10.2016 19:18 8,1 C 95 % 1016,6 hPa 0,0 l/m 15,6 km/h (3 Bft) O-NO 64 0 min 0,000 mm 0,0 UV-I 0 W/m 7,3 C 2,6 C 22,5 km/h (4 Bft) 100,00 %
24.10.2016 19:20 8,1 C 95 % 1016,6 hPa 0,0 l/m 13,0 km/h (3 Bft) O-NO 72 0 min 0,000 mm 0,0 UV-I 0 W/m 7,3 C 3,8 C 20,9 km/h (4 Bft) 100,00 %
24.10.2016 19:22 8,0 C 96 % 1016,6 hPa 0,0 l/m 7,7 km/h (2 Bft) O-NO 60 0 min 0,000 mm 0,0 UV-I 0 W/m 7,4 C 7,0 C 12,9 km/h (3 Bft) 100,00 %
24.10.2016 19:24 8,0 C 96 % 1016,6 hPa 0,0 l/m 7,9 km/h (2 Bft) NO 48 0 min 0,000 mm 0,0 UV-I 0 W/m 7,4 C 6,8 C 12,9 km/h (3 Bft) 100,00 %
24.10.2016 19:26 8,0 C 96 % 1016,7 hPa 0,0 l/m 13,7 km/h (3 Bft) O-NO 67 0 min 0,000 mm 0,0 UV-I 0 W/m 7,4 C 3,3 C 19,3 km/h (3 Bft) 94,00 %
24.10.2016 19:28 7,9 C 96 % 1016,6 hPa 0,0 l/m 9,8 km/h (2 Bft) NO 39 0 min 0,000 mm 0,0 UV-I 0 W/m 7,3 C 5,4 C 16,1 km/h (3 Bft) 100,00 %
24.10.2016 19:30 8,0 C 96 % 1016,6 hPa 0,0 l/m 11,1 km/h (2 Bft) O-NO 76 0 min 0,000 mm 0,0 UV-I 0 W/m 7,4 C 4,7 C 16,1 km/h (3 Bft) 100,00 %
24.10.2016 19:32 7,9 C 96 % 1016,5 hPa 0,0 l/m 11,5 km/h (2 Bft) O-NO 70 0 min 0,000 mm 0,0 UV-I 0 W/m 7,3 C 4,4 C 16,1 km/h (3 Bft) 100,00 %
24.10.2016 19:34 7,9 C 96 % 1016,5 hPa 0,0 l/m 9,7 km/h (2 Bft) O-NO 57 0 min 0,000 mm 0,0 UV-I 0 W/m 7,3 C 5,5 C 12,9 km/h (3 Bft) 95,71 %
24.10.2016 19:36 7,9 C 96 % 1016,6 hPa 0,0 l/m 7,3 km/h (2 Bft) NO 55 0 min 0,000 mm 0,0 UV-I 0 W/m 7,3 C 7,2 C 9,7 km/h (2 Bft) 97,62 %
24.10.2016 19:38 7,9 C 96 % 1016,6 hPa 0,0 l/m 9,2 km/h (2 Bft) O-NO 59 0 min 0,000 mm 0,0 UV-I 0 W/m 7,3 C 5,8 C 14,5 km/h (3 Bft) 98,08 %
24.10.2016 19:40 7,9 C 96 % 1016,6 hPa 0,0 l/m 10,7 km/h (2 Bft) O-NO 65 0 min 0,000 mm 0,0 UV-I 0 W/m 7,3 C 4,8 C 16,1 km/h (3 Bft) 94,87 %
24.10.2016 19:42 7,9 C 96 % 1016,6 hPa 0,0 l/m 13,5 km/h (3 Bft) O-NO 71 0 min 0,000 mm 0,0 UV-I 0 W/m 7,3 C 3,3 C 19,3 km/h (3 Bft) 98,00 %
24.10.2016 19:44 7,9 C 96 % 1016,5 hPa 0,0 l/m 12,5 km/h (3 Bft) O-NO 77 0 min 0,000 mm 0,0 UV-I 0 W/m 7,3 C 3,8 C 19,3 km/h (3 Bft) 95,12 %
24.10.2016 19:46 7,9 C 96 % 1016,6 hPa 0,0 l/m 9,6 km/h (2 Bft) O-NO 69 0 min 0,000 mm 0,0 UV-I 0 W/m 7,3 C 5,5 C 14,5 km/h (3 Bft) 96,23 %
24.10.2016 19:48 7,9 C 96 % 1016,5 hPa 0,0 l/m 11,9 km/h (2 Bft) NO 52 0 min 0,000 mm 0,0 UV-I 0 W/m 7,3 C 4,2 C 17,7 km/h (3 Bft) 97,87 %
24.10.2016 19:50 7,9 C 96 % 1016,5 hPa 0,0 l/m 12,4 km/h (3 Bft) NO 47 0 min 0,000 mm 0,0 UV-I 0 W/m 7,3 C 3,9 C 19,3 km/h (3 Bft) 97,56 %
24.10.2016 19:52 7,9 C 97 % 1016,5 hPa 0,0 l/m 14,2 km/h (3 Bft) NO 56 0 min 0,000 mm 0,0 UV-I 0 W/m 7,5 C 3,0 C 20,9 km/h (4 Bft) 98,21 %
24.10.2016 19:54 7,9 C 96 % 1016,6 hPa 0,0 l/m 11,9 km/h (2 Bft) NO 48 0 min 0,000 mm 0,0 UV-I 0 W/m 7,3 C 4,2 C 17,7 km/h (3 Bft) 98,00 %
24.10.2016 19:56 7,9 C 96 % 1016,6 hPa 0,0 l/m 12,3 km/h (3 Bft) NO 51 0 min 0,000 mm 0,0 UV-I 0 W/m 7,3 C 3,9 C 17,7 km/h (3 Bft) 97,87 %
24.10.2016 19:58 7,9 C 96 % 1016,5 hPa 0,0 l/m 10,9 km/h (2 Bft) O-NO 64 0 min 0,000 mm 0,0 UV-I 0 W/m 7,3 C 4,7 C 14,5 km/h (3 Bft) 97,37 %
24.10.2016 20:00 7,9 C 96 % 1016,5 hPa 0,0 l/m 15,2 km/h (3 Bft) O-NO 71 0 min 0,000 mm 0,0 UV-I 0 W/m 7,3 C 2,5 C 19,3 km/h (3 Bft) 98,00 %
24.10.2016 20:02 7,9 C 96 % 1016,5 hPa 0,0 l/m 14,4 km/h (3 Bft) O-NO 71 0 min 0,000 mm 0,0 UV-I 0 W/m 7,3 C 2,9 C 19,3 km/h (3 Bft) 92,00 %
24.10.2016 20:04 7,9 C 96 % 1016,5 hPa 0,0 l/m 12,0 km/h (2 Bft) O 87 0 min 0,000 mm 0,0 UV-I 0 W/m 7,3 C 4,1 C 19,3 km/h (3 Bft) 92,11 %
24.10.2016 20:06 7,9 C 97 % 1016,6 hPa 0,0 l/m 8,8 km/h (2 Bft) O-NO 63 0 min 0,000 mm 0,0 UV-I 0 W/m 7,5 C 6,1 C 14,5 km/h (3 Bft) 98,11 %
24.10.2016 20:08 7,9 C 97 % 1016,6 hPa 0,0 l/m 10,5 km/h (2 Bft) O-NO 65 0 min 0,000 mm 0,0 UV-I 0 W/m 7,5 C 5,0 C 14,5 km/h (3 Bft) 97,56 %
24.10.2016 20:10 7,9 C 97 % 1016,6 hPa 0,0 l/m 10,5 km/h (2 Bft) NO 56 0 min 0,000 mm 0,0 UV-I 0 W/m 7,5 C 5,0 C 16,1 km/h (3 Bft) 96,00 %
24.10.2016 20:12 7,9 C 97 % 1016,6 hPa 0,0 l/m 12,4 km/h (3 Bft) O-NO 72 0 min 0,000 mm 0,0 UV-I 0 W/m 7,5 C 3,9 C 17,7 km/h (3 Bft) 100,00 %
24.10.2016 20:14 7,9 C 97 % 1016,6 hPa 0,0 l/m 11,7 km/h (2 Bft) O-NO 63 0 min 0,000 mm 0,0 UV-I 0 W/m 7,5 C 4,3 C 17,7 km/h (3 Bft) 100,00 %
24.10.2016 20:16 7,9 C 97 % 1016,6 hPa 0,0 l/m 12,5 km/h (3 Bft) NO 55 0 min 0,000 mm 0,0 UV-I 0 W/m 7,5 C 3,8 C 17,7 km/h (3 Bft) 97,92 %
24.10.2016 20:18 7,9 C 97 % 1016,6 hPa 0,0 l/m 9,9 km/h (2 Bft) O 88 0 min 0,000 mm 0,0 UV-I 0 W/m 7,5 C 5,3 C 16,1 km/h (3 Bft) 100,00 %
24.10.2016 20:20 7,9 C 97 % 1016,6 hPa 0,0 l/m 9,2 km/h (2 Bft) O-NO 77 0 min 0,000 mm 0,0 UV-I 0 W/m 7,5 C 5,8 C 14,5 km/h (3 Bft) 100,00 %
24.10.2016 20:22 7,9 C 97 % 1016,6 hPa 0,0 l/m 9,1 km/h (2 Bft) O-NO 65 0 min 0,000 mm 0,0 UV-I 0 W/m 7,5 C 5,9 C 12,9 km/h (3 Bft) 100,00 %
24.10.2016 20:25 7,9 C 97 % 1016,6 hPa 0,0 l/m 6,9 km/h (2 Bft) O-NO 64 0 min 0,000 mm 0,0 UV-I 0 W/m 7,5 C 7,5 C 12,9 km/h (3 Bft) 98,68 %
24.10.2016 20:26 7,9 C 97 % 1016,6 hPa 0,0 l/m 6,4 km/h (2 Bft) O-NO 74 0 min 0,000 mm 0,0 UV-I 0 W/m 7,5 C 7,9 C 8,0 km/h (2 Bft) 100,00 %
24.10.2016 20:28 7,9 C 97 % 1016,6 hPa 0,0 l/m 7,9 km/h (2 Bft) O-NO 58 0 min 0,000 mm 0,0 UV-I 0 W/m 7,5 C 6,7 C 12,9 km/h (3 Bft) 100,00 %
24.10.2016 20:30 7,9 C 97 % 1016,6 hPa 0,0 l/m 8,9 km/h (2 Bft) O-NO 65 0 min 0,000 mm 0,0 UV-I 0 W/m 7,5 C 6,0 C 16,1 km/h (3 Bft) 100,00 %
24.10.2016 20:32 7,9 C 97 % 1016,6 hPa 0,0 l/m 11,5 km/h (2 Bft) O-NO 69 0 min 0,000 mm 0,0 UV-I 0 W/m 7,5 C 4,4 C 17,7 km/h (3 Bft) 100,00 %
24.10.2016 20:34 7,9 C 97 % 1016,6 hPa 0,0 l/m 9,4 km/h (2 Bft) O-NO 62 0 min 0,000 mm 0,0 UV-I 0 W/m 7,5 C 5,7 C 14,5 km/h (3 Bft) 98,11 %
24.10.2016 20:36 7,9 C 97 % 1016,6 hPa 0,0 l/m 10,9 km/h (2 Bft) O-NO 67 0 min 0,000 mm 0,0 UV-I 0 W/m 7,5 C 4,7 C 16,1 km/h (3 Bft) 100,00 %
24.10.2016 20:38 7,9 C 97 % 1016,6 hPa 0,0 l/m 10,0 km/h (2 Bft) O-NO 65 0 min 0,000 mm 0,0 UV-I 0 W/m 7,5 C 5,3 C 16,1 km/h (3 Bft) 100,00 %
24.10.2016 20:40 7,9 C 97 % 1016,6 hPa 0,0 l/m 10,6 km/h (2 Bft) NO 44 0 min 0,000 mm 0,0 UV-I 0 W/m 7,5 C 4,9 C 16,1 km/h (3 Bft) 100,00 %
24.10.2016 20:42 7,9 C 97 % 1016,5 hPa 0,0 l/m 8,8 km/h (2 Bft) O-NO 61 0 min 0,000 mm 0,0 UV-I 0 W/m 7,5 C 6,1 C 12,9 km/h (3 Bft) 100,00 %
24.10.2016 20:44 7,9 C 97 % 1016,5 hPa 0,0 l/m 9,4 km/h (2 Bft) O-NO 57 0 min 0,000 mm 0,0 UV-I 0 W/m 7,5 C 5,7 C 16,1 km/h (3 Bft) 100,00 %
24.10.2016 20:46 7,9 C 97 % 1016,5 hPa 0,0 l/m 10,6 km/h (2 Bft) O-NO 65 0 min 0,000 mm 0,0 UV-I 0 W/m 7,5 C 4,9 C 17,7 km/h (3 Bft) 100,00 %
24.10.2016 20:48 7,9 C 97 % 1016,5 hPa 0,0 l/m 12,2 km/h (2 Bft) O-NO 71 0 min 0,000 mm 0,0 UV-I 0 W/m 7,5 C 4,0 C 17,7 km/h (3 Bft) 98,57 %
24.10.2016 20:50 7,9 C 97 % 1016,5 hPa 0,0 l/m 11,4 km/h (2 Bft) O-NO 76 0 min 0,000 mm 0,0 UV-I 0 W/m 7,5 C 4,4 C 16,1 km/h (3 Bft) 100,00 %
24.10.2016 20:52 7,9 C 97 % 1016,5 hPa 0,0 l/m 11,9 km/h (2 Bft) O-NO 64 0 min 0,000 mm 0,0 UV-I 0 W/m 7,5 C 4,2 C 16,1 km/h (3 Bft) 100,00 %
24.10.2016 20:54 7,9 C 97 % 1016,4 hPa 0,0 l/m 11,7 km/h (2 Bft) O-NO 67 0 min 0,000 mm 0,0 UV-I 0 W/m 7,5 C 4,3 C 20,9 km/h (4 Bft) 97,62 %
24.10.2016 20:56 7,9 C 97 % 1016,4 hPa 0,0 l/m 15,3 km/h (3 Bft) O 86 0 min 0,000 mm 0,0 UV-I 0 W/m 7,5 C 2,5 C 20,9 km/h (4 Bft) 100,00 %
24.10.2016 20:58 7,8 C 97 % 1016,4 hPa 0,0 l/m 13,1 km/h (3 Bft) O 86 0 min 0,000 mm 0,0 UV-I 0 W/m 7,4 C 3,4 C 19,3 km/h (3 Bft) 100,00 %
24.10.2016 21:00 7,8 C 97 % 1016,4 hPa 0,0 l/m 9,4 km/h (2 Bft) O-NO 59 0 min 0,000 mm 0,0 UV-I 0 W/m 7,4 C 5,6 C 16,1 km/h (3 Bft) 100,00 %
24.10.2016 21:02 7,8 C 97 % 1016,4 hPa 0,0 l/m 10,9 km/h (2 Bft) O-NO 78 0 min 0,000 mm 0,0 UV-I 0 W/m 7,4 C 4,6 C 17,7 km/h (3 Bft) 100,00 %
24.10.2016 21:04 7,8 C 97 % 1016,4 hPa 0,0 l/m 11,9 km/h (2 Bft) O 80 0 min 0,000 mm 0,0 UV-I 0 W/m 7,4 C 4,0 C 16,1 km/h (3 Bft) 100,00 %
24.10.2016 21:06 7,8 C 97 % 1016,4 hPa 0,0 l/m 13,9 km/h (3 Bft) O-NO 69 0 min 0,000 mm 0,0 UV-I 0 W/m 7,4 C 3,0 C 17,7 km/h (3 Bft) 98,00 %
24.10.2016 21:08 7,8 C 97 % 1016,3 hPa 0,0 l/m 13,4 km/h (3 Bft) O 80 0 min 0,000 mm 0,0 UV-I 0 W/m 7,4 C 3,2 C 17,7 km/h (3 Bft) 97,73 %
24.10.2016 21:10 7,8 C 97 % 1016,3 hPa 0,0 l/m 11,2 km/h (2 Bft) O-NO 78 0 min 0,000 mm 0,0 UV-I 0 W/m 7,4 C 4,4 C 19,3 km/h (3 Bft) 100,00 %
24.10.2016 21:12 7,8 C 97 % 1016,3 hPa 0,0 l/m 11,2 km/h (2 Bft) O-NO 66 0 min 0,000 mm 0,0 UV-I 0 W/m 7,4 C 4,4 C 16,1 km/h (3 Bft) 100,00 %
24.10.2016 21:14 7,8 C 97 % 1016,4 hPa 0,0 l/m 9,5 km/h (2 Bft) O-SO 107 0 min 0,000 mm 0,0 UV-I 0 W/m 7,4 C 5,5 C 14,5 km/h (3 Bft) 100,00 %
24.10.2016 21:16 7,8 C 97 % 1016,5 hPa 0,0 l/m 7,3 km/h (2 Bft) O 80 0 min 0,000 mm 0,0 UV-I 0 W/m 7,4 C 7,1 C 11,3 km/h (2 Bft) 100,00 %
24.10.2016 21:18 7,8 C 97 % 1016,5 hPa 0,0 l/m 11,5 km/h (2 Bft) O-NO 75 0 min 0,000 mm 0,0 UV-I 0 W/m 7,4 C 4,3 C 16,1 km/h (3 Bft) 100,00 %
24.10.2016 21:20 7,8 C 97 % 1016,5 hPa 0,0 l/m 10,4 km/h (2 Bft) O-NO 70 0 min 0,000 mm 0,0 UV-I 0 W/m 7,4 C 4,9 C 14,5 km/h (3 Bft) 100,00 %
24.10.2016 21:22 7,8 C 97 % 1016,6 hPa 0,0 l/m 9,4 km/h (2 Bft) O-NO 78 0 min 0,000 mm 0,0 UV-I 0 W/m 7,4 C 5,6 C 16,1 km/h (3 Bft) 100,00 %
24.10.2016 21:24 7,8 C 97 % 1016,5 hPa 0,0 l/m 9,3 km/h (2 Bft) O 94 0 min 0,000 mm 0,0 UV-I 0 W/m 7,4 C 5,6 C 14,5 km/h (3 Bft) 98,00 %
24.10.2016 21:26 7,8 C 97 % 1016,5 hPa 0,0 l/m 7,3 km/h (2 Bft) O-NO 68 0 min 0,000 mm 0,0 UV-I 0 W/m 7,4 C 7,1 C 12,9 km/h (3 Bft) 100,00 %
24.10.2016 21:28 7,8 C 97 % 1016,4 hPa 0,0 l/m 9,7 km/h (2 Bft) O 92 0 min 0,000 mm 0,0 UV-I 0 W/m 7,4 C 5,4 C 12,9 km/h (3 Bft) 100,00 %
24.10.2016 21:30 7,8 C 97 % 1016,4 hPa 0,0 l/m 13,7 km/h (3 Bft) O-NO 59 0 min 0,000 mm 0,0 UV-I 0 W/m 7,4 C 3,1 C 19,3 km/h (3 Bft) 97,73 %
24.10.2016 21:32 7,8 C 97 % 1016,4 hPa 0,0 l/m 9,8 km/h (2 Bft) O 92 0 min 0,000 mm 0,0 UV-I 0 W/m 7,4 C 5,3 C 14,5 km/h (3 Bft) 100,00 %
24.10.2016 21:34 7,8 C 98 % 1016,4 hPa 0,0 l/m 9,2 km/h (2 Bft) O-NO 76 0 min 0,000 mm 0,0 UV-I 0 W/m 7,5 C 5,7 C 14,5 km/h (3 Bft) 97,62 %
24.10.2016 21:36 7,8 C 98 % 1016,4 hPa 0,0 l/m 9,2 km/h (2 Bft) O-NO 59 0 min 0,000 mm 0,0 UV-I 0 W/m 7,5 C 5,7 C 12,9 km/h (3 Bft) 96,15 %
24.10.2016 21:38 7,8 C 98 % 1016,5 hPa 0,0 l/m 7,3 km/h (2 Bft) O 86 0 min 0,000 mm 0,0 UV-I 0 W/m 7,5 C 7,1 C 11,3 km/h (2 Bft) 97,44 %
24.10.2016 21:40 7,8 C 98 % 1016,5 hPa 0,0 l/m 6,8 km/h (2 Bft) O-NO 66 0 min 0,000 mm 0,0 UV-I 0 W/m 7,5 C 7,5 C 11,3 km/h (2 Bft) 95,74 %
24.10.2016 21:42 7,8 C 98 % 1016,5 hPa 0,0 l/m 7,6 km/h (2 Bft) O-NO 59 0 min 0,000 mm 0,0 UV-I 0 W/m 7,5 C 6,8 C 14,5 km/h (3 Bft) 95,74 %
24.10.2016 21:44 7,8 C 98 % 1016,4 hPa 0,0 l/m 8,7 km/h (2 Bft) O-NO 67 0 min 0,000 mm 0,0 UV-I 0 W/m 7,5 C 6,0 C 12,9 km/h (3 Bft) 94,34 %
24.10.2016 21:46 7,8 C 98 % 1016,4 hPa 0,0 l/m 7,4 km/h (2 Bft) O-NO 63 0 min 0,000 mm 0,0 UV-I 0 W/m 7,5 C 7,0 C 12,9 km/h (3 Bft) 97,37 %
24.10.2016 21:48 7,8 C 98 % 1016,4 hPa 0,0 l/m 13,0 km/h (3 Bft) O-NO 69 0 min 0,000 mm 0,0 UV-I 0 W/m 7,5 C 3,4 C 17,7 km/h (3 Bft) 96,23 %
24.10.2016 21:50 7,8 C 98 % 1016,3 hPa 0,0 l/m 9,9 km/h (2 Bft) O-NO 74 0 min 0,000 mm 0,0 UV-I 0 W/m 7,5 C 5,2 C 14,5 km/h (3 Bft) 97,37 %
24.10.2016 21:52 7,8 C 98 % 1016,3 hPa 0,0 l/m 8,8 km/h (2 Bft) O-NO 59 0 min 0,000 mm 0,0 UV-I 0 W/m 7,5 C 6,0 C 14,5 km/h (3 Bft) 96,00 %
24.10.2016 21:54 7,8 C 98 % 1016,4 hPa 0,0 l/m 6,9 km/h (2 Bft) NO 42 0 min 0,000 mm 0,0 UV-I 0 W/m 7,5 C 7,4 C 11,3 km/h (2 Bft) 98,00 %
24.10.2016 21:56 7,8 C 98 % 1016,3 hPa 0,0 l/m 9,6 km/h (2 Bft) O-NO 76 0 min 0,000 mm 0,0 UV-I 0 W/m 7,5 C 5,4 C 16,1 km/h (3 Bft) 97,87 %
24.10.2016 21:58 7,8 C 98 % 1016,2 hPa 0,0 l/m 11,3 km/h (2 Bft) O-NO 59 0 min 0,000 mm 0,0 UV-I 0 W/m 7,5 C 4,4 C 16,1 km/h (3 Bft) 97,87 %
24.10.2016 22:00 7,8 C 98 % 1016,3 hPa 0,0 l/m 8,4 km/h (2 Bft) O-NO 65 0 min 0,000 mm 0,0 UV-I 0 W/m 7,5 C 6,2 C 14,5 km/h (3 Bft) 96,23 %
24.10.2016 22:02 7,8 C 98 % 1016,5 hPa 0,0 l/m 3,3 km/h (1 Bft) NO 40 0 min 0,000 mm 0,0 UV-I 0 W/m 7,5 C 7,8 C 6,4 km/h (2 Bft) 100,00 %
24.10.2016 22:04 7,8 C 98 % 1016,5 hPa 0,0 l/m 5,9 km/h (2 Bft) NO 45 0 min 0,000 mm 0,0 UV-I 0 W/m 7,5 C 7,8 C 11,3 km/h (2 Bft) 94,00 %
24.10.2016 22:06 7,8 C 98 % 1016,5 hPa 0,0 l/m 8,2 km/h (2 Bft) O 90 0 min 0,000 mm 0,0 UV-I 0 W/m 7,5 C 6,4 C 12,9 km/h (3 Bft) 97,73 %
24.10.2016 22:08 7,8 C 98 % 1016,6 hPa 0,0 l/m 8,6 km/h (2 Bft) O 89 0 min 0,000 mm 0,0 UV-I 0 W/m 7,5 C 6,1 C 12,9 km/h (3 Bft) 100,00 %
24.10.2016 22:10 7,8 C 98 % 1016,6 hPa 0,0 l/m 6,9 km/h (2 Bft) NO 49 0 min 0,000 mm 0,0 UV-I 0 W/m 7,5 C 7,4 C 11,3 km/h (2 Bft) 100,00 %
24.10.2016 22:12 7,8 C 98 % 1016,6 hPa 0,0 l/m 6,4 km/h (2 Bft) O 80 0 min 0,000 mm 0,0 UV-I 0 W/m 7,5 C 7,8 C 8,0 km/h (2 Bft) 95,83 %
24.10.2016 22:14 7,8 C 98 % 1016,6 hPa 0,0 l/m 4,2 km/h (1 Bft) O-NO 74 0 min 0,000 mm 0,0 UV-I 0 W/m 7,5 C 7,8 C 6,4 km/h (2 Bft) 100,00 %
24.10.2016 22:16 7,8 C 98 % 1016,6 hPa 0,0 l/m 4,4 km/h (1 Bft) O-NO 69 0 min 0,000 mm 0,0 UV-I 0 W/m 7,5 C 7,8 C 6,4 km/h (2 Bft) 100,00 %
24.10.2016 22:18 7,8 C 98 % 1016,6 hPa 0,0 l/m 3,5 km/h (1 Bft) O-NO 69 0 min 0,000 mm 0,0 UV-I 0 W/m 7,5 C 7,8 C 4,8 km/h (1 Bft) 97,73 %
24.10.2016 22:20 7,8 C 98 % 1016,6 hPa 0,0 l/m 5,3 km/h (1 Bft) N-NO 32 0 min 0,000 mm 0,0 UV-I 0 W/m 7,5 C 7,8 C 8,0 km/h (2 Bft) 98,18 %
24.10.2016 22:22 7,8 C 98 % 1016,6 hPa 0,0 l/m 5,0 km/h (1 Bft) NO 53 0 min 0,000 mm 0,0 UV-I 0 W/m 7,5 C 7,8 C 8,0 km/h (2 Bft) 100,00 %
24.10.2016 22:24 7,8 C 98 % 1016,5 hPa 0,0 l/m 6,9 km/h (2 Bft) NO 55 0 min 0,000 mm 0,0 UV-I 0 W/m 7,5 C 7,4 C 9,7 km/h (2 Bft) 97,87 %
24.10.2016 22:26 7,8 C 98 % 1016,5 hPa 0,0 l/m 4,8 km/h (1 Bft) NO 42 0 min 0,000 mm 0,0 UV-I 0 W/m 7,5 C 7,8 C 9,7 km/h (2 Bft) 100,00 %
24.10.2016 22:28 7,8 C 98 % 1016,6 hPa 0,0 l/m 6,3 km/h (2 Bft) N-NO 32 0 min 0,000 mm 0,0 UV-I 0 W/m 7,5 C 7,8 C 9,7 km/h (2 Bft) 100,00 %
24.10.2016 22:30 7,8 C 98 % 1016,5 hPa 0,0 l/m 7,7 km/h (2 Bft) NO 55 0 min 0,000 mm 0,0 UV-I 0 W/m 7,5 C 6,8 C 11,3 km/h (2 Bft) 100,00 %
24.10.2016 22:32 7,8 C 98 % 1016,5 hPa 0,0 l/m 7,4 km/h (2 Bft) O-NO 57 0 min 0,000 mm 0,0 UV-I 0 W/m 7,5 C 7,0 C 11,3 km/h (2 Bft) 100,00 %
24.10.2016 22:34 7,8 C 98 % 1016,5 hPa 0,0 l/m 5,9 km/h (2 Bft) O-NO 64 0 min 0,000 mm 0,0 UV-I 0 W/m 7,5 C 7,8 C 9,7 km/h (2 Bft) 100,00 %
24.10.2016 22:36 7,8 C 98 % 1016,6 hPa 0,0 l/m 5,4 km/h (1 Bft) O-NO 66 0 min 0,000 mm 0,0 UV-I 0 W/m 7,5 C 7,8 C 8,0 km/h (2 Bft) 100,00 %
24.10.2016 22:38 7,8 C 98 % 1016,6 hPa 0,0 l/m 7,4 km/h (2 Bft) O-NO 59 0 min 0,000 mm 0,0 UV-I 0 W/m 7,5 C 7,0 C 11,3 km/h (2 Bft) 100,00 %
24.10.2016 22:40 7,8 C 98 % 1016,6 hPa 0,0 l/m 6,6 km/h (2 Bft) O-NO 62 0 min 0,000 mm 0,0 UV-I 0 W/m 7,5 C 7,7 C 11,3 km/h (2 Bft) 100,00 %
24.10.2016 22:42 7,8 C 98 % 1016,6 hPa 0,0 l/m 9,3 km/h (2 Bft) O-NO 66 0 min 0,000 mm 0,0 UV-I 0 W/m 7,5 C 5,6 C 14,5 km/h (3 Bft) 100,00 %
24.10.2016 22:44 7,8 C 98 % 1016,5 hPa 0,0 l/m 10,2 km/h (2 Bft) O-NO 65 0 min 0,000 mm 0,0 UV-I 0 W/m 7,5 C 5,0 C 14,5 km/h (3 Bft) 100,00 %
24.10.2016 22:46 7,8 C 98 % 1016,5 hPa 0,0 l/m 9,3 km/h (2 Bft) O-NO 65 0 min 0,000 mm 0,0 UV-I 0 W/m 7,5 C 5,6 C 14,5 km/h (3 Bft) 100,00 %
24.10.2016 22:48 7,8 C 98 % 1016,5 hPa 0,0 l/m 8,0 km/h (2 Bft) O 82 0 min 0,000 mm 0,0 UV-I 0 W/m 7,5 C 6,5 C 14,5 km/h (3 Bft) 97,56 %
24.10.2016 22:50 7,8 C 98 % 1016,5 hPa 0,0 l/m 6,4 km/h (2 Bft) O 88 0 min 0,000 mm 0,0 UV-I 0 W/m 7,5 C 7,8 C 8,0 km/h (2 Bft) 98,00 %
24.10.2016 22:52 7,8 C 98 % 1016,6 hPa 0,0 l/m 5,4 km/h (1 Bft) O-NO 77 0 min 0,000 mm 0,0 UV-I 0 W/m 7,5 C 7,8 C 9,7 km/h (2 Bft) 100,00 %
24.10.2016 22:54 7,8 C 98 % 1016,6 hPa 0,0 l/m 6,0 km/h (2 Bft) O-SO 108 0 min 0,000 mm 0,0 UV-I 0 W/m 7,5 C 7,8 C 9,7 km/h (2 Bft) 100,00 %
24.10.2016 22:56 7,8 C 98 % 1016,6 hPa 0,0 l/m 4,9 km/h (1 Bft) O-NO 66 0 min 0,000 mm 0,0 UV-I 0 W/m 7,5 C 7,8 C 8,0 km/h (2 Bft) 100,00 %
24.10.2016 22:58 7,8 C 98 % 1016,5 hPa 0,0 l/m 6,0 km/h (2 Bft) O-NO 76 0 min 0,000 mm 0,0 UV-I 0 W/m 7,5 C 7,8 C 9,7 km/h (2 Bft) 100,00 %
24.10.2016 23:00 7,8 C 98 % 1016,5 hPa 0,0 l/m 4,5 km/h (1 Bft) O-NO 75 0 min 0,000 mm 0,0 UV-I 0 W/m 7,5 C 7,8 C 8,0 km/h (2 Bft) 100,00 %
24.10.2016 23:02 7,8 C 98 % 1016,5 hPa 0,0 l/m 3,9 km/h (1 Bft) O-NO 75 0 min 0,000 mm 0,0 UV-I 0 W/m 7,5 C 7,8 C 6,4 km/h (2 Bft) 100,00 %
24.10.2016 23:04 7,8 C 98 % 1016,6 hPa 0,0 l/m 4,9 km/h (1 Bft) O-NO 63 0 min 0,000 mm 0,0 UV-I 0 W/m 7,5 C 7,8 C 8,0 km/h (2 Bft) 100,00 %
24.10.2016 23:06 7,8 C 98 % 1016,5 hPa 0,0 l/m 5,0 km/h (1 Bft) NO 40 0 min 0,000 mm 0,0 UV-I 0 W/m 7,5 C 7,8 C 8,0 km/h (2 Bft) 100,00 %
24.10.2016 23:08 7,8 C 98 % 1016,5 hPa 0,0 l/m 5,6 km/h (1 Bft) NO 43 0 min 0,000 mm 0,0 UV-I 0 W/m 7,5 C 7,8 C 9,7 km/h (2 Bft) 97,87 %
24.10.2016 23:10 7,8 C 98 % 1016,4 hPa 0,0 l/m 7,2 km/h (2 Bft) NO 53 0 min 0,000 mm 0,0 UV-I 0 W/m 7,5 C 7,2 C 9,7 km/h (2 Bft) 98,00 %
24.10.2016 23:12 7,8 C 98 % 1016,5 hPa 0,0 l/m 4,7 km/h (1 Bft) NO 52 0 min 0,000 mm 0,0 UV-I 0 W/m 7,5 C 7,8 C 6,4 km/h (2 Bft) 97,73 %
24.10.2016 23:14 7,8 C 98 % 1016,5 hPa 0,0 l/m 5,4 km/h (1 Bft) NO 49 0 min 0,000 mm 0,0 UV-I 0 W/m 7,5 C 7,8 C 8,0 km/h (2 Bft) 100,00 %
24.10.2016 23:16 7,8 C 98 % 1016,5 hPa 0,0 l/m 4,6 km/h (1 Bft) NO 37 0 min 0,000 mm 0,0 UV-I 0 W/m 7,5 C 7,8 C 8,0 km/h (2 Bft) 100,00 %
24.10.2016 23:18 7,8 C 98 % 1016,5 hPa 0,0 l/m 6,0 km/h (2 Bft) O-NO 57 0 min 0,000 mm 0,0 UV-I 0 W/m 7,5 C 7,8 C 8,0 km/h (2 Bft) 100,00 %
24.10.2016 23:20 7,7 C 98 % 1016,5 hPa 0,0 l/m 4,8 km/h (1 Bft) NO 51 0 min 0,000 mm 0,0 UV-I 0 W/m 7,4 C 7,7 C 6,4 km/h (2 Bft) 98,21 %
24.10.2016 23:22 7,7 C 98 % 1016,5 hPa 0,0 l/m 4,2 km/h (1 Bft) NO 50 0 min 0,000 mm 0,0 UV-I 0 W/m 7,4 C 7,7 C 8,0 km/h (2 Bft) 97,87 %
24.10.2016 23:24 7,7 C 98 % 1016,5 hPa 0,0 l/m 2,8 km/h (1 Bft) O-NO 68 0 min 0,000 mm 0,0 UV-I 0 W/m 7,4 C 7,7 C 4,8 km/h (1 Bft) 100,00 %
24.10.2016 23:26 7,7 C 98 % 1016,6 hPa 0,0 l/m 1,8 km/h (1 Bft) O-NO 65 0 min 0,000 mm 0,0 UV-I 0 W/m 7,4 C 7,7 C 4,8 km/h (1 Bft) 95,74 %
24.10.2016 23:28 7,7 C 98 % 1016,7 hPa 0,0 l/m 4,0 km/h (1 Bft) O-NO 65 0 min 0,000 mm 0,0 UV-I 0 W/m 7,4 C 7,7 C 4,8 km/h (1 Bft) 100,00 %
24.10.2016 23:30 7,7 C 98 % 1016,7 hPa 0,0 l/m 4,5 km/h (1 Bft) O-NO 74 0 min 0,000 mm 0,0 UV-I 0 W/m 7,4 C 7,7 C 6,4 km/h (2 Bft) 100,00 %
24.10.2016 23:32 7,7 C 98 % 1016,6 hPa 0,0 l/m 3,2 km/h (1 Bft) O-NO 67 0 min 0,000 mm 0,0 UV-I 0 W/m 7,4 C 7,7 C 4,8 km/h (1 Bft) 100,00 %
24.10.2016 23:34 7,7 C 98 % 1016,6 hPa 0,0 l/m 3,5 km/h (1 Bft) O-NO 63 0 min 0,000 mm 0,0 UV-I 0 W/m 7,4 C 7,7 C 4,8 km/h (1 Bft) 100,00 %
24.10.2016 23:36 7,7 C 98 % 1016,5 hPa 0,0 l/m 3,8 km/h (1 Bft) O-NO 63 0 min 0,000 mm 0,0 UV-I 0 W/m 7,4 C 7,7 C 4,8 km/h (1 Bft) 97,92 %
24.10.2016 23:38 7,7 C 98 % 1016,5 hPa 0,0 l/m 4,7 km/h (1 Bft) O-NO 57 0 min 0,000 mm 0,0 UV-I 0 W/m 7,4 C 7,7 C 6,4 km/h (2 Bft) 97,14 %
24.10.2016 23:40 7,7 C 98 % 1016,4 hPa 0,0 l/m 4,1 km/h (1 Bft) NO 34 0 min 0,000 mm 0,0 UV-I 0 W/m 7,4 C 7,7 C 6,4 km/h (2 Bft) 96,23 %
24.10.2016 23:42 7,7 C 98 % 1016,4 hPa 0,0 l/m 5,6 km/h (1 Bft) O-NO 61 0 min 0,000 mm 0,0 UV-I 0 W/m 7,4 C 7,7 C 8,0 km/h (2 Bft) 98,00 %
24.10.2016 23:44 7,7 C 98 % 1016,3 hPa 0,0 l/m 6,7 km/h (2 Bft) NO 55 0 min 0,000 mm 0,0 UV-I 0 W/m 7,4 C 7,5 C 9,7 km/h (2 Bft) 95,74 %
24.10.2016 23:46 7,7 C 98 % 1016,3 hPa 0,0 l/m 6,0 km/h (2 Bft) O-NO 69 0 min 0,000 mm 0,0 UV-I 0 W/m 7,4 C 7,7 C 8,0 km/h (2 Bft) 100,00 %
24.10.2016 23:48 7,7 C 98 % 1016,3 hPa 0,0 l/m 6,2 km/h (2 Bft) O-NO 57 0 min 0,000 mm 0,0 UV-I 0 W/m 7,4 C 7,7 C 8,0 km/h (2 Bft) 96,00 %
24.10.2016 23:50 7,7 C 98 % 1016,3 hPa 0,0 l/m 5,0 km/h (1 Bft) O-NO 78 0 min 0,000 mm 0,0 UV-I 0 W/m 7,4 C 7,7 C 6,4 km/h (2 Bft) 97,87 %
24.10.2016 23:52 7,7 C 98 % 1016,3 hPa 0,0 l/m 3,3 km/h (1 Bft) O-NO 61 0 min 0,000 mm 0,0 UV-I 0 W/m 7,4 C 7,7 C 6,4 km/h (2 Bft) 98,00 %
24.10.2016 23:54 7,7 C 98 % 1016,3 hPa 0,0 l/m 3,2 km/h (1 Bft) O-NO 61 0 min 0,000 mm 0,0 UV-I 0 W/m 7,4 C 7,7 C 6,4 km/h (2 Bft) 97,87 %
24.10.2016 23:56 7,7 C 98 % 1016,3 hPa 0,0 l/m 1,3 km/h (1 Bft) O-NO 61 0 min 0,000 mm 0,0 UV-I 0 W/m 7,4 C 7,7 C 3,2 km/h (1 Bft) 97,37 %
24.10.2016 23:58 7,7 C 98 % 1016,4 hPa 0,0 l/m 1,5 km/h (1 Bft) O-NO 62 0 min 0,000 mm 0,0 UV-I 0 W/m 7,4 C 7,7 C 3,2 km/h (1 Bft) 96,43 %
_ Min-Zeit 01:42 14:46 00:00 - 04:58 - - - - - - 00:00 19:12 04:58 20:02
Minimum _ 5,2 C 87 % 1015,7 hPa - 0,0 km/h (0 Bft) - - - - - - 4,9 C 2,1 C 0,0 km/h (0 Bft) 92,00 %
_ Max-Zeit 16:00 06:10 10:50 00:00 17:52 - - 13:06 14:00 13:06 13:08 15:56 16:00 18:12 00:00
Maximum _ 10,6 C 99 % 1017,8 hPa 0,0 l/m 17,3 km/h
O-NO (3 Bft)
- - 2 min 0,152 mm 1,6 UV-I 549 W/m 8,9 C 10,6 C 24,1 km/h
O-NO (4 Bft)
100,00 %
Durchschnitt _ 7,2 C 96 % 1016,6 hPa #0,0 l/m 6,3 km/h (2 Bft) O-NO - #2:38 h #0,660 mm 0,9 UV-I 142 W/m 6,7 C 6,3 C 9,9 km/h (2 Bft) 98,75 %